<?xml version="1.0"?>
<gpx xmlns="http://www.topografix.com/GPX/1/1" xmlns:xsi="http://www.w3.org/2001/XMLSchema-instance" xmlns:wptx1="http://www.garmin.com/xmlschemas/WaypointExtension/v1" xmlns:gpxtrx="http://www.garmin.com/xmlschemas/GpxExtensions/v3" xmlns:gpxtpx="http://www.garmin.com/xmlschemas/TrackPointExtension/v1" xmlns:gpxx="http://www.garmin.com/xmlschemas/GpxExtensions/v3" xmlns:trp="http://www.garmin.com/xmlschemas/TripExtensions/v1" xmlns:adv="http://www.garmin.com/xmlschemas/AdventuresExtensions/v1" xmlns:prs="http://www.garmin.com/xmlschemas/PressureExtension/v1" xmlns:tmd="http://www.garmin.com/xmlschemas/TripMetaDataExtensions/v1" xmlns:vptm="http://www.garmin.com/xmlschemas/ViaPointTransportationModeExtensions/v1" xmlns:ctx="http://www.garmin.com/xmlschemas/CreationTimeExtension/v1" xmlns:gpxacc="http://www.garmin.com/xmlschemas/AccelerationExtension/v1" xmlns:gpxpx="http://www.garmin.com/xmlschemas/PowerExtension/v1" xmlns:vidx1="http://www.garmin.com/xmlschemas/VideoExtension/v1" creator="Garmin Desktop App" version="1.1" xsi:schemaLocation="http://www.topografix.com/GPX/1/1 http://www.topografix.com/GPX/1/1/gpx.xsd http://www.garmin.com/xmlschemas/WaypointExtension/v1 http://www8.garmin.com/xmlschemas/WaypointExtensionv1.xsd http://www.garmin.com/xmlschemas/TrackPointExtension/v1 http://www.garmin.com/xmlschemas/TrackPointExtensionv1.xsd http://www.garmin.com/xmlschemas/GpxExtensions/v3 http://www8.garmin.com/xmlschemas/GpxExtensionsv3.xsd http://www.garmin.com/xmlschemas/ActivityExtension/v1 http://www8.garmin.com/xmlschemas/ActivityExtensionv1.xsd http://www.garmin.com/xmlschemas/AdventuresExtensions/v1 http://www8.garmin.com/xmlschemas/AdventuresExtensionv1.xsd http://www.garmin.com/xmlschemas/PressureExtension/v1 http://www.garmin.com/xmlschemas/PressureExtensionv1.xsd http://www.garmin.com/xmlschemas/TripExtensions/v1 http://www.garmin.com/xmlschemas/TripExtensionsv1.xsd http://www.garmin.com/xmlschemas/TripMetaDataExtensions/v1 http://www.garmin.com/xmlschemas/TripMetaDataExtensionsv1.xsd http://www.garmin.com/xmlschemas/ViaPointTransportationModeExtensions/v1 http://www.garmin.com/xmlschemas/ViaPointTransportationModeExtensionsv1.xsd http://www.garmin.com/xmlschemas/CreationTimeExtension/v1 http://www.garmin.com/xmlschemas/CreationTimeExtensionsv1.xsd http://www.garmin.com/xmlschemas/AccelerationExtension/v1 http://www.garmin.com/xmlschemas/AccelerationExtensionv1.xsd http://www.garmin.com/xmlschemas/PowerExtension/v1 http://www.garmin.com/xmlschemas/PowerExtensionv1.xsd http://www.garmin.com/xmlschemas/VideoExtension/v1 http://www.garmin.com/xmlschemas/VideoExtensionv1.xsd">

  <metadata>
    <link href="http://www.garmin.com">
      <text>Garmin International</text>
    </link>
    <time>2015-03-01T18:25:48Z</time>
    <bounds maxlat="47.570692235603929" maxlon="10.935630351305008" minlat="47.553422162309289" minlon="10.859915697947145"/>
  </metadata>

  <trk>
    <name>Schlössel 2015.03.01</name>
    <extensions>
      <gpxx:TrackExtension>
        <gpxx:DisplayColor>Cyan</gpxx:DisplayColor>
      </gpxx:TrackExtension>
      <gpxtrkx:TrackStatsExtension xmlns:gpxtrkx="http://www.garmin.com/xmlschemas/TrackStatsExtension/v1">
        <gpxtrkx:Distance>17694</gpxtrkx:Distance>
        <gpxtrkx:TotalElapsedTime>36163</gpxtrkx:TotalElapsedTime>
        <gpxtrkx:MovingTime>16664</gpxtrkx:MovingTime>
        <gpxtrkx:StoppedTime>4467</gpxtrkx:StoppedTime>
        <gpxtrkx:MovingSpeed>1</gpxtrkx:MovingSpeed>
        <gpxtrkx:MaxSpeed>12</gpxtrkx:MaxSpeed>
        <gpxtrkx:MaxElevation>1778</gpxtrkx:MaxElevation>
        <gpxtrkx:MinElevation>511</gpxtrkx:MinElevation>
        <gpxtrkx:Ascent>1229</gpxtrkx:Ascent>
        <gpxtrkx:Descent>1230</gpxtrkx:Descent>
        <gpxtrkx:AvgAscentRate>0</gpxtrkx:AvgAscentRate>
        <gpxtrkx:MaxAscentRate>2</gpxtrkx:MaxAscentRate>
        <gpxtrkx:AvgDescentRate>0</gpxtrkx:AvgDescentRate>
        <gpxtrkx:MaxDescentRate>-3</gpxtrkx:MaxDescentRate>
      </gpxtrkx:TrackStatsExtension>
    </extensions>
    <trkseg>
      <trkpt lat="47.562481574714184" lon="10.935597494244576">
        <ele>978.850000000000023</ele>
        <time>2015-03-01T08:10:06Z</time>
      </trkpt>
      <trkpt lat="47.562482161447406" lon="10.935595314949751">
        <ele>978.850000000000023</ele>
        <time>2015-03-01T08:10:07Z</time>
      </trkpt>
      <trkpt lat="47.562483251094818" lon="10.935587687417865">
        <ele>981.220000000000027</ele>
        <time>2015-03-01T08:10:11Z</time>
      </trkpt>
      <trkpt lat="47.562485095113516" lon="10.935574108734727">
        <ele>969</ele>
        <time>2015-03-01T08:10:52Z</time>
      </trkpt>
      <trkpt lat="47.562485514208674" lon="10.935573354363441">
        <ele>969</ele>
        <time>2015-03-01T08:10:53Z</time>
      </trkpt>
      <trkpt lat="47.562492722645402" lon="10.935566313564777">
        <ele>965.590000000000032</ele>
        <time>2015-03-01T08:11:09Z</time>
      </trkpt>
      <trkpt lat="47.562487861141562" lon="10.935566481202841">
        <ele>968.720000000000027</ele>
        <time>2015-03-01T08:11:11Z</time>
      </trkpt>
      <trkpt lat="47.562488866969943" lon="10.935562709346414">
        <ele>968.200000000000045</ele>
        <time>2015-03-01T08:11:40Z</time>
      </trkpt>
      <trkpt lat="47.562486939132214" lon="10.935580814257264">
        <ele>968.029999999999973</ele>
        <time>2015-03-01T08:12:09Z</time>
      </trkpt>
      <trkpt lat="47.56250043399632" lon="10.935563463717699">
        <ele>967.470000000000027</ele>
        <time>2015-03-01T08:12:59Z</time>
      </trkpt>
      <trkpt lat="47.56249163299799" lon="10.935556925833225">
        <ele>969.649999999999977</ele>
        <time>2015-03-01T08:13:27Z</time>
      </trkpt>
      <trkpt lat="47.562479227781296" lon="10.935569331049919">
        <ele>969.82000000000005</ele>
        <time>2015-03-01T08:13:47Z</time>
      </trkpt>
      <trkpt lat="47.562471097335219" lon="10.935561368241906">
        <ele>969.809999999999945</ele>
        <time>2015-03-01T08:14:01Z</time>
      </trkpt>
      <trkpt lat="47.56246673874557" lon="10.935555333271623">
        <ele>970.019999999999982</ele>
        <time>2015-03-01T08:14:17Z</time>
      </trkpt>
      <trkpt lat="47.562468163669109" lon="10.93556740321219">
        <ele>969.120000000000005</ele>
        <time>2015-03-01T08:14:29Z</time>
      </trkpt>
      <trkpt lat="47.562545277178288" lon="10.935507388785481">
        <ele>969.990000000000009</ele>
        <time>2015-03-01T08:14:43Z</time>
      </trkpt>
      <trkpt lat="47.562558520585299" lon="10.935499845072627">
        <ele>969.850000000000023</ele>
        <time>2015-03-01T08:14:46Z</time>
      </trkpt>
      <trkpt lat="47.562603866681457" lon="10.935448128730059">
        <ele>967.850000000000023</ele>
        <time>2015-03-01T08:14:55Z</time>
      </trkpt>
      <trkpt lat="47.562599843367934" lon="10.935414014384151">
        <ele>968.5</ele>
        <time>2015-03-01T08:14:57Z</time>
      </trkpt>
      <trkpt lat="47.562599256634712" lon="10.935396496206522">
        <ele>968.42999999999995</ele>
        <time>2015-03-01T08:14:58Z</time>
      </trkpt>
      <trkpt lat="47.562673855572939" lon="10.935079073533416">
        <ele>968.399999999999977</ele>
        <time>2015-03-01T08:15:17Z</time>
      </trkpt>
      <trkpt lat="47.562817856669426" lon="10.934888552874327">
        <ele>968.759999999999991</ele>
        <time>2015-03-01T08:15:32Z</time>
      </trkpt>
      <trkpt lat="47.563058417290449" lon="10.934665845707059">
        <ele>968.850000000000023</ele>
        <time>2015-03-01T08:15:52Z</time>
      </trkpt>
      <trkpt lat="47.563168723136187" lon="10.934393769130111">
        <ele>968.710000000000036</ele>
        <time>2015-03-01T08:16:09Z</time>
      </trkpt>
      <trkpt lat="47.563150869682431" lon="10.934047931805253">
        <ele>969.700000000000045</ele>
        <time>2015-03-01T08:16:28Z</time>
      </trkpt>
      <trkpt lat="47.563166627660394" lon="10.933732688426971">
        <ele>970.539999999999964</ele>
        <time>2015-03-01T08:16:45Z</time>
      </trkpt>
      <trkpt lat="47.56324265152216" lon="10.933396657928824">
        <ele>971.659999999999968</ele>
        <time>2015-03-01T08:17:04Z</time>
      </trkpt>
      <trkpt lat="47.563398806378245" lon="10.933138998225331">
        <ele>973.07000000000005</ele>
        <time>2015-03-01T08:17:23Z</time>
      </trkpt>
      <trkpt lat="47.563537862151861" lon="10.932933054864407">
        <ele>974.590000000000032</ele>
        <time>2015-03-01T08:17:39Z</time>
      </trkpt>
      <trkpt lat="47.563677839934826" lon="10.932748233899474">
        <ele>974.919999999999959</ele>
        <time>2015-03-01T08:17:54Z</time>
      </trkpt>
      <trkpt lat="47.563811279833317" lon="10.932567687705159">
        <ele>976.399999999999977</ele>
        <time>2015-03-01T08:18:09Z</time>
      </trkpt>
      <trkpt lat="47.563984617590904" lon="10.932324277237058">
        <ele>977.230000000000018</ele>
        <time>2015-03-01T08:18:28Z</time>
      </trkpt>
      <trkpt lat="47.564143789932132" lon="10.932132583111525">
        <ele>978.190000000000055</ele>
        <time>2015-03-01T08:18:44Z</time>
      </trkpt>
      <trkpt lat="47.564311511814594" lon="10.931934770196676">
        <ele>979.169999999999959</ele>
        <time>2015-03-01T08:19:01Z</time>
      </trkpt>
      <trkpt lat="47.564429277554154" lon="10.931771909818053">
        <ele>980.549999999999955</ele>
        <time>2015-03-01T08:19:14Z</time>
      </trkpt>
      <trkpt lat="47.564559280872345" lon="10.931573342531919">
        <ele>981.330000000000041</ele>
        <time>2015-03-01T08:19:29Z</time>
      </trkpt>
      <trkpt lat="47.564657935872674" lon="10.931380642578006">
        <ele>982.409999999999968</ele>
        <time>2015-03-01T08:19:43Z</time>
      </trkpt>
      <trkpt lat="47.564662797376513" lon="10.931365136057138">
        <ele>982.460000000000036</ele>
        <time>2015-03-01T08:19:44Z</time>
      </trkpt>
      <trkpt lat="47.564669167622924" lon="10.931349629536271">
        <ele>982.379999999999995</ele>
        <time>2015-03-01T08:19:45Z</time>
      </trkpt>
      <trkpt lat="47.564676459878683" lon="10.931335799396038">
        <ele>982.370000000000005</ele>
        <time>2015-03-01T08:19:46Z</time>
      </trkpt>
      <trkpt lat="47.564684087410569" lon="10.931321382522583">
        <ele>982.730000000000018</ele>
        <time>2015-03-01T08:19:47Z</time>
      </trkpt>
      <trkpt lat="47.564690876752138" lon="10.931305708363652">
        <ele>982.940000000000055</ele>
        <time>2015-03-01T08:19:48Z</time>
      </trkpt>
      <trkpt lat="47.56469733081758" lon="10.931291291490197">
        <ele>982.940000000000055</ele>
        <time>2015-03-01T08:19:49Z</time>
      </trkpt>
      <trkpt lat="47.564703533425927" lon="10.93127679079771">
        <ele>983.230000000000018</ele>
        <time>2015-03-01T08:19:50Z</time>
      </trkpt>
      <trkpt lat="47.564711328595877" lon="10.931262625381351">
        <ele>983.120000000000005</ele>
        <time>2015-03-01T08:19:51Z</time>
      </trkpt>
      <trkpt lat="47.564841499552131" lon="10.930933719500899">
        <ele>984.5</ele>
        <time>2015-03-01T08:20:12Z</time>
      </trkpt>
      <trkpt lat="47.56494996137917" lon="10.930672204121947">
        <ele>985.590000000000032</ele>
        <time>2015-03-01T08:20:28Z</time>
      </trkpt>
      <trkpt lat="47.565062865614891" lon="10.93040456995368">
        <ele>986.299999999999955</ele>
        <time>2015-03-01T08:20:45Z</time>
      </trkpt>
      <trkpt lat="47.565079042688012" lon="10.930368946865201">
        <ele>986.549999999999955</ele>
        <time>2015-03-01T08:20:47Z</time>
      </trkpt>
      <trkpt lat="47.565203178673983" lon="10.930138444527984">
        <ele>988.129999999999995</ele>
        <time>2015-03-01T08:21:03Z</time>
      </trkpt>
      <trkpt lat="47.565336786210537" lon="10.929918419569731">
        <ele>988.399999999999977</ele>
        <time>2015-03-01T08:21:19Z</time>
      </trkpt>
      <trkpt lat="47.56549914367497" lon="10.929689090698957">
        <ele>989.620000000000005</ele>
        <time>2015-03-01T08:21:37Z</time>
      </trkpt>
      <trkpt lat="47.565627805888653" lon="10.929478369653225">
        <ele>990.340000000000032</ele>
        <time>2015-03-01T08:21:53Z</time>
      </trkpt>
      <trkpt lat="47.56572687998414" lon="10.929307714104652">
        <ele>991.17999999999995</ele>
        <time>2015-03-01T08:22:06Z</time>
      </trkpt>
      <trkpt lat="47.565742554143071" lon="10.929261026903987">
        <ele>991.220000000000027</ele>
        <time>2015-03-01T08:22:09Z</time>
      </trkpt>
      <trkpt lat="47.565751690417528" lon="10.929247951135039">
        <ele>991.440000000000055</ele>
        <time>2015-03-01T08:22:10Z</time>
      </trkpt>
      <trkpt lat="47.565758395940065" lon="10.929236970841885">
        <ele>991.42999999999995</ele>
        <time>2015-03-01T08:22:11Z</time>
      </trkpt>
      <trkpt lat="47.565762754529715" lon="10.929224314168096">
        <ele>991.450000000000045</ele>
        <time>2015-03-01T08:22:12Z</time>
      </trkpt>
      <trkpt lat="47.565768118947744" lon="10.929208975285292">
        <ele>991.450000000000045</ele>
        <time>2015-03-01T08:22:13Z</time>
      </trkpt>
      <trkpt lat="47.565908432006836" lon="10.928906723856926">
        <ele>992.860000000000014</ele>
        <time>2015-03-01T08:22:32Z</time>
      </trkpt>
      <trkpt lat="47.566010691225529" lon="10.928648058325052">
        <ele>993.850000000000023</ele>
        <time>2015-03-01T08:22:48Z</time>
      </trkpt>
      <trkpt lat="47.566020665690303" lon="10.928624421358109">
        <ele>994</ele>
        <time>2015-03-01T08:22:50Z</time>
      </trkpt>
      <trkpt lat="47.566026281565428" lon="10.928610591217875">
        <ele>994</ele>
        <time>2015-03-01T08:22:51Z</time>
      </trkpt>
      <trkpt lat="47.566031645983458" lon="10.928597096353769">
        <ele>993.840000000000032</ele>
        <time>2015-03-01T08:22:52Z</time>
      </trkpt>
      <trkpt lat="47.566161397844553" lon="10.928316554054618">
        <ele>994.610000000000014</ele>
        <time>2015-03-01T08:23:12Z</time>
      </trkpt>
      <trkpt lat="47.566187046468258" lon="10.928243212401867">
        <ele>994.730000000000018</ele>
        <time>2015-03-01T08:23:17Z</time>
      </trkpt>
      <trkpt lat="47.566191991791129" lon="10.928227873519063">
        <ele>994.850000000000023</ele>
        <time>2015-03-01T08:23:18Z</time>
      </trkpt>
      <trkpt lat="47.566197607666254" lon="10.928213959559798">
        <ele>995.100000000000023</ele>
        <time>2015-03-01T08:23:19Z</time>
      </trkpt>
      <trkpt lat="47.566266842186451" lon="10.928018828853965">
        <ele>995.899999999999977</ele>
        <time>2015-03-01T08:23:32Z</time>
      </trkpt>
      <trkpt lat="47.566268853843212" lon="10.927999885752797">
        <ele>996.220000000000027</ele>
        <time>2015-03-01T08:23:33Z</time>
      </trkpt>
      <trkpt lat="47.566343368962407" lon="10.927688917145133">
        <ele>996.980000000000018</ele>
        <time>2015-03-01T08:23:52Z</time>
      </trkpt>
      <trkpt lat="47.566395001485944" lon="10.927439974620938">
        <ele>997.519999999999982</ele>
        <time>2015-03-01T08:24:07Z</time>
      </trkpt>
      <trkpt lat="47.566435234621167" lon="10.927110649645329">
        <ele>998.730000000000018</ele>
        <time>2015-03-01T08:24:25Z</time>
      </trkpt>
      <trkpt lat="47.56646323017776" lon="10.926869669929147">
        <ele>1000.120000000000005</ele>
        <time>2015-03-01T08:24:40Z</time>
      </trkpt>
      <trkpt lat="47.566463900730014" lon="10.926709240302444">
        <ele>1001.169999999999959</ele>
        <time>2015-03-01T08:24:49Z</time>
      </trkpt>
      <trkpt lat="47.566464822739363" lon="10.9266924764961">
        <ele>1000.600000000000023</ele>
        <time>2015-03-01T08:24:50Z</time>
      </trkpt>
      <trkpt lat="47.566462475806475" lon="10.926675293594599">
        <ele>1000.649999999999977</ele>
        <time>2015-03-01T08:24:51Z</time>
      </trkpt>
      <trkpt lat="47.566458117216825" lon="10.926656099036336">
        <ele>1001.090000000000032</ele>
        <time>2015-03-01T08:24:52Z</time>
      </trkpt>
      <trkpt lat="47.566455435007811" lon="10.926637575030327">
        <ele>1000.940000000000055</ele>
        <time>2015-03-01T08:24:53Z</time>
      </trkpt>
      <trkpt lat="47.566456440836191" lon="10.926620559766889">
        <ele>1000.740000000000009</ele>
        <time>2015-03-01T08:24:54Z</time>
      </trkpt>
      <trkpt lat="47.566458955407143" lon="10.926603879779577">
        <ele>1001.389999999999986</ele>
        <time>2015-03-01T08:24:55Z</time>
      </trkpt>
      <trkpt lat="47.566460045054555" lon="10.92658493667841">
        <ele>1001.5</ele>
        <time>2015-03-01T08:24:56Z</time>
      </trkpt>
      <trkpt lat="47.566459877416492" lon="10.926565239205956">
        <ele>1001.490000000000009</ele>
        <time>2015-03-01T08:24:57Z</time>
      </trkpt>
      <trkpt lat="47.566481586545706" lon="10.926463315263391">
        <ele>1001.830000000000041</ele>
        <time>2015-03-01T08:25:03Z</time>
      </trkpt>
      <trkpt lat="47.56648963317275" lon="10.926432553678751">
        <ele>1001.600000000000023</ele>
        <time>2015-03-01T08:25:05Z</time>
      </trkpt>
      <trkpt lat="47.566490722820163" lon="10.926412520930171">
        <ele>1001.899999999999977</ele>
        <time>2015-03-01T08:25:06Z</time>
      </trkpt>
      <trkpt lat="47.566498769447207" lon="10.926357703283429">
        <ele>1002.240000000000009</ele>
        <time>2015-03-01T08:25:09Z</time>
      </trkpt>
      <trkpt lat="47.56650522351265" lon="10.926340185105801">
        <ele>1002.200000000000045</ele>
        <time>2015-03-01T08:25:10Z</time>
      </trkpt>
      <trkpt lat="47.566505810245872" lon="10.926319565623999">
        <ele>1002.17999999999995</ele>
        <time>2015-03-01T08:25:11Z</time>
      </trkpt>
      <trkpt lat="47.566506899893284" lon="10.926298443228006">
        <ele>1002.350000000000023</ele>
        <time>2015-03-01T08:25:12Z</time>
      </trkpt>
      <trkpt lat="47.566509079188108" lon="10.926279835402966">
        <ele>1002.299999999999955</ele>
        <time>2015-03-01T08:25:13Z</time>
      </trkpt>
      <trkpt lat="47.566512767225504" lon="10.926262233406305">
        <ele>1002.67999999999995</ele>
        <time>2015-03-01T08:25:14Z</time>
      </trkpt>
      <trkpt lat="47.566556604579091" lon="10.926007926464081">
        <ele>1003.350000000000023</ele>
        <time>2015-03-01T08:25:28Z</time>
      </trkpt>
      <trkpt lat="47.566651906818151" lon="10.925698801875114">
        <ele>1004.860000000000014</ele>
        <time>2015-03-01T08:25:47Z</time>
      </trkpt>
      <trkpt lat="47.566772270947695" lon="10.925401411950588">
        <ele>1006.309999999999945</ele>
        <time>2015-03-01T08:26:07Z</time>
      </trkpt>
      <trkpt lat="47.566830273717642" lon="10.925185410305858">
        <ele>1008.710000000000036</ele>
        <time>2015-03-01T08:26:22Z</time>
      </trkpt>
      <trkpt lat="47.566832955926657" lon="10.925169149413705">
        <ele>1009.220000000000027</ele>
        <time>2015-03-01T08:26:23Z</time>
      </trkpt>
      <trkpt lat="47.566838404163718" lon="10.925153307616711">
        <ele>1008.799999999999955</ele>
        <time>2015-03-01T08:26:24Z</time>
      </trkpt>
      <trkpt lat="47.566871847957373" lon="10.924976281821728">
        <ele>1010.159999999999968</ele>
        <time>2015-03-01T08:26:36Z</time>
      </trkpt>
      <trkpt lat="47.56685902364552" lon="10.924747036769986">
        <ele>1009.899999999999977</ele>
        <time>2015-03-01T08:26:47Z</time>
      </trkpt>
      <trkpt lat="47.566855000331998" lon="10.924725579097867">
        <ele>1009.809999999999945</ele>
        <time>2015-03-01T08:26:48Z</time>
      </trkpt>
      <trkpt lat="47.566854497417808" lon="10.92470713891089">
        <ele>1010.539999999999964</ele>
        <time>2015-03-01T08:26:49Z</time>
      </trkpt>
      <trkpt lat="47.566856006160378" lon="10.92469003982842">
        <ele>1010.200000000000045</ele>
        <time>2015-03-01T08:26:50Z</time>
      </trkpt>
      <trkpt lat="47.566857347264886" lon="10.924672102555633">
        <ele>1010.549999999999955</ele>
        <time>2015-03-01T08:26:51Z</time>
      </trkpt>
      <trkpt lat="47.566855922341347" lon="10.924653662368655">
        <ele>1009.840000000000032</ele>
        <time>2015-03-01T08:26:52Z</time>
      </trkpt>
      <trkpt lat="47.566853407770395" lon="10.924634719267488">
        <ele>1010.100000000000023</ele>
        <time>2015-03-01T08:26:53Z</time>
      </trkpt>
      <trkpt lat="47.566851647570729" lon="10.924614854156971">
        <ele>1009.690000000000055</ele>
        <time>2015-03-01T08:26:54Z</time>
      </trkpt>
      <trkpt lat="47.566852066665888" lon="10.924596078693867">
        <ele>1010.490000000000009</ele>
        <time>2015-03-01T08:26:55Z</time>
      </trkpt>
      <trkpt lat="47.56685215048492" lon="10.924576548859477">
        <ele>1010.200000000000045</ele>
        <time>2015-03-01T08:26:56Z</time>
      </trkpt>
      <trkpt lat="47.566851982846856" lon="10.924557019025087">
        <ele>1010.480000000000018</ele>
        <time>2015-03-01T08:26:57Z</time>
      </trkpt>
      <trkpt lat="47.566851060837507" lon="10.924278320744634">
        <ele>1011.669999999999959</ele>
        <time>2015-03-01T08:27:13Z</time>
      </trkpt>
      <trkpt lat="47.56689322181046" lon="10.924072461202741">
        <ele>1012.25</ele>
        <time>2015-03-01T08:27:25Z</time>
      </trkpt>
      <trkpt lat="47.566899005323648" lon="10.924058211967349">
        <ele>1012.019999999999982</ele>
        <time>2015-03-01T08:27:26Z</time>
      </trkpt>
      <trkpt lat="47.566901100799441" lon="10.924037508666515">
        <ele>1012.450000000000045</ele>
        <time>2015-03-01T08:27:27Z</time>
      </trkpt>
      <trkpt lat="47.566899927332997" lon="10.924018230289221">
        <ele>1012.009999999999991</ele>
        <time>2015-03-01T08:27:28Z</time>
      </trkpt>
      <trkpt lat="47.566900849342346" lon="10.923999873921275">
        <ele>1012.590000000000032</ele>
        <time>2015-03-01T08:27:29Z</time>
      </trkpt>
      <trkpt lat="47.566904872655869" lon="10.923983445391059">
        <ele>1012.330000000000041</ele>
        <time>2015-03-01T08:27:30Z</time>
      </trkpt>
      <trkpt lat="47.56691032089293" lon="10.923965591937304">
        <ele>1012.480000000000018</ele>
        <time>2015-03-01T08:27:31Z</time>
      </trkpt>
      <trkpt lat="47.566909650340676" lon="10.923947067931294">
        <ele>1012.710000000000036</ele>
        <time>2015-03-01T08:27:32Z</time>
      </trkpt>
      <trkpt lat="47.566908644512296" lon="10.923926699906588">
        <ele>1013.049999999999955</ele>
        <time>2015-03-01T08:27:33Z</time>
      </trkpt>
      <trkpt lat="47.566913422197104" lon="10.92390582896769">
        <ele>1012.669999999999959</ele>
        <time>2015-03-01T08:27:34Z</time>
      </trkpt>
      <trkpt lat="47.566916942596436" lon="10.923893256112933">
        <ele>1012.879999999999995</ele>
        <time>2015-03-01T08:27:35Z</time>
      </trkpt>
      <trkpt lat="47.566922809928656" lon="10.923878252506256">
        <ele>1012.970000000000027</ele>
        <time>2015-03-01T08:27:36Z</time>
      </trkpt>
      <trkpt lat="47.566926497966051" lon="10.923860650509596">
        <ele>1013.440000000000055</ele>
        <time>2015-03-01T08:27:37Z</time>
      </trkpt>
      <trkpt lat="47.566928425803781" lon="10.923840114846826">
        <ele>1013.100000000000023</ele>
        <time>2015-03-01T08:27:38Z</time>
      </trkpt>
      <trkpt lat="47.566934125497937" lon="10.923821004107594">
        <ele>1013.450000000000045</ele>
        <time>2015-03-01T08:27:39Z</time>
      </trkpt>
      <trkpt lat="47.566938232630491" lon="10.92380222864449">
        <ele>1013.460000000000036</ele>
        <time>2015-03-01T08:27:40Z</time>
      </trkpt>
      <trkpt lat="47.566943764686584" lon="10.923786135390401">
        <ele>1013.029999999999973</ele>
        <time>2015-03-01T08:27:41Z</time>
      </trkpt>
      <trkpt lat="47.566952146589756" lon="10.923771467059851">
        <ele>1013.600000000000023</ele>
        <time>2015-03-01T08:27:42Z</time>
      </trkpt>
      <trkpt lat="47.566956505179405" lon="10.923753781244159">
        <ele>1013.509999999999991</ele>
        <time>2015-03-01T08:27:43Z</time>
      </trkpt>
      <trkpt lat="47.566958349198103" lon="10.923734838142991">
        <ele>1012.889999999999986</ele>
        <time>2015-03-01T08:27:44Z</time>
      </trkpt>
      <trkpt lat="47.567017693072557" lon="10.923466701060534">
        <ele>1013.980000000000018</ele>
        <time>2015-03-01T08:28:00Z</time>
      </trkpt>
      <trkpt lat="47.56706521846354" lon="10.92330576851964">
        <ele>1014.75</ele>
        <time>2015-03-01T08:28:10Z</time>
      </trkpt>
      <trkpt lat="47.567072762176394" lon="10.923290513455868">
        <ele>1014.710000000000036</ele>
        <time>2015-03-01T08:28:11Z</time>
      </trkpt>
      <trkpt lat="47.567115677520633" lon="10.923135699704289">
        <ele>1015.440000000000055</ele>
        <time>2015-03-01T08:28:19Z</time>
      </trkpt>
      <trkpt lat="47.567120706662536" lon="10.923115918412805">
        <ele>1014.769999999999982</ele>
        <time>2015-03-01T08:28:20Z</time>
      </trkpt>
      <trkpt lat="47.567124729976058" lon="10.92309664003551">
        <ele>1015.370000000000005</ele>
        <time>2015-03-01T08:28:21Z</time>
      </trkpt>
      <trkpt lat="47.567127998918295" lon="10.923078367486596">
        <ele>1015.289999999999964</ele>
        <time>2015-03-01T08:28:22Z</time>
      </trkpt>
      <trkpt lat="47.56712875328958" lon="10.923057161271572">
        <ele>1015.389999999999986</ele>
        <time>2015-03-01T08:28:23Z</time>
      </trkpt>
      <trkpt lat="47.567131100222468" lon="10.923035703599453">
        <ele>1015.600000000000023</ele>
        <time>2015-03-01T08:28:24Z</time>
      </trkpt>
      <trkpt lat="47.567136464640498" lon="10.923015419393778">
        <ele>1015.169999999999959</ele>
        <time>2015-03-01T08:28:25Z</time>
      </trkpt>
      <trkpt lat="47.56713998503983" lon="10.922997314482927">
        <ele>1015.419999999999959</ele>
        <time>2015-03-01T08:28:26Z</time>
      </trkpt>
      <trkpt lat="47.567158760502934" lon="10.922887846827507">
        <ele>1016.370000000000005</ele>
        <time>2015-03-01T08:28:33Z</time>
      </trkpt>
      <trkpt lat="47.567160353064537" lon="10.922867394983768">
        <ele>1015.590000000000032</ele>
        <time>2015-03-01T08:28:34Z</time>
      </trkpt>
      <trkpt lat="47.567164124920964" lon="10.922848703339696">
        <ele>1015.620000000000005</ele>
        <time>2015-03-01T08:28:35Z</time>
      </trkpt>
      <trkpt lat="47.567166974768043" lon="10.922831604257226">
        <ele>1015.860000000000014</ele>
        <time>2015-03-01T08:28:36Z</time>
      </trkpt>
      <trkpt lat="47.567172003909945" lon="10.922815594822168">
        <ele>1016.32000000000005</ele>
        <time>2015-03-01T08:28:37Z</time>
      </trkpt>
      <trkpt lat="47.567178122699261" lon="10.922799669206142">
        <ele>1016.360000000000014</ele>
        <time>2015-03-01T08:28:38Z</time>
      </trkpt>
      <trkpt lat="47.56718005053699" lon="10.922782989218831">
        <ele>1016.409999999999968</ele>
        <time>2015-03-01T08:28:39Z</time>
      </trkpt>
      <trkpt lat="47.567180804908276" lon="10.922765219584107">
        <ele>1016.200000000000045</ele>
        <time>2015-03-01T08:28:40Z</time>
      </trkpt>
      <trkpt lat="47.567181643098593" lon="10.922747030854225">
        <ele>1016.539999999999964</ele>
        <time>2015-03-01T08:28:41Z</time>
      </trkpt>
      <trkpt lat="47.567182900384068" lon="10.922728171572089">
        <ele>1016.139999999999986</ele>
        <time>2015-03-01T08:28:42Z</time>
      </trkpt>
      <trkpt lat="47.567225648090243" lon="10.922499429434538">
        <ele>1016.75</ele>
        <time>2015-03-01T08:28:55Z</time>
      </trkpt>
      <trkpt lat="47.567233946174383" lon="10.922409994527698">
        <ele>1017.269999999999982</ele>
        <time>2015-03-01T08:29:00Z</time>
      </trkpt>
      <trkpt lat="47.56723428145051" lon="10.922393649816513">
        <ele>1017</ele>
        <time>2015-03-01T08:29:01Z</time>
      </trkpt>
      <trkpt lat="47.567232856526971" lon="10.922376215457916">
        <ele>1016.649999999999977</ele>
        <time>2015-03-01T08:29:02Z</time>
      </trkpt>
      <trkpt lat="47.567236963659525" lon="10.922362972050905">
        <ele>1016.899999999999977</ele>
        <time>2015-03-01T08:29:03Z</time>
      </trkpt>
      <trkpt lat="47.567238556221128" lon="10.922351991757751">
        <ele>1016.919999999999959</ele>
        <time>2015-03-01T08:29:04Z</time>
      </trkpt>
      <trkpt lat="47.567235454916954" lon="10.922331875190139">
        <ele>1017.009999999999991</ele>
        <time>2015-03-01T08:29:05Z</time>
      </trkpt>
      <trkpt lat="47.567231096327305" lon="10.922309998422861">
        <ele>1017.639999999999986</ele>
        <time>2015-03-01T08:29:06Z</time>
      </trkpt>
      <trkpt lat="47.567229503765702" lon="10.92223422601819">
        <ele>1017.470000000000027</ele>
        <time>2015-03-01T08:29:10Z</time>
      </trkpt>
      <trkpt lat="47.567225731909275" lon="10.922217378392816">
        <ele>1017.799999999999955</ele>
        <time>2015-03-01T08:29:11Z</time>
      </trkpt>
      <trkpt lat="47.567204274237156" lon="10.921917390078306">
        <ele>1017.909999999999968</ele>
        <time>2015-03-01T08:29:27Z</time>
      </trkpt>
      <trkpt lat="47.567167561501265" lon="10.921686636283994">
        <ele>1018.629999999999995</ele>
        <time>2015-03-01T08:29:41Z</time>
      </trkpt>
      <trkpt lat="47.567165214568377" lon="10.921647660434246">
        <ele>1018.539999999999964</ele>
        <time>2015-03-01T08:29:43Z</time>
      </trkpt>
      <trkpt lat="47.56716538220644" lon="10.921630142256618">
        <ele>1018.279999999999973</ele>
        <time>2015-03-01T08:29:44Z</time>
      </trkpt>
      <trkpt lat="47.56716244854033" lon="10.921611953526735">
        <ele>1018.700000000000045</ele>
        <time>2015-03-01T08:29:45Z</time>
      </trkpt>
      <trkpt lat="47.567125651985407" lon="10.921269804239273">
        <ele>1019.539999999999964</ele>
        <time>2015-03-01T08:30:04Z</time>
      </trkpt>
      <trkpt lat="47.567124646157026" lon="10.920917764306068">
        <ele>1021.549999999999955</ele>
        <time>2015-03-01T08:30:24Z</time>
      </trkpt>
      <trkpt lat="47.567120706662536" lon="10.920557258650661">
        <ele>1023.370000000000005</ele>
        <time>2015-03-01T08:30:45Z</time>
      </trkpt>
      <trkpt lat="47.567050969228148" lon="10.920275459066033">
        <ele>1025.1099999999999</ele>
        <time>2015-03-01T08:31:03Z</time>
      </trkpt>
      <trkpt lat="47.566952062770724" lon="10.920025845989585">
        <ele>1026.660000000000082</ele>
        <time>2015-03-01T08:31:20Z</time>
      </trkpt>
      <trkpt lat="47.566886348649859" lon="10.919712278991938">
        <ele>1028.839999999999918</ele>
        <time>2015-03-01T08:31:40Z</time>
      </trkpt>
      <trkpt lat="47.566920211538672" lon="10.919402567669749">
        <ele>1030.559999999999945</ele>
        <time>2015-03-01T08:31:57Z</time>
      </trkpt>
      <trkpt lat="47.566995061933994" lon="10.919051449745893">
        <ele>1032.160000000000082</ele>
        <time>2015-03-01T08:32:16Z</time>
      </trkpt>
      <trkpt lat="47.567048957571387" lon="10.918718688189983">
        <ele>1031.8900000000001</ele>
        <time>2015-03-01T08:32:34Z</time>
      </trkpt>
      <trkpt lat="47.567124310880899" lon="10.918388608843088">
        <ele>1034.099999999999909</ele>
        <time>2015-03-01T08:32:54Z</time>
      </trkpt>
      <trkpt lat="47.567286416888237" lon="10.918147461488843">
        <ele>1036.1099999999999</ele>
        <time>2015-03-01T08:33:14Z</time>
      </trkpt>
      <trkpt lat="47.5675387121737" lon="10.917972279712558">
        <ele>1037.25</ele>
        <time>2015-03-01T08:33:37Z</time>
      </trkpt>
      <trkpt lat="47.567737028002739" lon="10.917765581980348">
        <ele>1039.480000000000018</ele>
        <time>2015-03-01T08:33:58Z</time>
      </trkpt>
      <trkpt lat="47.567893015220761" lon="10.917454361915588">
        <ele>1040.420000000000073</ele>
        <time>2015-03-01T08:34:19Z</time>
      </trkpt>
      <trkpt lat="47.56797063164413" lon="10.917234420776367">
        <ele>1041.6099999999999</ele>
        <time>2015-03-01T08:34:35Z</time>
      </trkpt>
      <trkpt lat="47.568096946924925" lon="10.916894702240825">
        <ele>1042.299999999999955</ele>
        <time>2015-03-01T08:34:58Z</time>
      </trkpt>
      <trkpt lat="47.568212952464819" lon="10.916602928191423">
        <ele>1045.190000000000055</ele>
        <time>2015-03-01T08:35:19Z</time>
      </trkpt>
      <trkpt lat="47.568340608850121" lon="10.916253821924329">
        <ele>1046.710000000000036</ele>
        <time>2015-03-01T08:35:42Z</time>
      </trkpt>
      <trkpt lat="47.568397941067815" lon="10.916097080335021">
        <ele>1048.240000000000009</ele>
        <time>2015-03-01T08:35:53Z</time>
      </trkpt>
      <trkpt lat="47.568401964381337" lon="10.916082831099629">
        <ele>1048.029999999999973</ele>
        <time>2015-03-01T08:35:54Z</time>
      </trkpt>
      <trkpt lat="47.56840942427516" lon="10.91607210226357">
        <ele>1048.309999999999945</ele>
        <time>2015-03-01T08:35:55Z</time>
      </trkpt>
      <trkpt lat="47.568472623825073" lon="10.915925418958068">
        <ele>1049.700000000000045</ele>
        <time>2015-03-01T08:36:07Z</time>
      </trkpt>
      <trkpt lat="47.568477150052786" lon="10.915909996256232">
        <ele>1049.920000000000073</ele>
        <time>2015-03-01T08:36:08Z</time>
      </trkpt>
      <trkpt lat="47.568483352661133" lon="10.915899518877268">
        <ele>1050.099999999999909</ele>
        <time>2015-03-01T08:36:09Z</time>
      </trkpt>
      <trkpt lat="47.568511683493853" lon="10.915870768949389">
        <ele>1050.119999999999891</ele>
        <time>2015-03-01T08:36:13Z</time>
      </trkpt>
      <trkpt lat="47.568519059568644" lon="10.915858531370759">
        <ele>1050.410000000000082</ele>
        <time>2015-03-01T08:36:14Z</time>
      </trkpt>
      <trkpt lat="47.568548144772649" lon="10.915678236633539">
        <ele>1052.980000000000018</ele>
        <time>2015-03-01T08:36:28Z</time>
      </trkpt>
      <trkpt lat="47.568547390401363" lon="10.915650073438883">
        <ele>1053.220000000000027</ele>
        <time>2015-03-01T08:36:30Z</time>
      </trkpt>
      <trkpt lat="47.568545714020729" lon="10.91562015004456">
        <ele>1053.700000000000045</ele>
        <time>2015-03-01T08:36:32Z</time>
      </trkpt>
      <trkpt lat="47.568547893315554" lon="10.915563572198153">
        <ele>1054.970000000000027</ele>
        <time>2015-03-01T08:36:36Z</time>
      </trkpt>
      <trkpt lat="47.56855015642941" lon="10.915547730401158">
        <ele>1055.029999999999973</ele>
        <time>2015-03-01T08:36:37Z</time>
      </trkpt>
      <trkpt lat="47.568549569696188" lon="10.915533313527703">
        <ele>1054.349999999999909</ele>
        <time>2015-03-01T08:36:38Z</time>
      </trkpt>
      <trkpt lat="47.568545714020729" lon="10.915476400405169">
        <ele>1055.240000000000009</ele>
        <time>2015-03-01T08:36:42Z</time>
      </trkpt>
      <trkpt lat="47.56853942759335" lon="10.915448907762766">
        <ele>1055.720000000000027</ele>
        <time>2015-03-01T08:36:44Z</time>
      </trkpt>
      <trkpt lat="47.568542864173651" lon="10.915432311594486">
        <ele>1055.940000000000055</ele>
        <time>2015-03-01T08:36:45Z</time>
      </trkpt>
      <trkpt lat="47.56854428909719" lon="10.915417307987809">
        <ele>1056.230000000000018</ele>
        <time>2015-03-01T08:36:46Z</time>
      </trkpt>
      <trkpt lat="47.568538673222065" lon="10.915402136743069">
        <ele>1056.369999999999891</ele>
        <time>2015-03-01T08:36:47Z</time>
      </trkpt>
      <trkpt lat="47.568533224985003" lon="10.915385959669948">
        <ele>1056.220000000000027</ele>
        <time>2015-03-01T08:36:48Z</time>
      </trkpt>
      <trkpt lat="47.568532135337591" lon="10.915371207520366">
        <ele>1056.25</ele>
        <time>2015-03-01T08:36:49Z</time>
      </trkpt>
      <trkpt lat="47.568529369309545" lon="10.915200635790825">
        <ele>1058.259999999999991</ele>
        <time>2015-03-01T08:37:00Z</time>
      </trkpt>
      <trkpt lat="47.568534146994352" lon="10.915183201432228">
        <ele>1058.569999999999936</ele>
        <time>2015-03-01T08:37:01Z</time>
      </trkpt>
      <trkpt lat="47.56852425634861" lon="10.915148667991161">
        <ele>1058.660000000000082</ele>
        <time>2015-03-01T08:37:03Z</time>
      </trkpt>
      <trkpt lat="47.5685178861022" lon="10.914970217272639">
        <ele>1061.440000000000055</ele>
        <time>2015-03-01T08:37:17Z</time>
      </trkpt>
      <trkpt lat="47.568494249135256" lon="10.914790593087673">
        <ele>1064.029999999999973</ele>
        <time>2015-03-01T08:37:32Z</time>
      </trkpt>
      <trkpt lat="47.568491064012051" lon="10.914720185101032">
        <ele>1065.920000000000073</ele>
        <time>2015-03-01T08:37:40Z</time>
      </trkpt>
      <trkpt lat="47.568448064848781" lon="10.91445523314178">
        <ele>1066.720000000000027</ele>
        <time>2015-03-01T08:37:56Z</time>
      </trkpt>
      <trkpt lat="47.568444963544607" lon="10.914433775469661">
        <ele>1066.369999999999891</ele>
        <time>2015-03-01T08:37:57Z</time>
      </trkpt>
      <trkpt lat="47.568451585248113" lon="10.914379712194204">
        <ele>1067.150000000000091</ele>
        <time>2015-03-01T08:38:00Z</time>
      </trkpt>
      <trkpt lat="47.56845586001873" lon="10.914287762716413">
        <ele>1067.160000000000082</ele>
        <time>2015-03-01T08:38:05Z</time>
      </trkpt>
      <trkpt lat="47.568452255800366" lon="10.914252055808902">
        <ele>1067.190000000000055</ele>
        <time>2015-03-01T08:38:07Z</time>
      </trkpt>
      <trkpt lat="47.568447897210717" lon="10.914184749126434">
        <ele>1068.160000000000082</ele>
        <time>2015-03-01T08:38:11Z</time>
      </trkpt>
      <trkpt lat="47.568436833098531" lon="10.914145354181528">
        <ele>1067.730000000000018</ele>
        <time>2015-03-01T08:38:13Z</time>
      </trkpt>
      <trkpt lat="47.568404814228415" lon="10.914063882082701">
        <ele>1067.940000000000055</ele>
        <time>2015-03-01T08:38:18Z</time>
      </trkpt>
      <trkpt lat="47.568367095664144" lon="10.913941841572523">
        <ele>1066.680000000000064</ele>
        <time>2015-03-01T08:38:25Z</time>
      </trkpt>
      <trkpt lat="47.568380506709218" lon="10.913889203220606">
        <ele>1067.210000000000036</ele>
        <time>2015-03-01T08:38:28Z</time>
      </trkpt>
      <trkpt lat="47.56833516061306" lon="10.913582006469369">
        <ele>1065.25</ele>
        <time>2015-03-01T08:38:42Z</time>
      </trkpt>
      <trkpt lat="47.56834446452558" lon="10.913280341774225">
        <ele>1062.920000000000073</ele>
        <time>2015-03-01T08:38:54Z</time>
      </trkpt>
      <trkpt lat="47.568376148119569" lon="10.913103399798274">
        <ele>1063.269999999999982</ele>
        <time>2015-03-01T08:39:02Z</time>
      </trkpt>
      <trkpt lat="47.568398779258132" lon="10.912989657372236">
        <ele>1063.430000000000064</ele>
        <time>2015-03-01T08:39:08Z</time>
      </trkpt>
      <trkpt lat="47.568446975201368" lon="10.912821181118488">
        <ele>1064.039999999999964</ele>
        <time>2015-03-01T08:39:18Z</time>
      </trkpt>
      <trkpt lat="47.568465163931251" lon="10.912738870829344">
        <ele>1064.049999999999955</ele>
        <time>2015-03-01T08:39:23Z</time>
      </trkpt>
      <trkpt lat="47.568498020991683" lon="10.912616495043039">
        <ele>1064.930000000000064</ele>
        <time>2015-03-01T08:39:31Z</time>
      </trkpt>
      <trkpt lat="47.568536996841431" lon="10.912392530590296">
        <ele>1066.049999999999955</ele>
        <time>2015-03-01T08:39:44Z</time>
      </trkpt>
      <trkpt lat="47.568578738719225" lon="10.912232017144561">
        <ele>1066.8900000000001</ele>
        <time>2015-03-01T08:39:54Z</time>
      </trkpt>
      <trkpt lat="47.568631796166301" lon="10.911981649696827">
        <ele>1068.170000000000073</ele>
        <time>2015-03-01T08:40:11Z</time>
      </trkpt>
      <trkpt lat="47.568648140877485" lon="10.911891795694828">
        <ele>1068.789999999999964</ele>
        <time>2015-03-01T08:40:17Z</time>
      </trkpt>
      <trkpt lat="47.568682506680489" lon="10.911614522337914">
        <ele>1070.019999999999982</ele>
        <time>2015-03-01T08:40:34Z</time>
      </trkpt>
      <trkpt lat="47.568682506680489" lon="10.911600105464458">
        <ele>1070.450000000000045</ele>
        <time>2015-03-01T08:40:35Z</time>
      </trkpt>
      <trkpt lat="47.568706227466464" lon="10.911349486559629">
        <ele>1071.509999999999991</ele>
        <time>2015-03-01T08:40:50Z</time>
      </trkpt>
      <trkpt lat="47.568709747865796" lon="10.911299614235759">
        <ele>1071.410000000000082</ele>
        <time>2015-03-01T08:40:53Z</time>
      </trkpt>
      <trkpt lat="47.568706562742591" lon="10.911207078024745">
        <ele>1071.900000000000091</ele>
        <time>2015-03-01T08:40:58Z</time>
      </trkpt>
      <trkpt lat="47.568699102848768" lon="10.91117019765079">
        <ele>1072.25</ele>
        <time>2015-03-01T08:41:00Z</time>
      </trkpt>
      <trkpt lat="47.568687619641423" lon="10.911103645339608">
        <ele>1072.680000000000064</ele>
        <time>2015-03-01T08:41:04Z</time>
      </trkpt>
      <trkpt lat="47.568658450618386" lon="10.910896863788366">
        <ele>1072.880000000000109</ele>
        <time>2015-03-01T08:41:16Z</time>
      </trkpt>
      <trkpt lat="47.56861955858767" lon="10.910733416676521">
        <ele>1072.940000000000055</ele>
        <time>2015-03-01T08:41:26Z</time>
      </trkpt>
      <trkpt lat="47.568585276603699" lon="10.91055991128087">
        <ele>1073.869999999999891</ele>
        <time>2015-03-01T08:41:37Z</time>
      </trkpt>
      <trkpt lat="47.568554934114218" lon="10.910445917397738">
        <ele>1074.5</ele>
        <time>2015-03-01T08:41:44Z</time>
      </trkpt>
      <trkpt lat="47.568552838638425" lon="10.910402834415436">
        <ele>1074.799999999999955</ele>
        <time>2015-03-01T08:41:47Z</time>
      </trkpt>
      <trkpt lat="47.56854428909719" lon="10.91031214222312">
        <ele>1075.8599999999999</ele>
        <time>2015-03-01T08:41:54Z</time>
      </trkpt>
      <trkpt lat="47.568511012941599" lon="10.910181049257517">
        <ele>1076.25</ele>
        <time>2015-03-01T08:42:02Z</time>
      </trkpt>
      <trkpt lat="47.568504894152284" lon="10.910100331529975">
        <ele>1076.3599999999999</ele>
        <time>2015-03-01T08:42:07Z</time>
      </trkpt>
      <trkpt lat="47.568517215549946" lon="10.90984208509326">
        <ele>1077.529999999999973</ele>
        <time>2015-03-01T08:42:24Z</time>
      </trkpt>
      <trkpt lat="47.56861318834126" lon="10.909486440941691">
        <ele>1079.660000000000082</ele>
        <time>2015-03-01T08:42:46Z</time>
      </trkpt>
      <trkpt lat="47.568681752309203" lon="10.909192319959402">
        <ele>1079.829999999999927</ele>
        <time>2015-03-01T08:43:04Z</time>
      </trkpt>
      <trkpt lat="47.568690134212375" lon="10.90911503881216">
        <ele>1079.910000000000082</ele>
        <time>2015-03-01T08:43:09Z</time>
      </trkpt>
      <trkpt lat="47.568653505295515" lon="10.908860061317682">
        <ele>1081.589999999999918</ele>
        <time>2015-03-01T08:43:26Z</time>
      </trkpt>
      <trkpt lat="47.568643027916551" lon="10.908695859834552">
        <ele>1082.809999999999945</ele>
        <time>2015-03-01T08:43:38Z</time>
      </trkpt>
      <trkpt lat="47.568638250231743" lon="10.908659314736724">
        <ele>1083.809999999999945</ele>
        <time>2015-03-01T08:43:41Z</time>
      </trkpt>
      <trkpt lat="47.56867571733892" lon="10.908362595364451">
        <ele>1085.8900000000001</ele>
        <time>2015-03-01T08:44:00Z</time>
      </trkpt>
      <trkpt lat="47.568727182224393" lon="10.908088926225901">
        <ele>1087.190000000000055</ele>
        <time>2015-03-01T08:44:17Z</time>
      </trkpt>
      <trkpt lat="47.568770265206695" lon="10.90784358792007">
        <ele>1088.470000000000027</ele>
        <time>2015-03-01T08:44:31Z</time>
      </trkpt>
      <trkpt lat="47.568834805861115" lon="10.907487021759152">
        <ele>1089.599999999999909</ele>
        <time>2015-03-01T08:44:51Z</time>
      </trkpt>
      <trkpt lat="47.56885944865644" lon="10.907146213576198">
        <ele>1090.650000000000091</ele>
        <time>2015-03-01T08:45:11Z</time>
      </trkpt>
      <trkpt lat="47.568856934085488" lon="10.907132383435965">
        <ele>1090.839999999999918</ele>
        <time>2015-03-01T08:45:12Z</time>
      </trkpt>
      <trkpt lat="47.56882575340569" lon="10.907028950750828">
        <ele>1092.019999999999982</ele>
        <time>2015-03-01T08:45:20Z</time>
      </trkpt>
      <trkpt lat="47.568799015134573" lon="10.906941359862685">
        <ele>1092.569999999999936</ele>
        <time>2015-03-01T08:45:26Z</time>
      </trkpt>
      <trkpt lat="47.568778311833739" lon="10.906669283285737">
        <ele>1093.519999999999982</ele>
        <time>2015-03-01T08:45:43Z</time>
      </trkpt>
      <trkpt lat="47.568774120882154" lon="10.906566604971886">
        <ele>1094.380000000000109</ele>
        <time>2015-03-01T08:45:50Z</time>
      </trkpt>
      <trkpt lat="47.568776635453105" lon="10.906357225030661">
        <ele>1095.259999999999991</ele>
        <time>2015-03-01T08:46:02Z</time>
      </trkpt>
      <trkpt lat="47.56875148974359" lon="10.905989427119493">
        <ele>1094.769999999999982</ele>
        <time>2015-03-01T08:46:23Z</time>
      </trkpt>
      <trkpt lat="47.568752495571971" lon="10.905952379107475">
        <ele>1095.339999999999918</ele>
        <time>2015-03-01T08:46:25Z</time>
      </trkpt>
      <trkpt lat="47.568727182224393" lon="10.90579136274755">
        <ele>1095.930000000000064</ele>
        <time>2015-03-01T08:46:35Z</time>
      </trkpt>
      <trkpt lat="47.568726930767298" lon="10.905601512640715">
        <ele>1096.279999999999973</ele>
        <time>2015-03-01T08:46:47Z</time>
      </trkpt>
      <trkpt lat="47.568716956302524" lon="10.905509227886796">
        <ele>1096.450000000000045</ele>
        <time>2015-03-01T08:46:53Z</time>
      </trkpt>
      <trkpt lat="47.56874855607748" lon="10.905269840732217">
        <ele>1098.230000000000018</ele>
        <time>2015-03-01T08:47:06Z</time>
      </trkpt>
      <trkpt lat="47.568713603541255" lon="10.905109159648418">
        <ele>1098.730000000000018</ele>
        <time>2015-03-01T08:47:17Z</time>
      </trkpt>
      <trkpt lat="47.568686446174979" lon="10.905027016997337">
        <ele>1098.710000000000036</ele>
        <time>2015-03-01T08:47:23Z</time>
      </trkpt>
      <trkpt lat="47.568711759522557" lon="10.904926182702184">
        <ele>1099.529999999999973</ele>
        <time>2015-03-01T08:47:29Z</time>
      </trkpt>
      <trkpt lat="47.568872608244419" lon="10.904576573520899">
        <ele>1101.3599999999999</ele>
        <time>2015-03-01T08:47:46Z</time>
      </trkpt>
      <trkpt lat="47.568982243537903" lon="10.904217744246125">
        <ele>1102.019999999999982</ele>
        <time>2015-03-01T08:48:06Z</time>
      </trkpt>
      <trkpt lat="47.569061955437064" lon="10.903932843357325">
        <ele>1104.130000000000109</ele>
        <time>2015-03-01T08:48:25Z</time>
      </trkpt>
      <trkpt lat="47.569109983742237" lon="10.903590358793736">
        <ele>1105.880000000000109</ele>
        <time>2015-03-01T08:48:46Z</time>
      </trkpt>
      <trkpt lat="47.569160107523203" lon="10.903338650241494">
        <ele>1107.700000000000045</ele>
        <time>2015-03-01T08:49:04Z</time>
      </trkpt>
      <trkpt lat="47.569168237969279" lon="10.903123402968049">
        <ele>1111.029999999999973</ele>
        <time>2015-03-01T08:49:18Z</time>
      </trkpt>
      <trkpt lat="47.569181565195322" lon="10.902864653617144">
        <ele>1112.160000000000082</ele>
        <time>2015-03-01T08:49:35Z</time>
      </trkpt>
      <trkpt lat="47.569211404770613" lon="10.902604395523667">
        <ele>1113.25</ele>
        <time>2015-03-01T08:49:51Z</time>
      </trkpt>
      <trkpt lat="47.569244932383299" lon="10.902368361130357">
        <ele>1114.309999999999945</ele>
        <time>2015-03-01T08:50:05Z</time>
      </trkpt>
      <trkpt lat="47.56928164511919" lon="10.90203233063221">
        <ele>1116.150000000000091</ele>
        <time>2015-03-01T08:50:26Z</time>
      </trkpt>
      <trkpt lat="47.569295978173614" lon="10.901908613741398">
        <ele>1117.099999999999909</ele>
        <time>2015-03-01T08:50:34Z</time>
      </trkpt>
      <trkpt lat="47.569317603483796" lon="10.901793949306011">
        <ele>1117.079999999999927</ele>
        <time>2015-03-01T08:50:41Z</time>
      </trkpt>
      <trkpt lat="47.569389184936881" lon="10.901562524959445">
        <ele>1118.920000000000073</ele>
        <time>2015-03-01T08:50:56Z</time>
      </trkpt>
      <trkpt lat="47.569425897672772" lon="10.901425732299685">
        <ele>1119.490000000000009</ele>
        <time>2015-03-01T08:51:05Z</time>
      </trkpt>
      <trkpt lat="47.569456491619349" lon="10.901334118098021">
        <ele>1120.019999999999982</ele>
        <time>2015-03-01T08:51:11Z</time>
      </trkpt>
      <trkpt lat="47.569597726687789" lon="10.90119338594377">
        <ele>1121.190000000000055</ele>
        <time>2015-03-01T08:51:27Z</time>
      </trkpt>
      <trkpt lat="47.569731501862407" lon="10.901086097583175">
        <ele>1121.759999999999991</ele>
        <time>2015-03-01T08:51:40Z</time>
      </trkpt>
      <trkpt lat="47.569766454398632" lon="10.901039242744446">
        <ele>1122</ele>
        <time>2015-03-01T08:51:44Z</time>
      </trkpt>
      <trkpt lat="47.569838706403971" lon="10.900880238041282">
        <ele>1121.809999999999945</ele>
        <time>2015-03-01T08:51:55Z</time>
      </trkpt>
      <trkpt lat="47.569840801879764" lon="10.900749061256647">
        <ele>1122.309999999999945</ele>
        <time>2015-03-01T08:52:02Z</time>
      </trkpt>
      <trkpt lat="47.569850524887443" lon="10.900703463703394">
        <ele>1122.339999999999918</ele>
        <time>2015-03-01T08:52:05Z</time>
      </trkpt>
      <trkpt lat="47.569853458553553" lon="10.900538424029946">
        <ele>1122.970000000000027</ele>
        <time>2015-03-01T08:52:17Z</time>
      </trkpt>
      <trkpt lat="47.569877682253718" lon="10.900479666888714">
        <ele>1122.400000000000091</ele>
        <time>2015-03-01T08:52:30Z</time>
      </trkpt>
      <trkpt lat="47.569906432181597" lon="10.900488300248981">
        <ele>1122.089999999999918</ele>
        <time>2015-03-01T08:52:48Z</time>
      </trkpt>
      <trkpt lat="47.569923028349876" lon="10.900428034365177">
        <ele>1122.289999999999964</ele>
        <time>2015-03-01T08:52:53Z</time>
      </trkpt>
      <trkpt lat="47.570001482963562" lon="10.900218822062016">
        <ele>1123.519999999999982</ele>
        <time>2015-03-01T08:53:07Z</time>
      </trkpt>
      <trkpt lat="47.569907605648041" lon="10.900039616972208">
        <ele>1123.940000000000055</ele>
        <time>2015-03-01T08:53:20Z</time>
      </trkpt>
      <trkpt lat="47.569887321442366" lon="10.900052525103092">
        <ele>1123.3900000000001</ele>
        <time>2015-03-01T08:53:41Z</time>
      </trkpt>
      <trkpt lat="47.569877682253718" lon="10.900061074644327">
        <ele>1124.130000000000109</ele>
        <time>2015-03-01T08:54:03Z</time>
      </trkpt>
      <trkpt lat="47.569866199046373" lon="10.900043975561857">
        <ele>1124.150000000000091</ele>
        <time>2015-03-01T08:54:15Z</time>
      </trkpt>
      <trkpt lat="47.569788414984941" lon="10.899680703878403">
        <ele>1125.789999999999964</ele>
        <time>2015-03-01T08:54:37Z</time>
      </trkpt>
      <trkpt lat="47.569783721119165" lon="10.899663437157869">
        <ele>1126.019999999999982</ele>
        <time>2015-03-01T08:54:38Z</time>
      </trkpt>
      <trkpt lat="47.569755893200636" lon="10.899600991979241">
        <ele>1126.589999999999918</ele>
        <time>2015-03-01T08:54:42Z</time>
      </trkpt>
      <trkpt lat="47.569741224870086" lon="10.899574002251029">
        <ele>1126.589999999999918</ele>
        <time>2015-03-01T08:54:44Z</time>
      </trkpt>
      <trkpt lat="47.569693950936198" lon="10.89937811717391">
        <ele>1127.839999999999918</ele>
        <time>2015-03-01T08:54:57Z</time>
      </trkpt>
      <trkpt lat="47.569679114967585" lon="10.899352468550205">
        <ele>1128</ele>
        <time>2015-03-01T08:54:59Z</time>
      </trkpt>
      <trkpt lat="47.569663189351559" lon="10.899103274568915">
        <ele>1129.769999999999982</ele>
        <time>2015-03-01T08:55:15Z</time>
      </trkpt>
      <trkpt lat="47.56966863758862" lon="10.898906216025352">
        <ele>1131.089999999999918</ele>
        <time>2015-03-01T08:55:32Z</time>
      </trkpt>
      <trkpt lat="47.569645335897803" lon="10.898864390328526">
        <ele>1129.880000000000109</ele>
        <time>2015-03-01T08:55:57Z</time>
      </trkpt>
      <trkpt lat="47.569650448858738" lon="10.898871850222349">
        <ele>1131.910000000000082</ele>
        <time>2015-03-01T08:56:01Z</time>
      </trkpt>
      <trkpt lat="47.569650029763579" lon="10.898870760574937">
        <ele>1130.690000000000055</ele>
        <time>2015-03-01T08:56:03Z</time>
      </trkpt>
      <trkpt lat="47.569638462737203" lon="10.898849051445723">
        <ele>1130.5</ele>
        <time>2015-03-01T08:56:32Z</time>
      </trkpt>
      <trkpt lat="47.569644832983613" lon="10.898864977061749">
        <ele>1131.230000000000018</ele>
        <time>2015-03-01T08:57:05Z</time>
      </trkpt>
      <trkpt lat="47.569669643417001" lon="10.898877549916506">
        <ele>1131.059999999999945</ele>
        <time>2015-03-01T08:57:34Z</time>
      </trkpt>
      <trkpt lat="47.569659920409322" lon="10.898854248225689">
        <ele>1131.309999999999945</ele>
        <time>2015-03-01T08:58:00Z</time>
      </trkpt>
      <trkpt lat="47.569709541276097" lon="10.89887386187911">
        <ele>1130.930000000000064</ele>
        <time>2015-03-01T08:58:23Z</time>
      </trkpt>
      <trkpt lat="47.569718006998301" lon="10.898885345086455">
        <ele>1131.220000000000027</ele>
        <time>2015-03-01T08:58:46Z</time>
      </trkpt>
      <trkpt lat="47.569714318960905" lon="10.898867240175605">
        <ele>1131.660000000000082</ele>
        <time>2015-03-01T08:59:13Z</time>
      </trkpt>
      <trkpt lat="47.569739883765578" lon="10.898876544088125">
        <ele>1130.720000000000027</ele>
        <time>2015-03-01T08:59:38Z</time>
      </trkpt>
      <trkpt lat="47.56974633783102" lon="10.898898504674435">
        <ele>1131.400000000000091</ele>
        <time>2015-03-01T08:59:59Z</time>
      </trkpt>
      <trkpt lat="47.569770561531186" lon="10.898899007588625">
        <ele>1131.369999999999891</ele>
        <time>2015-03-01T09:00:20Z</time>
      </trkpt>
      <trkpt lat="47.569721946492791" lon="10.898890122771263">
        <ele>1131.160000000000082</ele>
        <time>2015-03-01T09:00:42Z</time>
      </trkpt>
      <trkpt lat="47.569658579304814" lon="10.898853410035372">
        <ele>1131.069999999999936</ele>
        <time>2015-03-01T09:01:09Z</time>
      </trkpt>
      <trkpt lat="47.569694370031357" lon="10.898842932656407">
        <ele>1130.369999999999891</ele>
        <time>2015-03-01T09:01:37Z</time>
      </trkpt>
      <trkpt lat="47.569710379466414" lon="10.898865982890129">
        <ele>1132.1400000000001</ele>
        <time>2015-03-01T09:02:02Z</time>
      </trkpt>
      <trkpt lat="47.569696549326181" lon="10.898855170235038">
        <ele>1131.660000000000082</ele>
        <time>2015-03-01T09:02:22Z</time>
      </trkpt>
      <trkpt lat="47.569686993956566" lon="10.898852152749896">
        <ele>1131.539999999999964</ele>
        <time>2015-03-01T09:02:43Z</time>
      </trkpt>
      <trkpt lat="47.569714402779937" lon="10.898868078365922">
        <ele>1132.289999999999964</ele>
        <time>2015-03-01T09:03:12Z</time>
      </trkpt>
      <trkpt lat="47.56968473084271" lon="10.898861037567258">
        <ele>1132.759999999999991</ele>
        <time>2015-03-01T09:03:34Z</time>
      </trkpt>
      <trkpt lat="47.569696381688118" lon="10.898867743089795">
        <ele>1131.960000000000036</ele>
        <time>2015-03-01T09:03:55Z</time>
      </trkpt>
      <trkpt lat="47.569797551259398" lon="10.898924823850393">
        <ele>1133.039999999999964</ele>
        <time>2015-03-01T09:04:16Z</time>
      </trkpt>
      <trkpt lat="47.569774584844708" lon="10.898895403370261">
        <ele>1132.1099999999999</ele>
        <time>2015-03-01T09:04:41Z</time>
      </trkpt>
      <trkpt lat="47.569723958149552" lon="10.898884339258075">
        <ele>1131.900000000000091</ele>
        <time>2015-03-01T09:05:03Z</time>
      </trkpt>
      <trkpt lat="47.569703171029687" lon="10.898914514109492">
        <ele>1133.029999999999973</ele>
        <time>2015-03-01T09:05:25Z</time>
      </trkpt>
      <trkpt lat="47.56973217241466" lon="10.898667583242059">
        <ele>1135.509999999999991</ele>
        <time>2015-03-01T09:05:44Z</time>
      </trkpt>
      <trkpt lat="47.56973116658628" lon="10.898635564371943">
        <ele>1134.920000000000073</ele>
        <time>2015-03-01T09:05:46Z</time>
      </trkpt>
      <trkpt lat="47.569743236526847" lon="10.898434985429049">
        <ele>1136.759999999999991</ele>
        <time>2015-03-01T09:05:59Z</time>
      </trkpt>
      <trkpt lat="47.569699818268418" lon="10.898275393992662">
        <ele>1138.119999999999891</ele>
        <time>2015-03-01T09:06:11Z</time>
      </trkpt>
      <trkpt lat="47.569620944559574" lon="10.898077413439751">
        <ele>1139.650000000000091</ele>
        <time>2015-03-01T09:06:29Z</time>
      </trkpt>
      <trkpt lat="47.569556571543217" lon="10.897948248311877">
        <ele>1140.480000000000018</ele>
        <time>2015-03-01T09:06:43Z</time>
      </trkpt>
      <trkpt lat="47.569485995918512" lon="10.897746747359633">
        <ele>1141.369999999999891</ele>
        <time>2015-03-01T09:06:59Z</time>
      </trkpt>
      <trkpt lat="47.569469148293138" lon="10.897666281089187">
        <ele>1142</ele>
        <time>2015-03-01T09:07:05Z</time>
      </trkpt>
      <trkpt lat="47.569464119151235" lon="10.897639291360974">
        <ele>1142.470000000000027</ele>
        <time>2015-03-01T09:07:07Z</time>
      </trkpt>
      <trkpt lat="47.569446265697479" lon="10.897539714351296">
        <ele>1142.3900000000001</ele>
        <time>2015-03-01T09:07:14Z</time>
      </trkpt>
      <trkpt lat="47.569404104724526" lon="10.897397724911571">
        <ele>1143.549999999999955</ele>
        <time>2015-03-01T09:07:25Z</time>
      </trkpt>
      <trkpt lat="47.569327997043729" lon="10.897221621125937">
        <ele>1145.75</ele>
        <time>2015-03-01T09:07:41Z</time>
      </trkpt>
      <trkpt lat="47.56930117495358" lon="10.896969409659505">
        <ele>1147.1099999999999</ele>
        <time>2015-03-01T09:07:57Z</time>
      </trkpt>
      <trkpt lat="47.569307209923863" lon="10.896875029429793">
        <ele>1147.720000000000027</ele>
        <time>2015-03-01T09:08:03Z</time>
      </trkpt>
      <trkpt lat="47.569342330098152" lon="10.896695153787732">
        <ele>1148.069999999999936</ele>
        <time>2015-03-01T09:08:14Z</time>
      </trkpt>
      <trkpt lat="47.569411480799317" lon="10.89640824124217">
        <ele>1149.980000000000018</ele>
        <time>2015-03-01T09:08:34Z</time>
      </trkpt>
      <trkpt lat="47.569429920986295" lon="10.896252421662211">
        <ele>1151.210000000000036</ele>
        <time>2015-03-01T09:08:46Z</time>
      </trkpt>
      <trkpt lat="47.569433189928532" lon="10.896200034767389">
        <ele>1151.470000000000027</ele>
        <time>2015-03-01T09:08:50Z</time>
      </trkpt>
      <trkpt lat="47.569439727813005" lon="10.896011358126998">
        <ele>1152.759999999999991</ele>
        <time>2015-03-01T09:09:07Z</time>
      </trkpt>
      <trkpt lat="47.569442661479115" lon="10.895844139158726">
        <ele>1154.869999999999891</ele>
        <time>2015-03-01T09:09:23Z</time>
      </trkpt>
      <trkpt lat="47.569442326202989" lon="10.895827459171414">
        <ele>1154.809999999999945</ele>
        <time>2015-03-01T09:09:24Z</time>
      </trkpt>
      <trkpt lat="47.569440901279449" lon="10.895797619596124">
        <ele>1155.240000000000009</ele>
        <time>2015-03-01T09:09:26Z</time>
      </trkpt>
      <trkpt lat="47.569441571831703" lon="10.895741879940033">
        <ele>1155.470000000000027</ele>
        <time>2015-03-01T09:09:30Z</time>
      </trkpt>
      <trkpt lat="47.569431765004992" lon="10.89566845446825">
        <ele>1156</ele>
        <time>2015-03-01T09:09:35Z</time>
      </trkpt>
      <trkpt lat="47.569442829117179" lon="10.895411968231201">
        <ele>1158.8599999999999</ele>
        <time>2015-03-01T09:09:52Z</time>
      </trkpt>
      <trkpt lat="47.569494377821684" lon="10.895143579691648">
        <ele>1160.599999999999909</ele>
        <time>2015-03-01T09:10:10Z</time>
      </trkpt>
      <trkpt lat="47.569503597915173" lon="10.894912574440241">
        <ele>1162.839999999999918</ele>
        <time>2015-03-01T09:10:28Z</time>
      </trkpt>
      <trkpt lat="47.569481721147895" lon="10.894813248887658">
        <ele>1163.1099999999999</ele>
        <time>2015-03-01T09:10:36Z</time>
      </trkpt>
      <trkpt lat="47.569423550739884" lon="10.894571682438254">
        <ele>1165.180000000000064</ele>
        <time>2015-03-01T09:10:55Z</time>
      </trkpt>
      <trkpt lat="47.569382395595312" lon="10.894323578104377">
        <ele>1167.599999999999909</ele>
        <time>2015-03-01T09:11:16Z</time>
      </trkpt>
      <trkpt lat="47.569354651495814" lon="10.894120233133435">
        <ele>1169.3900000000001</ele>
        <time>2015-03-01T09:11:34Z</time>
      </trkpt>
      <trkpt lat="47.569302851334214" lon="10.89394262060523">
        <ele>1172.549999999999955</ele>
        <time>2015-03-01T09:11:52Z</time>
      </trkpt>
      <trkpt lat="47.569259516894817" lon="10.893771043047309">
        <ele>1174.650000000000091</ele>
        <time>2015-03-01T09:12:08Z</time>
      </trkpt>
      <trkpt lat="47.569267312064767" lon="10.893664844334126">
        <ele>1176.650000000000091</ele>
        <time>2015-03-01T09:12:27Z</time>
      </trkpt>
      <trkpt lat="47.569263372570276" lon="10.893631149083376">
        <ele>1176.6400000000001</ele>
        <time>2015-03-01T09:12:46Z</time>
      </trkpt>
      <trkpt lat="47.569276615977287" lon="10.893635675311089">
        <ele>1177.339999999999918</ele>
        <time>2015-03-01T09:12:48Z</time>
      </trkpt>
      <trkpt lat="47.569469315931201" lon="10.893706083297729">
        <ele>1180.410000000000082</ele>
        <time>2015-03-01T09:13:10Z</time>
      </trkpt>
      <trkpt lat="47.569574089720845" lon="10.893800714984536">
        <ele>1183.690000000000055</ele>
        <time>2015-03-01T09:13:29Z</time>
      </trkpt>
      <trkpt lat="47.569673750549555" lon="10.893732821568847">
        <ele>1186.539999999999964</ele>
        <time>2015-03-01T09:13:45Z</time>
      </trkpt>
      <trkpt lat="47.569623375311494" lon="10.89351749047637">
        <ele>1189.069999999999936</ele>
        <time>2015-03-01T09:14:06Z</time>
      </trkpt>
      <trkpt lat="47.569618262350559" lon="10.893502654507756">
        <ele>1189.190000000000055</ele>
        <time>2015-03-01T09:14:07Z</time>
      </trkpt>
      <trkpt lat="47.569584818556905" lon="10.893275253474712">
        <ele>1192.190000000000055</ele>
        <time>2015-03-01T09:14:26Z</time>
      </trkpt>
      <trkpt lat="47.569565791636705" lon="10.893025556579232">
        <ele>1194.8900000000001</ele>
        <time>2015-03-01T09:14:48Z</time>
      </trkpt>
      <trkpt lat="47.569551710039377" lon="10.892817685380578">
        <ele>1198.069999999999936</ele>
        <time>2015-03-01T09:15:06Z</time>
      </trkpt>
      <trkpt lat="47.569643072783947" lon="10.892561115324497">
        <ele>1199.819999999999936</ele>
        <time>2015-03-01T09:15:29Z</time>
      </trkpt>
      <trkpt lat="47.569691771641374" lon="10.892427591606975">
        <ele>1202.3900000000001</ele>
        <time>2015-03-01T09:15:48Z</time>
      </trkpt>
      <trkpt lat="47.569790175184608" lon="10.89218694716692">
        <ele>1205.269999999999982</ele>
        <time>2015-03-01T09:16:12Z</time>
      </trkpt>
      <trkpt lat="47.569925710558891" lon="10.891948314383626">
        <ele>1208.049999999999955</ele>
        <time>2015-03-01T09:16:36Z</time>
      </trkpt>
      <trkpt lat="47.569974744692445" lon="10.891760140657425">
        <ele>1211.1099999999999</ele>
        <time>2015-03-01T09:16:54Z</time>
      </trkpt>
      <trkpt lat="47.570053618401289" lon="10.891562663018703">
        <ele>1213.369999999999891</ele>
        <time>2015-03-01T09:17:15Z</time>
      </trkpt>
      <trkpt lat="47.570177670568228" lon="10.891394605860114">
        <ele>1216.200000000000045</ele>
        <time>2015-03-01T09:17:37Z</time>
      </trkpt>
      <trkpt lat="47.570335166528821" lon="10.891269883140922">
        <ele>1218.470000000000027</ele>
        <time>2015-03-01T09:17:57Z</time>
      </trkpt>
      <trkpt lat="47.570442203432322" lon="10.891161588951945">
        <ele>1221.5</ele>
        <time>2015-03-01T09:18:12Z</time>
      </trkpt>
      <trkpt lat="47.570379506796598" lon="10.891125379130244">
        <ele>1224.130000000000109</ele>
        <time>2015-03-01T09:18:30Z</time>
      </trkpt>
      <trkpt lat="47.570269787684083" lon="10.891159158200026">
        <ele>1225.6099999999999</ele>
        <time>2015-03-01T09:18:46Z</time>
      </trkpt>
      <trkpt lat="47.570072896778584" lon="10.891171060502529">
        <ele>1228.589999999999918</ele>
        <time>2015-03-01T09:19:09Z</time>
      </trkpt>
      <trkpt lat="47.569918418303132" lon="10.891137197613716">
        <ele>1231.670000000000073</ele>
        <time>2015-03-01T09:19:32Z</time>
      </trkpt>
      <trkpt lat="47.569779027253389" lon="10.891145076602697">
        <ele>1232.920000000000073</ele>
        <time>2015-03-01T09:19:50Z</time>
      </trkpt>
      <trkpt lat="47.569626476615667" lon="10.891232499852777">
        <ele>1235.440000000000055</ele>
        <time>2015-03-01T09:20:10Z</time>
      </trkpt>
      <trkpt lat="47.569494629278779" lon="10.891364933922887">
        <ele>1237.509999999999991</ele>
        <time>2015-03-01T09:20:30Z</time>
      </trkpt>
      <trkpt lat="47.569397650659084" lon="10.891507593914866">
        <ele>1240.700000000000045</ele>
        <time>2015-03-01T09:20:48Z</time>
      </trkpt>
      <trkpt lat="47.569353394210339" lon="10.891474233940244">
        <ele>1243.200000000000045</ele>
        <time>2015-03-01T09:21:07Z</time>
      </trkpt>
      <trkpt lat="47.569321626797318" lon="10.891248509287834">
        <ele>1245.8599999999999</ele>
        <time>2015-03-01T09:21:29Z</time>
      </trkpt>
      <trkpt lat="47.569392872974277" lon="10.891016246750951">
        <ele>1248.690000000000055</ele>
        <time>2015-03-01T09:21:51Z</time>
      </trkpt>
      <trkpt lat="47.569480380043387" lon="10.890800077468157">
        <ele>1251.25</ele>
        <time>2015-03-01T09:22:16Z</time>
      </trkpt>
      <trkpt lat="47.569554056972265" lon="10.890600085258484">
        <ele>1253.950000000000045</ele>
        <time>2015-03-01T09:22:39Z</time>
      </trkpt>
      <trkpt lat="47.569665787741542" lon="10.890397997573018">
        <ele>1256.650000000000091</ele>
        <time>2015-03-01T09:23:03Z</time>
      </trkpt>
      <trkpt lat="47.569804256781936" lon="10.890259528532624">
        <ele>1259.200000000000045</ele>
        <time>2015-03-01T09:23:24Z</time>
      </trkpt>
      <trkpt lat="47.569943144917488" lon="10.890128770843148">
        <ele>1261.789999999999964</ele>
        <time>2015-03-01T09:23:46Z</time>
      </trkpt>
      <trkpt lat="47.570036184042692" lon="10.890016034245491">
        <ele>1264.940000000000055</ele>
        <time>2015-03-01T09:24:04Z</time>
      </trkpt>
      <trkpt lat="47.570182951167226" lon="10.889866584911942">
        <ele>1267.720000000000027</ele>
        <time>2015-03-01T09:24:27Z</time>
      </trkpt>
      <trkpt lat="47.570292418822646" lon="10.889672376215458">
        <ele>1270.799999999999955</ele>
        <time>2015-03-01T09:24:49Z</time>
      </trkpt>
      <trkpt lat="47.570352852344513" lon="10.889528291299939">
        <ele>1273.849999999999909</ele>
        <time>2015-03-01T09:25:06Z</time>
      </trkpt>
      <trkpt lat="47.570357378572226" lon="10.889519909396768">
        <ele>1273.730000000000018</ele>
        <time>2015-03-01T09:25:07Z</time>
      </trkpt>
      <trkpt lat="47.570462403818965" lon="10.889344979077578">
        <ele>1276.289999999999964</ele>
        <time>2015-03-01T09:25:26Z</time>
      </trkpt>
      <trkpt lat="47.570536248385906" lon="10.889201397076249">
        <ele>1278.009999999999991</ele>
        <time>2015-03-01T09:25:47Z</time>
      </trkpt>
      <trkpt lat="47.570586707442999" lon="10.889035603031516">
        <ele>1280.579999999999927</ele>
        <time>2015-03-01T09:26:06Z</time>
      </trkpt>
      <trkpt lat="47.570692235603929" lon="10.888826055452228">
        <ele>1283.650000000000091</ele>
        <time>2015-03-01T09:26:29Z</time>
      </trkpt>
      <trkpt lat="47.570686787366867" lon="10.888631846755743">
        <ele>1286.829999999999927</ele>
        <time>2015-03-01T09:26:49Z</time>
      </trkpt>
      <trkpt lat="47.570668179541826" lon="10.888554062694311">
        <ele>1288.099999999999909</ele>
        <time>2015-03-01T09:27:09Z</time>
      </trkpt>
      <trkpt lat="47.57064244709909" lon="10.888545596972108">
        <ele>1289.369999999999891</ele>
        <time>2015-03-01T09:27:16Z</time>
      </trkpt>
      <trkpt lat="47.570544043555856" lon="10.888659926131368">
        <ele>1289.730000000000018</ele>
        <time>2015-03-01T09:27:35Z</time>
      </trkpt>
      <trkpt lat="47.570495428517461" lon="10.888805352151394">
        <ele>1289.009999999999991</ele>
        <time>2015-03-01T09:27:52Z</time>
      </trkpt>
      <trkpt lat="47.570360312238336" lon="10.889009032398462">
        <ele>1288.450000000000045</ele>
        <time>2015-03-01T09:28:12Z</time>
      </trkpt>
      <trkpt lat="47.570273727178574" lon="10.889164935797453">
        <ele>1289.150000000000091</ele>
        <time>2015-03-01T09:28:31Z</time>
      </trkpt>
      <trkpt lat="47.570126038044691" lon="10.88933726772666">
        <ele>1288.789999999999964</ele>
        <time>2015-03-01T09:28:53Z</time>
      </trkpt>
      <trkpt lat="47.569979103282094" lon="10.889468779787421">
        <ele>1289.720000000000027</ele>
        <time>2015-03-01T09:29:13Z</time>
      </trkpt>
      <trkpt lat="47.569852452725172" lon="10.889568189159036">
        <ele>1290.539999999999964</ele>
        <time>2015-03-01T09:29:35Z</time>
      </trkpt>
      <trkpt lat="47.569748181849718" lon="10.88964806869626">
        <ele>1291.200000000000045</ele>
        <time>2015-03-01T09:29:59Z</time>
      </trkpt>
      <trkpt lat="47.569684647023678" lon="10.889678075909615">
        <ele>1292.119999999999891</ele>
        <time>2015-03-01T09:30:22Z</time>
      </trkpt>
      <trkpt lat="47.569689592346549" lon="10.889669694006443">
        <ele>1291.6400000000001</ele>
        <time>2015-03-01T09:30:51Z</time>
      </trkpt>
      <trkpt lat="47.569594960659742" lon="10.889686457812786">
        <ele>1292.900000000000091</ele>
        <time>2015-03-01T09:31:07Z</time>
      </trkpt>
      <trkpt lat="47.569484235718846" lon="10.889746639877558">
        <ele>1292.440000000000055</ele>
        <time>2015-03-01T09:31:28Z</time>
      </trkpt>
      <trkpt lat="47.569422461092472" lon="10.889796428382397">
        <ele>1293.029999999999973</ele>
        <time>2015-03-01T09:31:48Z</time>
      </trkpt>
      <trkpt lat="47.569305198267102" lon="10.88985719718039">
        <ele>1293.180000000000064</ele>
        <time>2015-03-01T09:32:08Z</time>
      </trkpt>
      <trkpt lat="47.569270581007004" lon="10.88985912501812">
        <ele>1294.099999999999909</ele>
        <time>2015-03-01T09:32:11Z</time>
      </trkpt>
      <trkpt lat="47.569117108359933" lon="10.889900699257851">
        <ele>1294.829999999999927</ele>
        <time>2015-03-01T09:32:31Z</time>
      </trkpt>
      <trkpt lat="47.569054830819368" lon="10.889917882159352">
        <ele>1294.849999999999909</ele>
        <time>2015-03-01T09:32:38Z</time>
      </trkpt>
      <trkpt lat="47.568895574659109" lon="10.889985859394073">
        <ele>1294.759999999999991</ele>
        <time>2015-03-01T09:32:59Z</time>
      </trkpt>
      <trkpt lat="47.568746041506529" lon="10.88999105617404">
        <ele>1295.539999999999964</ele>
        <time>2015-03-01T09:33:19Z</time>
      </trkpt>
      <trkpt lat="47.56858971901238" lon="10.889997510239482">
        <ele>1296.380000000000109</ele>
        <time>2015-03-01T09:33:41Z</time>
      </trkpt>
      <trkpt lat="47.568451166152954" lon="10.889876643195748">
        <ele>1297.329999999999927</ele>
        <time>2015-03-01T09:34:03Z</time>
      </trkpt>
      <trkpt lat="47.568257125094533" lon="10.889688888564706">
        <ele>1298.670000000000073</ele>
        <time>2015-03-01T09:34:25Z</time>
      </trkpt>
      <trkpt lat="47.568130223080516" lon="10.889480765908957">
        <ele>1299.450000000000045</ele>
        <time>2015-03-01T09:34:48Z</time>
      </trkpt>
      <trkpt lat="47.568048583343625" lon="10.88928597047925">
        <ele>1300.480000000000018</ele>
        <time>2015-03-01T09:35:10Z</time>
      </trkpt>
      <trkpt lat="47.567967530339956" lon="10.889141801744699">
        <ele>1301.400000000000091</ele>
        <time>2015-03-01T09:35:26Z</time>
      </trkpt>
      <trkpt lat="47.567912545055151" lon="10.889048678800464">
        <ele>1302.019999999999982</ele>
        <time>2015-03-01T09:35:46Z</time>
      </trkpt>
      <trkpt lat="47.567900726571679" lon="10.888894619420171">
        <ele>1302.829999999999927</ele>
        <time>2015-03-01T09:36:06Z</time>
      </trkpt>
      <trkpt lat="47.567857140675187" lon="10.888810800388455">
        <ele>1305.259999999999991</ele>
        <time>2015-03-01T09:36:28Z</time>
      </trkpt>
      <trkpt lat="47.567853787913918" lon="10.88875045068562">
        <ele>1304.75</ele>
        <time>2015-03-01T09:37:00Z</time>
      </trkpt>
      <trkpt lat="47.567850770428777" lon="10.888662273064256">
        <ele>1305</ele>
        <time>2015-03-01T09:37:23Z</time>
      </trkpt>
      <trkpt lat="47.567850016057491" lon="10.888627488166094">
        <ele>1304.039999999999964</ele>
        <time>2015-03-01T09:37:42Z</time>
      </trkpt>
      <trkpt lat="47.567820092663169" lon="10.888579208403826">
        <ele>1304.119999999999891</ele>
        <time>2015-03-01T09:38:07Z</time>
      </trkpt>
      <trkpt lat="47.567809950560331" lon="10.88851248845458">
        <ele>1303.769999999999982</ele>
        <time>2015-03-01T09:38:27Z</time>
      </trkpt>
      <trkpt lat="47.567798215895891" lon="10.888481726869941">
        <ele>1303.579999999999927</ele>
        <time>2015-03-01T09:38:58Z</time>
      </trkpt>
      <trkpt lat="47.567785894498229" lon="10.888393549248576">
        <ele>1304.519999999999982</ele>
        <time>2015-03-01T09:39:13Z</time>
      </trkpt>
      <trkpt lat="47.567702075466514" lon="10.888292463496327">
        <ele>1305.339999999999918</ele>
        <time>2015-03-01T09:39:30Z</time>
      </trkpt>
      <trkpt lat="47.567640384659171" lon="10.888194227591157">
        <ele>1304.470000000000027</ele>
        <time>2015-03-01T09:39:48Z</time>
      </trkpt>
      <trkpt lat="47.567615993320942" lon="10.888135135173798">
        <ele>1305.380000000000109</ele>
        <time>2015-03-01T09:40:08Z</time>
      </trkpt>
      <trkpt lat="47.567565198987722" lon="10.888038910925388">
        <ele>1307.230000000000018</ele>
        <time>2015-03-01T09:40:26Z</time>
      </trkpt>
      <trkpt lat="47.567479116842151" lon="10.888124154880643">
        <ele>1309.880000000000109</ele>
        <time>2015-03-01T09:40:42Z</time>
      </trkpt>
      <trkpt lat="47.567462520673871" lon="10.888152401894331">
        <ele>1309.339999999999918</ele>
        <time>2015-03-01T09:41:00Z</time>
      </trkpt>
      <trkpt lat="47.567455396056175" lon="10.888206968083978">
        <ele>1310.519999999999982</ele>
        <time>2015-03-01T09:41:16Z</time>
      </trkpt>
      <trkpt lat="47.567448355257511" lon="10.888269077986479">
        <ele>1310.8599999999999</ele>
        <time>2015-03-01T09:41:36Z</time>
      </trkpt>
      <trkpt lat="47.567473836243153" lon="10.888399835675955">
        <ele>1311.059999999999945</ele>
        <time>2015-03-01T09:41:55Z</time>
      </trkpt>
      <trkpt lat="47.567474339157343" lon="10.888527575880289">
        <ele>1311.089999999999918</ele>
        <time>2015-03-01T09:42:14Z</time>
      </trkpt>
      <trkpt lat="47.567426646128297" lon="10.888627823442221">
        <ele>1311.509999999999991</ele>
        <time>2015-03-01T09:42:28Z</time>
      </trkpt>
      <trkpt lat="47.567378366366029" lon="10.888731759041548">
        <ele>1313.339999999999918</ele>
        <time>2015-03-01T09:42:45Z</time>
      </trkpt>
      <trkpt lat="47.56735154427588" lon="10.888774171471596">
        <ele>1313.5</ele>
        <time>2015-03-01T09:43:03Z</time>
      </trkpt>
      <trkpt lat="47.567342994734645" lon="10.888828905299306">
        <ele>1313.299999999999955</ele>
        <time>2015-03-01T09:43:23Z</time>
      </trkpt>
      <trkpt lat="47.567319190129638" lon="10.888919262215495">
        <ele>1314.039999999999964</ele>
        <time>2015-03-01T09:43:38Z</time>
      </trkpt>
      <trkpt lat="47.567275101318955" lon="10.889039039611816">
        <ele>1314.440000000000055</ele>
        <time>2015-03-01T09:43:58Z</time>
      </trkpt>
      <trkpt lat="47.567263701930642" lon="10.889031244441867">
        <ele>1313.910000000000082</ele>
        <time>2015-03-01T09:44:20Z</time>
      </trkpt>
      <trkpt lat="47.567267054691911" lon="10.889059575274587">
        <ele>1314.5</ele>
        <time>2015-03-01T09:44:42Z</time>
      </trkpt>
      <trkpt lat="47.567261019721627" lon="10.889107855036855">
        <ele>1313.650000000000091</ele>
        <time>2015-03-01T09:45:06Z</time>
      </trkpt>
      <trkpt lat="47.56726554594934" lon="10.889129815623164">
        <ele>1313.559999999999945</ele>
        <time>2015-03-01T09:45:22Z</time>
      </trkpt>
      <trkpt lat="47.567275268957019" lon="10.889153117313981">
        <ele>1314.240000000000009</ele>
        <time>2015-03-01T09:45:41Z</time>
      </trkpt>
      <trkpt lat="47.567260013893247" lon="10.889256130903959">
        <ele>1315.029999999999973</ele>
        <time>2015-03-01T09:46:01Z</time>
      </trkpt>
      <trkpt lat="47.567277112975717" lon="10.889351600781083">
        <ele>1316.460000000000036</ele>
        <time>2015-03-01T09:46:19Z</time>
      </trkpt>
      <trkpt lat="47.567244339734316" lon="10.889454111456871">
        <ele>1317.3900000000001</ele>
        <time>2015-03-01T09:46:39Z</time>
      </trkpt>
      <trkpt lat="47.567207375541329" lon="10.889580259099603">
        <ele>1317.259999999999991</ele>
        <time>2015-03-01T09:46:59Z</time>
      </trkpt>
      <trkpt lat="47.567126909270883" lon="10.889828866347671">
        <ele>1318.529999999999973</ele>
        <time>2015-03-01T09:47:22Z</time>
      </trkpt>
      <trkpt lat="47.567035797983408" lon="10.889946380630136">
        <ele>1319.049999999999955</ele>
        <time>2015-03-01T09:47:41Z</time>
      </trkpt>
      <trkpt lat="47.566987350583076" lon="10.890077976509929">
        <ele>1320.089999999999918</ele>
        <time>2015-03-01T09:47:57Z</time>
      </trkpt>
      <trkpt lat="47.566981064155698" lon="10.890090549364686">
        <ele>1320.380000000000109</ele>
        <time>2015-03-01T09:47:58Z</time>
      </trkpt>
      <trkpt lat="47.566904118284583" lon="10.890270173549652">
        <ele>1321.799999999999955</ele>
        <time>2015-03-01T09:48:20Z</time>
      </trkpt>
      <trkpt lat="47.566883079707623" lon="10.890351980924606">
        <ele>1320</ele>
        <time>2015-03-01T09:48:45Z</time>
      </trkpt>
      <trkpt lat="47.566877380013466" lon="10.890398919582367">
        <ele>1319.230000000000018</ele>
        <time>2015-03-01T09:48:53Z</time>
      </trkpt>
      <trkpt lat="47.566878469660878" lon="10.890440912917256">
        <ele>1318.769999999999982</ele>
        <time>2015-03-01T09:48:55Z</time>
      </trkpt>
      <trkpt lat="47.566880816593766" lon="10.890474775806069">
        <ele>1318.200000000000045</ele>
        <time>2015-03-01T09:48:56Z</time>
      </trkpt>
      <trkpt lat="47.566880816593766" lon="10.890504028648138">
        <ele>1317.1400000000001</ele>
        <time>2015-03-01T09:48:57Z</time>
      </trkpt>
      <trkpt lat="47.566889030858874" lon="10.890527162700891">
        <ele>1315.789999999999964</ele>
        <time>2015-03-01T09:49:09Z</time>
      </trkpt>
      <trkpt lat="47.566830441355705" lon="10.890597486868501">
        <ele>1316.210000000000036</ele>
        <time>2015-03-01T09:49:25Z</time>
      </trkpt>
      <trkpt lat="47.56679599173367" lon="10.89063948020339">
        <ele>1316.950000000000045</ele>
        <time>2015-03-01T09:49:32Z</time>
      </trkpt>
      <trkpt lat="47.566734049469233" lon="10.890712905675173">
        <ele>1319</ele>
        <time>2015-03-01T09:49:50Z</time>
      </trkpt>
      <trkpt lat="47.566686272621155" lon="10.890708714723587">
        <ele>1320.279999999999973</ele>
        <time>2015-03-01T09:50:11Z</time>
      </trkpt>
      <trkpt lat="47.566636065021157" lon="10.890699746087193">
        <ele>1322.369999999999891</ele>
        <time>2015-03-01T09:50:23Z</time>
      </trkpt>
      <trkpt lat="47.566521735861897" lon="10.890687676146626">
        <ele>1325.6400000000001</ele>
        <time>2015-03-01T09:50:40Z</time>
      </trkpt>
      <trkpt lat="47.566418722271919" lon="10.890739560127258">
        <ele>1325.549999999999955</ele>
        <time>2015-03-01T09:50:56Z</time>
      </trkpt>
      <trkpt lat="47.566290814429522" lon="10.890655824914575">
        <ele>1328.619999999999891</ele>
        <time>2015-03-01T09:51:14Z</time>
      </trkpt>
      <trkpt lat="47.566201211884618" lon="10.890636378899217">
        <ele>1328.299999999999955</ele>
        <time>2015-03-01T09:51:27Z</time>
      </trkpt>
      <trkpt lat="47.566181514412165" lon="10.890643922612071">
        <ele>1328.259999999999991</ele>
        <time>2015-03-01T09:51:28Z</time>
      </trkpt>
      <trkpt lat="47.566074226051569" lon="10.890615675598383">
        <ele>1328.349999999999909</ele>
        <time>2015-03-01T09:51:40Z</time>
      </trkpt>
      <trkpt lat="47.566000046208501" lon="10.890678372234106">
        <ele>1326.700000000000045</ele>
        <time>2015-03-01T09:51:56Z</time>
      </trkpt>
      <trkpt lat="47.565948078408837" lon="10.890706703066826">
        <ele>1326.170000000000073</ele>
        <time>2015-03-01T09:52:12Z</time>
      </trkpt>
      <trkpt lat="47.565851351246238" lon="10.890648784115911">
        <ele>1326.019999999999982</ele>
        <time>2015-03-01T09:52:29Z</time>
      </trkpt>
      <trkpt lat="47.565896026790142" lon="10.890585668385029">
        <ele>1327.819999999999936</ele>
        <time>2015-03-01T09:52:45Z</time>
      </trkpt>
      <trkpt lat="47.565847495570779" lon="10.890499753877521">
        <ele>1329.6400000000001</ele>
        <time>2015-03-01T09:52:56Z</time>
      </trkpt>
      <trkpt lat="47.565715899690986" lon="10.890433369204402">
        <ele>1330.970000000000027</ele>
        <time>2015-03-01T09:53:13Z</time>
      </trkpt>
      <trkpt lat="47.565585812553763" lon="10.89035508222878">
        <ele>1332.509999999999991</ele>
        <time>2015-03-01T09:53:29Z</time>
      </trkpt>
      <trkpt lat="47.56544541567564" lon="10.890296157449484">
        <ele>1332.170000000000073</ele>
        <time>2015-03-01T09:53:45Z</time>
      </trkpt>
      <trkpt lat="47.565317004919052" lon="10.890226420015097">
        <ele>1335.059999999999945</ele>
        <time>2015-03-01T09:54:00Z</time>
      </trkpt>
      <trkpt lat="47.565290601924062" lon="10.890201525762677">
        <ele>1335.279999999999973</ele>
        <time>2015-03-01T09:54:02Z</time>
      </trkpt>
      <trkpt lat="47.565250284969807" lon="10.89007361792028">
        <ele>1335.569999999999936</ele>
        <time>2015-03-01T09:54:16Z</time>
      </trkpt>
      <trkpt lat="47.565135369077325" lon="10.889923414215446">
        <ele>1336.759999999999991</ele>
        <time>2015-03-01T09:54:35Z</time>
      </trkpt>
      <trkpt lat="47.564995810389519" lon="10.889756279066205">
        <ele>1337.8900000000001</ele>
        <time>2015-03-01T09:54:53Z</time>
      </trkpt>
      <trkpt lat="47.56489522755146" lon="10.889671118929982">
        <ele>1338.430000000000064</ele>
        <time>2015-03-01T09:55:09Z</time>
      </trkpt>
      <trkpt lat="47.564818197861314" lon="10.889455201104283">
        <ele>1339.730000000000018</ele>
        <time>2015-03-01T09:55:28Z</time>
      </trkpt>
      <trkpt lat="47.564801182597876" lon="10.889430893585086">
        <ele>1340.130000000000109</ele>
        <time>2015-03-01T09:55:30Z</time>
      </trkpt>
      <trkpt lat="47.564724823459983" lon="10.889377165585756">
        <ele>1340.539999999999964</ele>
        <time>2015-03-01T09:55:41Z</time>
      </trkpt>
      <trkpt lat="47.564577218145132" lon="10.889285048469901">
        <ele>1341.220000000000027</ele>
        <time>2015-03-01T09:56:02Z</time>
      </trkpt>
      <trkpt lat="47.564454926177859" lon="10.889176921918988">
        <ele>1341.059999999999945</ele>
        <time>2015-03-01T09:56:12Z</time>
      </trkpt>
      <trkpt lat="47.564440509304404" lon="10.889161080121994">
        <ele>1341.259999999999991</ele>
        <time>2015-03-01T09:56:13Z</time>
      </trkpt>
      <trkpt lat="47.564427182078362" lon="10.889150770381093">
        <ele>1341.1099999999999</ele>
        <time>2015-03-01T09:56:14Z</time>
      </trkpt>
      <trkpt lat="47.564360965043306" lon="10.8890675380826">
        <ele>1341.6099999999999</ele>
        <time>2015-03-01T09:56:29Z</time>
      </trkpt>
      <trkpt lat="47.564317462965846" lon="10.889014983549714">
        <ele>1340.8900000000001</ele>
        <time>2015-03-01T09:56:49Z</time>
      </trkpt>
      <trkpt lat="47.564275385811925" lon="10.888978270813823">
        <ele>1341.1400000000001</ele>
        <time>2015-03-01T09:57:11Z</time>
      </trkpt>
      <trkpt lat="47.564105484634638" lon="10.88893024250865">
        <ele>1341.220000000000027</ele>
        <time>2015-03-01T09:57:26Z</time>
      </trkpt>
      <trkpt lat="47.564064413309097" lon="10.888912389054894">
        <ele>1340.869999999999891</ele>
        <time>2015-03-01T09:57:30Z</time>
      </trkpt>
      <trkpt lat="47.564051169902086" lon="10.888902163133025">
        <ele>1341.259999999999991</ele>
        <time>2015-03-01T09:57:31Z</time>
      </trkpt>
      <trkpt lat="47.563883783295751" lon="10.888762352988124">
        <ele>1341.930000000000064</ele>
        <time>2015-03-01T09:57:47Z</time>
      </trkpt>
      <trkpt lat="47.563790744170547" lon="10.88864048011601">
        <ele>1342.930000000000064</ele>
        <time>2015-03-01T09:58:02Z</time>
      </trkpt>
      <trkpt lat="47.563789067789912" lon="10.888604437932372">
        <ele>1342.680000000000064</ele>
        <time>2015-03-01T09:58:17Z</time>
      </trkpt>
      <trkpt lat="47.563757719472051" lon="10.888576107099652">
        <ele>1343.6099999999999</ele>
        <time>2015-03-01T09:58:35Z</time>
      </trkpt>
      <trkpt lat="47.56373374722898" lon="10.888481140136719">
        <ele>1344.029999999999973</ele>
        <time>2015-03-01T09:58:42Z</time>
      </trkpt>
      <trkpt lat="47.563695358112454" lon="10.888320794329047">
        <ele>1345.200000000000045</ele>
        <time>2015-03-01T09:58:53Z</time>
      </trkpt>
      <trkpt lat="47.563683204352856" lon="10.888273604214191">
        <ele>1345.589999999999918</ele>
        <time>2015-03-01T09:58:56Z</time>
      </trkpt>
      <trkpt lat="47.563635678961873" lon="10.88814452290535">
        <ele>1349.420000000000073</ele>
        <time>2015-03-01T09:59:08Z</time>
      </trkpt>
      <trkpt lat="47.563569294288754" lon="10.888006975874305">
        <ele>1351.690000000000055</ele>
        <time>2015-03-01T09:59:25Z</time>
      </trkpt>
      <trkpt lat="47.563543394207954" lon="10.887871105223894">
        <ele>1354.049999999999955</ele>
        <time>2015-03-01T09:59:38Z</time>
      </trkpt>
      <trkpt lat="47.563480865210295" lon="10.887758284807205">
        <ele>1357.170000000000073</ele>
        <time>2015-03-01T09:59:52Z</time>
      </trkpt>
      <trkpt lat="47.563479775562882" lon="10.887752585113049">
        <ele>1357.1400000000001</ele>
        <time>2015-03-01T09:59:53Z</time>
      </trkpt>
      <trkpt lat="47.563419425860047" lon="10.887652840465307">
        <ele>1359.650000000000091</ele>
        <time>2015-03-01T10:00:08Z</time>
      </trkpt>
      <trkpt lat="47.563342899084091" lon="10.887503139674664">
        <ele>1361.839999999999918</ele>
        <time>2015-03-01T10:00:22Z</time>
      </trkpt>
      <trkpt lat="47.563290512189269" lon="10.887383027002215">
        <ele>1364.089999999999918</ele>
        <time>2015-03-01T10:00:36Z</time>
      </trkpt>
      <trkpt lat="47.56322018802166" lon="10.887279594317079">
        <ele>1365.789999999999964</ele>
        <time>2015-03-01T10:00:51Z</time>
      </trkpt>
      <trkpt lat="47.563149109482765" lon="10.887202564626932">
        <ele>1366.579999999999927</ele>
        <time>2015-03-01T10:01:03Z</time>
      </trkpt>
      <trkpt lat="47.563077611848712" lon="10.887084295973182">
        <ele>1367.410000000000082</ele>
        <time>2015-03-01T10:01:18Z</time>
      </trkpt>
      <trkpt lat="47.563011646270752" lon="10.886968793347478">
        <ele>1370.230000000000018</ele>
        <time>2015-03-01T10:01:33Z</time>
      </trkpt>
      <trkpt lat="47.562959427013993" lon="10.886850189417601">
        <ele>1373.630000000000109</ele>
        <time>2015-03-01T10:01:47Z</time>
      </trkpt>
      <trkpt lat="47.562912153080106" lon="10.886691771447659">
        <ele>1375.299999999999955</ele>
        <time>2015-03-01T10:02:03Z</time>
      </trkpt>
      <trkpt lat="47.562850043177605" lon="10.886517427861691">
        <ele>1375.950000000000045</ele>
        <time>2015-03-01T10:02:20Z</time>
      </trkpt>
      <trkpt lat="47.562776114791632" lon="10.88638549670577">
        <ele>1377.240000000000009</ele>
        <time>2015-03-01T10:02:37Z</time>
      </trkpt>
      <trkpt lat="47.562729427590966" lon="10.886253817006946">
        <ele>1379.369999999999891</ele>
        <time>2015-03-01T10:02:53Z</time>
      </trkpt>
      <trkpt lat="47.562702437862754" lon="10.886103278025985">
        <ele>1381.410000000000082</ele>
        <time>2015-03-01T10:03:09Z</time>
      </trkpt>
      <trkpt lat="47.562668910250068" lon="10.885926000773907">
        <ele>1384.069999999999936</ele>
        <time>2015-03-01T10:03:25Z</time>
      </trkpt>
      <trkpt lat="47.562663964927197" lon="10.885875290259719">
        <ele>1385.029999999999973</ele>
        <time>2015-03-01T10:03:41Z</time>
      </trkpt>
      <trkpt lat="47.562666898593307" lon="10.885880319401622">
        <ele>1385.150000000000091</ele>
        <time>2015-03-01T10:03:56Z</time>
      </trkpt>
      <trkpt lat="47.562661282718182" lon="10.885894149541855">
        <ele>1384.700000000000045</ele>
        <time>2015-03-01T10:04:14Z</time>
      </trkpt>
      <trkpt lat="47.562650721520185" lon="10.885886605829">
        <ele>1383.759999999999991</ele>
        <time>2015-03-01T10:04:29Z</time>
      </trkpt>
      <trkpt lat="47.562656253576279" lon="10.885893311351538">
        <ele>1382.509999999999991</ele>
        <time>2015-03-01T10:04:47Z</time>
      </trkpt>
      <trkpt lat="47.562644770368934" lon="10.885910829529166">
        <ele>1382.400000000000091</ele>
        <time>2015-03-01T10:05:07Z</time>
      </trkpt>
      <trkpt lat="47.562652481719851" lon="10.885943016037345">
        <ele>1381.930000000000064</ele>
        <time>2015-03-01T10:05:26Z</time>
      </trkpt>
      <trkpt lat="47.562649548053741" lon="10.885954415425658">
        <ele>1382.900000000000091</ele>
        <time>2015-03-01T10:05:48Z</time>
      </trkpt>
      <trkpt lat="47.562643848359585" lon="10.885919043794274">
        <ele>1383.680000000000064</ele>
        <time>2015-03-01T10:06:21Z</time>
      </trkpt>
      <trkpt lat="47.562636639922857" lon="10.885916026309133">
        <ele>1383.420000000000073</ele>
        <time>2015-03-01T10:06:37Z</time>
      </trkpt>
      <trkpt lat="47.56263873539865" lon="10.88584503158927">
        <ele>1383.849999999999909</ele>
        <time>2015-03-01T10:06:53Z</time>
      </trkpt>
      <trkpt lat="47.562625491991639" lon="10.885730870068073">
        <ele>1385.049999999999955</ele>
        <time>2015-03-01T10:07:04Z</time>
      </trkpt>
      <trkpt lat="47.562601687386632" lon="10.885566081851721">
        <ele>1387.779999999999973</ele>
        <time>2015-03-01T10:07:19Z</time>
      </trkpt>
      <trkpt lat="47.56259179674089" lon="10.88543850928545">
        <ele>1391.029999999999973</ele>
        <time>2015-03-01T10:07:32Z</time>
      </trkpt>
      <trkpt lat="47.562551312148571" lon="10.885266596451402">
        <ele>1391.690000000000055</ele>
        <time>2015-03-01T10:07:48Z</time>
      </trkpt>
      <trkpt lat="47.562497248873115" lon="10.885142376646399">
        <ele>1391.779999999999973</ele>
        <time>2015-03-01T10:08:04Z</time>
      </trkpt>
      <trkpt lat="47.562448550015688" lon="10.885042464360595">
        <ele>1393.269999999999982</ele>
        <time>2015-03-01T10:08:18Z</time>
      </trkpt>
      <trkpt lat="47.562401862815022" lon="10.885021341964602">
        <ele>1395.5</ele>
        <time>2015-03-01T10:08:30Z</time>
      </trkpt>
      <trkpt lat="47.562360372394323" lon="10.884958645328879">
        <ele>1397.430000000000064</ele>
        <time>2015-03-01T10:08:40Z</time>
      </trkpt>
      <trkpt lat="47.562311924993992" lon="10.884897038340569">
        <ele>1398.869999999999891</ele>
        <time>2015-03-01T10:08:54Z</time>
      </trkpt>
      <trkpt lat="47.562235733494163" lon="10.884842639788985">
        <ele>1401.180000000000064</ele>
        <time>2015-03-01T10:09:08Z</time>
      </trkpt>
      <trkpt lat="47.562205893918872" lon="10.884792264550924">
        <ele>1403.380000000000109</ele>
        <time>2015-03-01T10:09:21Z</time>
      </trkpt>
      <trkpt lat="47.562190219759941" lon="10.884795030578971">
        <ele>1404.009999999999991</ele>
        <time>2015-03-01T10:09:41Z</time>
      </trkpt>
      <trkpt lat="47.562144957482815" lon="10.884736524894834">
        <ele>1405.440000000000055</ele>
        <time>2015-03-01T10:09:52Z</time>
      </trkpt>
      <trkpt lat="47.562155267223716" lon="10.884644240140915">
        <ele>1407.559999999999945</ele>
        <time>2015-03-01T10:10:08Z</time>
      </trkpt>
      <trkpt lat="47.562157362699509" lon="10.884619932621717">
        <ele>1408.779999999999973</ele>
        <time>2015-03-01T10:10:11Z</time>
      </trkpt>
      <trkpt lat="47.56216524168849" lon="10.884505184367299">
        <ele>1410.279999999999973</ele>
        <time>2015-03-01T10:10:25Z</time>
      </trkpt>
      <trkpt lat="47.562191896140575" lon="10.884406194090843">
        <ele>1412.009999999999991</ele>
        <time>2015-03-01T10:10:40Z</time>
      </trkpt>
      <trkpt lat="47.562217209488153" lon="10.884342910721898">
        <ele>1413.3900000000001</ele>
        <time>2015-03-01T10:10:55Z</time>
      </trkpt>
      <trkpt lat="47.562239840626717" lon="10.884236628189683">
        <ele>1414.1099999999999</ele>
        <time>2015-03-01T10:11:09Z</time>
      </trkpt>
      <trkpt lat="47.562263561412692" lon="10.884199496358633">
        <ele>1415.170000000000073</ele>
        <time>2015-03-01T10:11:24Z</time>
      </trkpt>
      <trkpt lat="47.562233973294497" lon="10.884181726723909">
        <ele>1416.75</ele>
        <time>2015-03-01T10:11:39Z</time>
      </trkpt>
      <trkpt lat="47.562189633026719" lon="10.884160771965981">
        <ele>1417.309999999999945</ele>
        <time>2015-03-01T10:11:54Z</time>
      </trkpt>
      <trkpt lat="47.562178233638406" lon="10.884090615436435">
        <ele>1419.220000000000027</ele>
        <time>2015-03-01T10:12:08Z</time>
      </trkpt>
      <trkpt lat="47.562224334105849" lon="10.883978717029095">
        <ele>1421.849999999999909</ele>
        <time>2015-03-01T10:12:22Z</time>
      </trkpt>
      <trkpt lat="47.562176641076803" lon="10.883909733965993">
        <ele>1424.170000000000073</ele>
        <time>2015-03-01T10:12:35Z</time>
      </trkpt>
      <trkpt lat="47.562118386849761" lon="10.883873021230102">
        <ele>1427.589999999999918</ele>
        <time>2015-03-01T10:12:47Z</time>
      </trkpt>
      <trkpt lat="47.562125427648425" lon="10.883787693455815">
        <ele>1429.990000000000009</ele>
        <time>2015-03-01T10:13:05Z</time>
      </trkpt>
      <trkpt lat="47.562139090150595" lon="10.883738659322262">
        <ele>1430.549999999999955</ele>
        <time>2015-03-01T10:13:16Z</time>
      </trkpt>
      <trkpt lat="47.562164906412363" lon="10.883656265214086">
        <ele>1433.529999999999973</ele>
        <time>2015-03-01T10:13:30Z</time>
      </trkpt>
      <trkpt lat="47.56221117451787" lon="10.883573284372687">
        <ele>1434.650000000000091</ele>
        <time>2015-03-01T10:13:43Z</time>
      </trkpt>
      <trkpt lat="47.562262639403343" lon="10.883419057354331">
        <ele>1436.849999999999909</ele>
        <time>2015-03-01T10:14:00Z</time>
      </trkpt>
      <trkpt lat="47.562303962185979" lon="10.883189477026463">
        <ele>1438.799999999999955</ele>
        <time>2015-03-01T10:14:18Z</time>
      </trkpt>
      <trkpt lat="47.562286946922541" lon="10.883095432072878">
        <ele>1441.25</ele>
        <time>2015-03-01T10:14:33Z</time>
      </trkpt>
      <trkpt lat="47.562280492857099" lon="10.882977582514286">
        <ele>1442.730000000000018</ele>
        <time>2015-03-01T10:14:47Z</time>
      </trkpt>
      <trkpt lat="47.562286779284477" lon="10.882796281948686">
        <ele>1445.180000000000064</ele>
        <time>2015-03-01T10:15:03Z</time>
      </trkpt>
      <trkpt lat="47.562284767627716" lon="10.882621519267559">
        <ele>1446.6099999999999</ele>
        <time>2015-03-01T10:15:19Z</time>
      </trkpt>
      <trkpt lat="47.562288958579302" lon="10.882443152368069">
        <ele>1447.460000000000036</ele>
        <time>2015-03-01T10:15:36Z</time>
      </trkpt>
      <trkpt lat="47.562345620244741" lon="10.882283980026841">
        <ele>1450.230000000000018</ele>
        <time>2015-03-01T10:15:54Z</time>
      </trkpt>
      <trkpt lat="47.562352577224374" lon="10.882139056921005">
        <ele>1452.480000000000018</ele>
        <time>2015-03-01T10:16:11Z</time>
      </trkpt>
      <trkpt lat="47.562337154522538" lon="10.882021794095635">
        <ele>1455.75</ele>
        <time>2015-03-01T10:16:26Z</time>
      </trkpt>
      <trkpt lat="47.562313266098499" lon="10.881866980344057">
        <ele>1457.470000000000027</ele>
        <time>2015-03-01T10:16:44Z</time>
      </trkpt>
      <trkpt lat="47.562296250835061" lon="10.881776455789804">
        <ele>1459.029999999999973</ele>
        <time>2015-03-01T10:16:57Z</time>
      </trkpt>
      <trkpt lat="47.562273452058434" lon="10.881676878780127">
        <ele>1460.509999999999991</ele>
        <time>2015-03-01T10:17:11Z</time>
      </trkpt>
      <trkpt lat="47.56224880926311" lon="10.881563555449247">
        <ele>1463.170000000000073</ele>
        <time>2015-03-01T10:17:27Z</time>
      </trkpt>
      <trkpt lat="47.562228608876467" lon="10.881447969004512">
        <ele>1465.240000000000009</ele>
        <time>2015-03-01T10:17:43Z</time>
      </trkpt>
      <trkpt lat="47.562200194224715" lon="10.881439000368118">
        <ele>1465.8900000000001</ele>
        <time>2015-03-01T10:18:17Z</time>
      </trkpt>
      <trkpt lat="47.562181754037738" lon="10.881405053660274">
        <ele>1466.130000000000109</ele>
        <time>2015-03-01T10:18:38Z</time>
      </trkpt>
      <trkpt lat="47.562129115685821" lon="10.881348643451929">
        <ele>1468.700000000000045</ele>
        <time>2015-03-01T10:18:56Z</time>
      </trkpt>
      <trkpt lat="47.562113525345922" lon="10.881246970966458">
        <ele>1470.920000000000073</ele>
        <time>2015-03-01T10:19:10Z</time>
      </trkpt>
      <trkpt lat="47.562119560316205" lon="10.881159715354443">
        <ele>1473.170000000000073</ele>
        <time>2015-03-01T10:19:24Z</time>
      </trkpt>
      <trkpt lat="47.562103886157274" lon="10.88106038980186">
        <ele>1475.519999999999982</ele>
        <time>2015-03-01T10:19:41Z</time>
      </trkpt>
      <trkpt lat="47.562115285545588" lon="10.88089476339519">
        <ele>1478.519999999999982</ele>
        <time>2015-03-01T10:19:55Z</time>
      </trkpt>
      <trkpt lat="47.562110004946589" lon="10.880855955183506">
        <ele>1478.440000000000055</ele>
        <time>2015-03-01T10:20:09Z</time>
      </trkpt>
      <trkpt lat="47.562108831480145" lon="10.880831060931087">
        <ele>1478.130000000000109</ele>
        <time>2015-03-01T10:20:30Z</time>
      </trkpt>
      <trkpt lat="47.562109166756272" lon="10.880651520565152">
        <ele>1480.039999999999964</ele>
        <time>2015-03-01T10:20:45Z</time>
      </trkpt>
      <trkpt lat="47.562109334394336" lon="10.880476171150804">
        <ele>1482.970000000000027</ele>
        <time>2015-03-01T10:21:01Z</time>
      </trkpt>
      <trkpt lat="47.562110256403685" lon="10.880395453423262">
        <ele>1485.630000000000109</ele>
        <time>2015-03-01T10:21:10Z</time>
      </trkpt>
      <trkpt lat="47.562120985239744" lon="10.880252625793219">
        <ele>1488</ele>
        <time>2015-03-01T10:21:27Z</time>
      </trkpt>
      <trkpt lat="47.562115620821714" lon="10.880180122330785">
        <ele>1490.319999999999936</ele>
        <time>2015-03-01T10:21:37Z</time>
      </trkpt>
      <trkpt lat="47.56209927611053" lon="10.880041234195232">
        <ele>1493.329999999999927</ele>
        <time>2015-03-01T10:21:52Z</time>
      </trkpt>
      <trkpt lat="47.562095168977976" lon="10.879934867843986">
        <ele>1494.029999999999973</ele>
        <time>2015-03-01T10:22:07Z</time>
      </trkpt>
      <trkpt lat="47.562080500647426" lon="10.879795392975211">
        <ele>1495.769999999999982</ele>
        <time>2015-03-01T10:22:22Z</time>
      </trkpt>
      <trkpt lat="47.562067005783319" lon="10.87962188757956">
        <ele>1498.220000000000027</ele>
        <time>2015-03-01T10:22:36Z</time>
      </trkpt>
      <trkpt lat="47.562069352716208" lon="10.879427175968885">
        <ele>1500.319999999999936</ele>
        <time>2015-03-01T10:22:51Z</time>
      </trkpt>
      <trkpt lat="47.562077902257442" lon="10.879360791295767">
        <ele>1502.529999999999973</ele>
        <time>2015-03-01T10:22:57Z</time>
      </trkpt>
      <trkpt lat="47.562122326344252" lon="10.879226932302117">
        <ele>1504.450000000000045</ele>
        <time>2015-03-01T10:23:14Z</time>
      </trkpt>
      <trkpt lat="47.562151243910193" lon="10.879089972004294">
        <ele>1507.619999999999891</ele>
        <time>2015-03-01T10:23:29Z</time>
      </trkpt>
      <trkpt lat="47.562167253345251" lon="10.879020486027002">
        <ele>1509.299999999999955</ele>
        <time>2015-03-01T10:23:37Z</time>
      </trkpt>
      <trkpt lat="47.562182089313865" lon="10.878965500742197">
        <ele>1511.099999999999909</ele>
        <time>2015-03-01T10:23:51Z</time>
      </trkpt>
      <trkpt lat="47.5621975120157" lon="10.878905151039362">
        <ele>1512.759999999999991</ele>
        <time>2015-03-01T10:24:08Z</time>
      </trkpt>
      <trkpt lat="47.562203211709857" lon="10.878898529335856">
        <ele>1512.509999999999991</ele>
        <time>2015-03-01T10:24:25Z</time>
      </trkpt>
      <trkpt lat="47.562208324670792" lon="10.87890699505806">
        <ele>1511.279999999999973</ele>
        <time>2015-03-01T10:24:44Z</time>
      </trkpt>
      <trkpt lat="47.56220287643373" lon="10.878918142989278">
        <ele>1510.869999999999891</ele>
        <time>2015-03-01T10:25:05Z</time>
      </trkpt>
      <trkpt lat="47.562207235023379" lon="10.878923758864403">
        <ele>1511.880000000000109</ele>
        <time>2015-03-01T10:25:21Z</time>
      </trkpt>
      <trkpt lat="47.562206564471126" lon="10.878916382789612">
        <ele>1511.230000000000018</ele>
        <time>2015-03-01T10:25:42Z</time>
      </trkpt>
      <trkpt lat="47.562202960252762" lon="10.878929877653718">
        <ele>1511.519999999999982</ele>
        <time>2015-03-01T10:26:01Z</time>
      </trkpt>
      <trkpt lat="47.562207654118538" lon="10.878945384174585">
        <ele>1511.319999999999936</ele>
        <time>2015-03-01T10:26:16Z</time>
      </trkpt>
      <trkpt lat="47.562205558642745" lon="10.878933984786272">
        <ele>1511.349999999999909</ele>
        <time>2015-03-01T10:26:33Z</time>
      </trkpt>
      <trkpt lat="47.562206564471126" lon="10.878932727500796">
        <ele>1511.240000000000009</ele>
        <time>2015-03-01T10:26:34Z</time>
      </trkpt>
      <trkpt lat="47.562213521450758" lon="10.878866259008646">
        <ele>1512.730000000000018</ele>
        <time>2015-03-01T10:26:53Z</time>
      </trkpt>
      <trkpt lat="47.562206564471126" lon="10.878730304539204">
        <ele>1515.150000000000091</ele>
        <time>2015-03-01T10:27:07Z</time>
      </trkpt>
      <trkpt lat="47.562170522287488" lon="10.878629386425018">
        <ele>1518.230000000000018</ele>
        <time>2015-03-01T10:27:19Z</time>
      </trkpt>
      <trkpt lat="47.562137832865119" lon="10.878520589321852">
        <ele>1521.400000000000091</ele>
        <time>2015-03-01T10:27:32Z</time>
      </trkpt>
      <trkpt lat="47.562070693820715" lon="10.8783885743469">
        <ele>1524.1099999999999</ele>
        <time>2015-03-01T10:27:50Z</time>
      </trkpt>
      <trkpt lat="47.562038758769631" lon="10.878263264894485">
        <ele>1527.650000000000091</ele>
        <time>2015-03-01T10:28:05Z</time>
      </trkpt>
      <trkpt lat="47.562040518969297" lon="10.878137452527881">
        <ele>1531.059999999999945</ele>
        <time>2015-03-01T10:28:19Z</time>
      </trkpt>
      <trkpt lat="47.562043368816376" lon="10.878129238262773">
        <ele>1531.220000000000027</ele>
        <time>2015-03-01T10:28:20Z</time>
      </trkpt>
      <trkpt lat="47.562057115137577" lon="10.878033516928554">
        <ele>1533.210000000000036</ele>
        <time>2015-03-01T10:28:33Z</time>
      </trkpt>
      <trkpt lat="47.562034651637077" lon="10.877927402034402">
        <ele>1536.230000000000018</ele>
        <time>2015-03-01T10:28:45Z</time>
      </trkpt>
      <trkpt lat="47.561985785141587" lon="10.877791363745928">
        <ele>1538.440000000000055</ele>
        <time>2015-03-01T10:29:02Z</time>
      </trkpt>
      <trkpt lat="47.561980588361621" lon="10.87776948697865">
        <ele>1539.410000000000082</ele>
        <time>2015-03-01T10:29:04Z</time>
      </trkpt>
      <trkpt lat="47.561970194801688" lon="10.877664797008038">
        <ele>1540.920000000000073</ele>
        <time>2015-03-01T10:29:21Z</time>
      </trkpt>
      <trkpt lat="47.562051163986325" lon="10.877633532509208">
        <ele>1543.190000000000055</ele>
        <time>2015-03-01T10:29:33Z</time>
      </trkpt>
      <trkpt lat="47.562147472053766" lon="10.877583576366305">
        <ele>1545.710000000000036</ele>
        <time>2015-03-01T10:29:49Z</time>
      </trkpt>
      <trkpt lat="47.562184184789658" lon="10.877553904429078">
        <ele>1546.809999999999945</ele>
        <time>2015-03-01T10:29:55Z</time>
      </trkpt>
      <trkpt lat="47.562252832576632" lon="10.877518029883504">
        <ele>1549.960000000000036</ele>
        <time>2015-03-01T10:30:06Z</time>
      </trkpt>
      <trkpt lat="47.562315780669451" lon="10.877490537241101">
        <ele>1553.1099999999999</ele>
        <time>2015-03-01T10:30:15Z</time>
      </trkpt>
      <trkpt lat="47.56233187392354" lon="10.877441000193357">
        <ele>1553.799999999999955</ele>
        <time>2015-03-01T10:30:29Z</time>
      </trkpt>
      <trkpt lat="47.562280492857099" lon="10.877356762066483">
        <ele>1555.819999999999936</ele>
        <time>2015-03-01T10:30:44Z</time>
      </trkpt>
      <trkpt lat="47.562219891697168" lon="10.87724955752492">
        <ele>1558.160000000000082</ele>
        <time>2015-03-01T10:31:00Z</time>
      </trkpt>
      <trkpt lat="47.562176892533898" lon="10.877157272771001">
        <ele>1558.630000000000109</ele>
        <time>2015-03-01T10:31:14Z</time>
      </trkpt>
      <trkpt lat="47.562136156484485" lon="10.877085775136948">
        <ele>1561.819999999999936</ele>
        <time>2015-03-01T10:31:26Z</time>
      </trkpt>
      <trkpt lat="47.562077064067125" lon="10.876981168985367">
        <ele>1563.190000000000055</ele>
        <time>2015-03-01T10:31:42Z</time>
      </trkpt>
      <trkpt lat="47.562040686607361" lon="10.876888800412416">
        <ele>1566.230000000000018</ele>
        <time>2015-03-01T10:31:58Z</time>
      </trkpt>
      <trkpt lat="47.562004895880818" lon="10.876809926703572">
        <ele>1567.519999999999982</ele>
        <time>2015-03-01T10:32:11Z</time>
      </trkpt>
      <trkpt lat="47.561970613896847" lon="10.87674530223012">
        <ele>1570.240000000000009</ele>
        <time>2015-03-01T10:32:26Z</time>
      </trkpt>
      <trkpt lat="47.561934990808368" lon="10.876663411036134">
        <ele>1573.940000000000055</ele>
        <time>2015-03-01T10:32:38Z</time>
      </trkpt>
      <trkpt lat="47.561885789036751" lon="10.876529216766357">
        <ele>1575.670000000000073</ele>
        <time>2015-03-01T10:32:54Z</time>
      </trkpt>
      <trkpt lat="47.561846729367971" lon="10.876418994739652">
        <ele>1578.460000000000036</ele>
        <time>2015-03-01T10:33:12Z</time>
      </trkpt>
      <trkpt lat="47.561808926984668" lon="10.876320255920291">
        <ele>1581.6099999999999</ele>
        <time>2015-03-01T10:33:25Z</time>
      </trkpt>
      <trkpt lat="47.561765257269144" lon="10.876219589263201">
        <ele>1583.1099999999999</ele>
        <time>2015-03-01T10:33:39Z</time>
      </trkpt>
      <trkpt lat="47.561730640009046" lon="10.876105092465878">
        <ele>1584.960000000000036</ele>
        <time>2015-03-01T10:33:57Z</time>
      </trkpt>
      <trkpt lat="47.561698537319899" lon="10.875995205715299">
        <ele>1587.230000000000018</ele>
        <time>2015-03-01T10:34:15Z</time>
      </trkpt>
      <trkpt lat="47.561661740764976" lon="10.875909207388759">
        <ele>1590.210000000000036</ele>
        <time>2015-03-01T10:34:32Z</time>
      </trkpt>
      <trkpt lat="47.561620082706213" lon="10.875818934291601">
        <ele>1593.309999999999945</ele>
        <time>2015-03-01T10:34:45Z</time>
      </trkpt>
      <trkpt lat="47.561577586457133" lon="10.875741401687264">
        <ele>1596.210000000000036</ele>
        <time>2015-03-01T10:35:00Z</time>
      </trkpt>
      <trkpt lat="47.561517152935266" lon="10.875665042549372">
        <ele>1597.660000000000082</ele>
        <time>2015-03-01T10:35:15Z</time>
      </trkpt>
      <trkpt lat="47.56147432141006" lon="10.875628497451544">
        <ele>1598.789999999999964</ele>
        <time>2015-03-01T10:35:34Z</time>
      </trkpt>
      <trkpt lat="47.561420677229762" lon="10.875598574057221">
        <ele>1602.029999999999973</ele>
        <time>2015-03-01T10:35:47Z</time>
      </trkpt>
      <trkpt lat="47.561416234821081" lon="10.875596227124333">
        <ele>1602.009999999999991</ele>
        <time>2015-03-01T10:35:48Z</time>
      </trkpt>
      <trkpt lat="47.561374995857477" lon="10.8755823969841">
        <ele>1603.8900000000001</ele>
        <time>2015-03-01T10:35:56Z</time>
      </trkpt>
      <trkpt lat="47.56134775467217" lon="10.875568650662899">
        <ele>1604.339999999999918</ele>
        <time>2015-03-01T10:36:11Z</time>
      </trkpt>
      <trkpt lat="47.561289248988032" lon="10.875589437782764">
        <ele>1606.619999999999891</ele>
        <time>2015-03-01T10:36:26Z</time>
      </trkpt>
      <trkpt lat="47.561284890398383" lon="10.875574517995119">
        <ele>1608.339999999999918</ele>
        <time>2015-03-01T10:36:40Z</time>
      </trkpt>
      <trkpt lat="47.561274580657482" lon="10.875498410314322">
        <ele>1608.900000000000091</ele>
        <time>2015-03-01T10:36:53Z</time>
      </trkpt>
      <trkpt lat="47.561273910105228" lon="10.875402521342039">
        <ele>1611.289999999999964</ele>
        <time>2015-03-01T10:37:09Z</time>
      </trkpt>
      <trkpt lat="47.561286063864827" lon="10.875335717573762">
        <ele>1612.460000000000036</ele>
        <time>2015-03-01T10:37:26Z</time>
      </trkpt>
      <trkpt lat="47.561301905661821" lon="10.875253491103649">
        <ele>1615.150000000000091</ele>
        <time>2015-03-01T10:37:42Z</time>
      </trkpt>
      <trkpt lat="47.561341132968664" lon="10.875163050368428">
        <ele>1618.259999999999991</ele>
        <time>2015-03-01T10:37:55Z</time>
      </trkpt>
      <trkpt lat="47.561349095776677" lon="10.875048385933042">
        <ele>1619.809999999999945</ele>
        <time>2015-03-01T10:38:10Z</time>
      </trkpt>
      <trkpt lat="47.561353286728263" lon="10.874980324879289">
        <ele>1622.119999999999891</ele>
        <time>2015-03-01T10:38:26Z</time>
      </trkpt>
      <trkpt lat="47.561350353062153" lon="10.874841520562768">
        <ele>1623.6099999999999</ele>
        <time>2015-03-01T10:38:43Z</time>
      </trkpt>
      <trkpt lat="47.561351275071502" lon="10.874703386798501">
        <ele>1625.190000000000055</ele>
        <time>2015-03-01T10:38:58Z</time>
      </trkpt>
      <trkpt lat="47.561349682509899" lon="10.874672289937735">
        <ele>1627.160000000000082</ele>
        <time>2015-03-01T10:39:17Z</time>
      </trkpt>
      <trkpt lat="47.561344485729933" lon="10.874666757881641">
        <ele>1626.400000000000091</ele>
        <time>2015-03-01T10:39:46Z</time>
      </trkpt>
      <trkpt lat="47.561347503215075" lon="10.874667344614863">
        <ele>1629.710000000000036</ele>
        <time>2015-03-01T10:40:30Z</time>
      </trkpt>
      <trkpt lat="47.561347587034106" lon="10.874664997681975">
        <ele>1631.839999999999918</ele>
        <time>2015-03-01T10:40:34Z</time>
      </trkpt>
      <trkpt lat="47.561346581205726" lon="10.874665500596166">
        <ele>1627.829999999999927</ele>
        <time>2015-03-01T10:40:39Z</time>
      </trkpt>
      <trkpt lat="47.561347000300884" lon="10.874665500596166">
        <ele>1628.029999999999973</ele>
        <time>2015-03-01T10:40:40Z</time>
      </trkpt>
      <trkpt lat="47.561350772157311" lon="10.874664578586817">
        <ele>1625.990000000000009</ele>
        <time>2015-03-01T10:41:11Z</time>
      </trkpt>
      <trkpt lat="47.561348928138614" lon="10.874659130349755">
        <ele>1625.230000000000018</ele>
        <time>2015-03-01T10:41:38Z</time>
      </trkpt>
      <trkpt lat="47.561350185424089" lon="10.874650664627552">
        <ele>1626.049999999999955</ele>
        <time>2015-03-01T10:41:54Z</time>
      </trkpt>
      <trkpt lat="47.561347000300884" lon="10.874647060409188">
        <ele>1629.240000000000009</ele>
        <time>2015-03-01T10:42:07Z</time>
      </trkpt>
      <trkpt lat="47.561346916481853" lon="10.874646725133061">
        <ele>1629.269999999999982</ele>
        <time>2015-03-01T10:42:08Z</time>
      </trkpt>
      <trkpt lat="47.561341216787696" lon="10.874639768153429">
        <ele>1627.190000000000055</ele>
        <time>2015-03-01T10:42:31Z</time>
      </trkpt>
      <trkpt lat="47.561345240101218" lon="10.874645635485649">
        <ele>1627.839999999999918</ele>
        <time>2015-03-01T10:42:39Z</time>
      </trkpt>
      <trkpt lat="47.561348844319582" lon="10.874633984640241">
        <ele>1626.680000000000064</ele>
        <time>2015-03-01T10:43:00Z</time>
      </trkpt>
      <trkpt lat="47.561341635882854" lon="10.874637002125382">
        <ele>1628.970000000000027</ele>
        <time>2015-03-01T10:43:18Z</time>
      </trkpt>
      <trkpt lat="47.561349347233772" lon="10.874643875285983">
        <ele>1626.420000000000073</ele>
        <time>2015-03-01T10:43:42Z</time>
      </trkpt>
      <trkpt lat="47.561334175989032" lon="10.874576065689325">
        <ele>1629.440000000000055</ele>
        <time>2015-03-01T10:43:56Z</time>
      </trkpt>
      <trkpt lat="47.561335181817412" lon="10.874446230009198">
        <ele>1631.559999999999945</ele>
        <time>2015-03-01T10:44:10Z</time>
      </trkpt>
      <trkpt lat="47.561331996694207" lon="10.874393004924059">
        <ele>1634.180000000000064</ele>
        <time>2015-03-01T10:44:16Z</time>
      </trkpt>
      <trkpt lat="47.561325039714575" lon="10.874339276924729">
        <ele>1637.259999999999991</ele>
        <time>2015-03-01T10:44:23Z</time>
      </trkpt>
      <trkpt lat="47.561322776600718" lon="10.874332403764129">
        <ele>1637.309999999999945</ele>
        <time>2015-03-01T10:44:24Z</time>
      </trkpt>
      <trkpt lat="47.561290338635445" lon="10.874223606660962">
        <ele>1637.380000000000109</ele>
        <time>2015-03-01T10:44:37Z</time>
      </trkpt>
      <trkpt lat="47.561255553737283" lon="10.874133668839931">
        <ele>1638.460000000000036</ele>
        <time>2015-03-01T10:44:49Z</time>
      </trkpt>
      <trkpt lat="47.561253877356648" lon="10.874123945832253">
        <ele>1638.160000000000082</ele>
        <time>2015-03-01T10:44:50Z</time>
      </trkpt>
      <trkpt lat="47.561219595372677" lon="10.874023865908384">
        <ele>1641.809999999999945</ele>
        <time>2015-03-01T10:45:05Z</time>
      </trkpt>
      <trkpt lat="47.561188163235784" lon="10.873923869803548">
        <ele>1643.75</ele>
        <time>2015-03-01T10:45:19Z</time>
      </trkpt>
      <trkpt lat="47.561136782169342" lon="10.873827980831265">
        <ele>1645.700000000000045</ele>
        <time>2015-03-01T10:45:33Z</time>
      </trkpt>
      <trkpt lat="47.561080288141966" lon="10.873752208426595">
        <ele>1647.839999999999918</ele>
        <time>2015-03-01T10:45:46Z</time>
      </trkpt>
      <trkpt lat="47.56104726344347" lon="10.873713903129101">
        <ele>1650.8599999999999</ele>
        <time>2015-03-01T10:45:55Z</time>
      </trkpt>
      <trkpt lat="47.560978950932622" lon="10.873642489314079">
        <ele>1653.099999999999909</ele>
        <time>2015-03-01T10:46:11Z</time>
      </trkpt>
      <trkpt lat="47.560932599008083" lon="10.87361172772944">
        <ele>1656.160000000000082</ele>
        <time>2015-03-01T10:46:20Z</time>
      </trkpt>
      <trkpt lat="47.560868142172694" lon="10.873582810163498">
        <ele>1657.769999999999982</ele>
        <time>2015-03-01T10:46:37Z</time>
      </trkpt>
      <trkpt lat="47.560812821611762" lon="10.873579708859324">
        <ele>1658.380000000000109</ele>
        <time>2015-03-01T10:46:50Z</time>
      </trkpt>
      <trkpt lat="47.560770241543651" lon="10.873577948659658">
        <ele>1661.009999999999991</ele>
        <time>2015-03-01T10:47:02Z</time>
      </trkpt>
      <trkpt lat="47.56073797121644" lon="10.873583983629942">
        <ele>1661.039999999999964</ele>
        <time>2015-03-01T10:47:09Z</time>
      </trkpt>
      <trkpt lat="47.560687093064189" lon="10.873581133782864">
        <ele>1664.039999999999964</ele>
        <time>2015-03-01T10:47:20Z</time>
      </trkpt>
      <trkpt lat="47.560670664533973" lon="10.873571326956153">
        <ele>1667.680000000000064</ele>
        <time>2015-03-01T10:47:25Z</time>
      </trkpt>
      <trkpt lat="47.560651637613773" lon="10.873563950881362">
        <ele>1671.220000000000027</ele>
        <time>2015-03-01T10:47:29Z</time>
      </trkpt>
      <trkpt lat="47.560645854100585" lon="10.873563699424267">
        <ele>1671.5</ele>
        <time>2015-03-01T10:47:30Z</time>
      </trkpt>
      <trkpt lat="47.560626743361354" lon="10.873552551493049">
        <ele>1669.430000000000064</ele>
        <time>2015-03-01T10:47:35Z</time>
      </trkpt>
      <trkpt lat="47.56060067564249" lon="10.873541738837957">
        <ele>1670.059999999999945</ele>
        <time>2015-03-01T10:47:41Z</time>
      </trkpt>
      <trkpt lat="47.560578798875213" lon="10.873491363599896">
        <ele>1670.599999999999909</ele>
        <time>2015-03-01T10:47:55Z</time>
      </trkpt>
      <trkpt lat="47.560575362294912" lon="10.873477701097727">
        <ele>1671.789999999999964</ele>
        <time>2015-03-01T10:47:57Z</time>
      </trkpt>
      <trkpt lat="47.560537727549672" lon="10.873403353616595">
        <ele>1673.589999999999918</ele>
        <time>2015-03-01T10:48:11Z</time>
      </trkpt>
      <trkpt lat="47.560532027855515" lon="10.873395139351487">
        <ele>1676.6099999999999</ele>
        <time>2015-03-01T10:48:17Z</time>
      </trkpt>
      <trkpt lat="47.560529429465532" lon="10.873390277847648">
        <ele>1682.269999999999982</ele>
        <time>2015-03-01T10:48:18Z</time>
      </trkpt>
      <trkpt lat="47.560528004541993" lon="10.873386841267347">
        <ele>1678.519999999999982</ele>
        <time>2015-03-01T10:48:19Z</time>
      </trkpt>
      <trkpt lat="47.560526160523295" lon="10.873382398858666">
        <ele>1674.430000000000064</ele>
        <time>2015-03-01T10:48:21Z</time>
      </trkpt>
      <trkpt lat="47.560526160523295" lon="10.873378375545144">
        <ele>1675.3900000000001</ele>
        <time>2015-03-01T10:48:22Z</time>
      </trkpt>
      <trkpt lat="47.560499170795083" lon="10.873306458815932">
        <ele>1675.099999999999909</ele>
        <time>2015-03-01T10:48:33Z</time>
      </trkpt>
      <trkpt lat="47.560466816648841" lon="10.873201685026288">
        <ele>1677.769999999999982</ele>
        <time>2015-03-01T10:48:47Z</time>
      </trkpt>
      <trkpt lat="47.560424571856856" lon="10.873115854337811">
        <ele>1678.519999999999982</ele>
        <time>2015-03-01T10:49:01Z</time>
      </trkpt>
      <trkpt lat="47.560391966253519" lon="10.873090792447329">
        <ele>1680.289999999999964</ele>
        <time>2015-03-01T10:49:16Z</time>
      </trkpt>
      <trkpt lat="47.56036170758307" lon="10.873078387230635">
        <ele>1683.400000000000091</ele>
        <time>2015-03-01T10:49:22Z</time>
      </trkpt>
      <trkpt lat="47.560358271002769" lon="10.873074950650334">
        <ele>1682.589999999999918</ele>
        <time>2015-03-01T10:49:23Z</time>
      </trkpt>
      <trkpt lat="47.56032164208591" lon="10.872993059456348">
        <ele>1685.220000000000027</ele>
        <time>2015-03-01T10:49:37Z</time>
      </trkpt>
      <trkpt lat="47.560320133343339" lon="10.872939582914114">
        <ele>1684.839999999999918</ele>
        <time>2015-03-01T10:49:43Z</time>
      </trkpt>
      <trkpt lat="47.560330359265208" lon="10.872866911813617">
        <ele>1688.339999999999918</ele>
        <time>2015-03-01T10:49:52Z</time>
      </trkpt>
      <trkpt lat="47.560331448912621" lon="10.87286070920527">
        <ele>1687.690000000000055</ele>
        <time>2015-03-01T10:49:53Z</time>
      </trkpt>
      <trkpt lat="47.560360282659531" lon="10.872784601524472">
        <ele>1689.200000000000045</ele>
        <time>2015-03-01T10:50:05Z</time>
      </trkpt>
      <trkpt lat="47.560372520238161" lon="10.872701704502106">
        <ele>1692.269999999999982</ele>
        <time>2015-03-01T10:50:13Z</time>
      </trkpt>
      <trkpt lat="47.560367239639163" lon="10.872697345912457">
        <ele>1689.1400000000001</ele>
        <time>2015-03-01T10:50:19Z</time>
      </trkpt>
      <trkpt lat="47.560361288487911" lon="10.872668260708451">
        <ele>1692.549999999999955</ele>
        <time>2015-03-01T10:50:23Z</time>
      </trkpt>
      <trkpt lat="47.560357851907611" lon="10.872664656490088">
        <ele>1692.529999999999973</ele>
        <time>2015-03-01T10:50:24Z</time>
      </trkpt>
      <trkpt lat="47.560341004282236" lon="10.872658034786582">
        <ele>1696.190000000000055</ele>
        <time>2015-03-01T10:50:35Z</time>
      </trkpt>
      <trkpt lat="47.560339495539665" lon="10.872660465538502">
        <ele>1696.049999999999955</ele>
        <time>2015-03-01T10:50:36Z</time>
      </trkpt>
      <trkpt lat="47.560340249910951" lon="10.872652754187584">
        <ele>1694.1099999999999</ele>
        <time>2015-03-01T10:50:40Z</time>
      </trkpt>
      <trkpt lat="47.560332203283906" lon="10.872658202424645">
        <ele>1694.430000000000064</ele>
        <time>2015-03-01T10:50:59Z</time>
      </trkpt>
      <trkpt lat="47.560335556045175" lon="10.872653173282743">
        <ele>1693.460000000000036</ele>
        <time>2015-03-01T10:51:19Z</time>
      </trkpt>
      <trkpt lat="47.560326419770718" lon="10.872646132484078">
        <ele>1693.130000000000109</ele>
        <time>2015-03-01T10:51:36Z</time>
      </trkpt>
      <trkpt lat="47.560314014554024" lon="10.87263791821897">
        <ele>1692.619999999999891</ele>
        <time>2015-03-01T10:51:53Z</time>
      </trkpt>
      <trkpt lat="47.560310158878565" lon="10.872635403648019">
        <ele>1696.259999999999991</ele>
        <time>2015-03-01T10:51:56Z</time>
      </trkpt>
      <trkpt lat="47.56031041033566" lon="10.872634649276733">
        <ele>1695.900000000000091</ele>
        <time>2015-03-01T10:51:57Z</time>
      </trkpt>
      <trkpt lat="47.560309572145343" lon="10.872636577114463">
        <ele>1692.710000000000036</ele>
        <time>2015-03-01T10:52:09Z</time>
      </trkpt>
      <trkpt lat="47.560308482497931" lon="10.872638840228319">
        <ele>1689.670000000000073</ele>
        <time>2015-03-01T10:52:26Z</time>
      </trkpt>
      <trkpt lat="47.560303537175059" lon="10.872647305950522">
        <ele>1691.880000000000109</ele>
        <time>2015-03-01T10:52:45Z</time>
      </trkpt>
      <trkpt lat="47.560311667621136" lon="10.872672535479069">
        <ele>1689.1099999999999</ele>
        <time>2015-03-01T10:53:00Z</time>
      </trkpt>
      <trkpt lat="47.560327677056193" lon="10.872684018686414">
        <ele>1688.440000000000055</ele>
        <time>2015-03-01T10:53:01Z</time>
      </trkpt>
      <trkpt lat="47.560361791402102" lon="10.872680665925145">
        <ele>1687.420000000000073</ele>
        <time>2015-03-01T10:53:03Z</time>
      </trkpt>
      <trkpt lat="47.560379561036825" lon="10.872673876583576">
        <ele>1687</ele>
        <time>2015-03-01T10:53:06Z</time>
      </trkpt>
      <trkpt lat="47.560471929609776" lon="10.872615957632661">
        <ele>1686.6400000000001</ele>
        <time>2015-03-01T10:53:16Z</time>
      </trkpt>
      <trkpt lat="47.560599334537983" lon="10.872562564909458">
        <ele>1685.220000000000027</ele>
        <time>2015-03-01T10:53:31Z</time>
      </trkpt>
      <trkpt lat="47.560641998425126" lon="10.872522918507457">
        <ele>1687.049999999999955</ele>
        <time>2015-03-01T10:53:45Z</time>
      </trkpt>
      <trkpt lat="47.560650045052171" lon="10.872505065053701">
        <ele>1686.420000000000073</ele>
        <time>2015-03-01T10:53:59Z</time>
      </trkpt>
      <trkpt lat="47.560652978718281" lon="10.872488552704453">
        <ele>1686.25</ele>
        <time>2015-03-01T10:54:14Z</time>
      </trkpt>
      <trkpt lat="47.560632275417447" lon="10.872389478608966">
        <ele>1685.329999999999927</ele>
        <time>2015-03-01T10:54:26Z</time>
      </trkpt>
      <trkpt lat="47.56063487380743" lon="10.87233692407608">
        <ele>1683.940000000000055</ele>
        <time>2015-03-01T10:54:38Z</time>
      </trkpt>
      <trkpt lat="47.560633951798081" lon="10.872324267402291">
        <ele>1683.880000000000109</ele>
        <time>2015-03-01T10:54:56Z</time>
      </trkpt>
      <trkpt lat="47.560652727261186" lon="10.87229342199862">
        <ele>1682.910000000000082</ele>
        <time>2015-03-01T10:55:10Z</time>
      </trkpt>
      <trkpt lat="47.560647195205092" lon="10.872310437262058">
        <ele>1683.1099999999999</ele>
        <time>2015-03-01T10:55:26Z</time>
      </trkpt>
      <trkpt lat="47.56065490655601" lon="10.872296104207635">
        <ele>1682.049999999999955</ele>
        <time>2015-03-01T10:55:46Z</time>
      </trkpt>
      <trkpt lat="47.560641746968031" lon="10.872315131127834">
        <ele>1682.910000000000082</ele>
        <time>2015-03-01T10:56:05Z</time>
      </trkpt>
      <trkpt lat="47.560597574338317" lon="10.872295517474413">
        <ele>1681.759999999999991</ele>
        <time>2015-03-01T10:56:19Z</time>
      </trkpt>
      <trkpt lat="47.560568740591407" lon="10.872297780588269">
        <ele>1679.8900000000001</ele>
        <time>2015-03-01T10:56:20Z</time>
      </trkpt>
      <trkpt lat="47.560548707842827" lon="10.872296271845698">
        <ele>1680.089999999999918</ele>
        <time>2015-03-01T10:56:21Z</time>
      </trkpt>
      <trkpt lat="47.560491627082229" lon="10.872317813336849">
        <ele>1679.3900000000001</ele>
        <time>2015-03-01T10:56:33Z</time>
      </trkpt>
      <trkpt lat="47.560466649010777" lon="10.872332900762558">
        <ele>1679.6400000000001</ele>
        <time>2015-03-01T10:56:48Z</time>
      </trkpt>
      <trkpt lat="47.560427086427808" lon="10.872362572699785">
        <ele>1679.009999999999991</ele>
        <time>2015-03-01T10:57:05Z</time>
      </trkpt>
      <trkpt lat="47.560407305136323" lon="10.87235301733017">
        <ele>1678.680000000000064</ele>
        <time>2015-03-01T10:57:16Z</time>
      </trkpt>
      <trkpt lat="47.560404120013118" lon="10.872328374534845">
        <ele>1677.579999999999927</ele>
        <time>2015-03-01T10:57:17Z</time>
      </trkpt>
      <trkpt lat="47.560420800000429" lon="10.872260313481092">
        <ele>1677.619999999999891</ele>
        <time>2015-03-01T10:57:28Z</time>
      </trkpt>
      <trkpt lat="47.560425493866205" lon="10.872253691777587">
        <ele>1676.569999999999936</ele>
        <time>2015-03-01T10:57:35Z</time>
      </trkpt>
      <trkpt lat="47.560424990952015" lon="10.872246231883764">
        <ele>1676.589999999999918</ele>
        <time>2015-03-01T10:57:37Z</time>
      </trkpt>
      <trkpt lat="47.560437312349677" lon="10.872169453650713">
        <ele>1673.420000000000073</ele>
        <time>2015-03-01T10:57:45Z</time>
      </trkpt>
      <trkpt lat="47.560484334826469" lon="10.872125364840031">
        <ele>1671.880000000000109</ele>
        <time>2015-03-01T10:57:49Z</time>
      </trkpt>
      <trkpt lat="47.560505541041493" lon="10.872116312384605">
        <ele>1670.599999999999909</ele>
        <time>2015-03-01T10:57:52Z</time>
      </trkpt>
      <trkpt lat="47.560520712286234" lon="10.872063087299466">
        <ele>1669.309999999999945</ele>
        <time>2015-03-01T10:58:05Z</time>
      </trkpt>
      <trkpt lat="47.560526076704264" lon="10.872049424797297">
        <ele>1669.450000000000045</ele>
        <time>2015-03-01T10:58:08Z</time>
      </trkpt>
      <trkpt lat="47.560520628467202" lon="10.871987817808986">
        <ele>1668.269999999999982</ele>
        <time>2015-03-01T10:58:11Z</time>
      </trkpt>
      <trkpt lat="47.56046874448657" lon="10.8718282263726">
        <ele>1664.019999999999982</ele>
        <time>2015-03-01T10:58:19Z</time>
      </trkpt>
      <trkpt lat="47.560456926003098" lon="10.871822107583284">
        <ele>1664.009999999999991</ele>
        <time>2015-03-01T10:58:35Z</time>
      </trkpt>
      <trkpt lat="47.560457680374384" lon="10.871820515021682">
        <ele>1663.990000000000009</ele>
        <time>2015-03-01T10:58:38Z</time>
      </trkpt>
      <trkpt lat="47.560456171631813" lon="10.871770894154906">
        <ele>1662.769999999999982</ele>
        <time>2015-03-01T10:58:42Z</time>
      </trkpt>
      <trkpt lat="47.5604447722435" lon="10.871753124520183">
        <ele>1661.5</ele>
        <time>2015-03-01T10:58:55Z</time>
      </trkpt>
      <trkpt lat="47.560423482209444" lon="10.871739629656076">
        <ele>1661.200000000000045</ele>
        <time>2015-03-01T10:59:06Z</time>
      </trkpt>
      <trkpt lat="47.560387523844838" lon="10.871720602735877">
        <ele>1659.940000000000055</ele>
        <time>2015-03-01T10:59:24Z</time>
      </trkpt>
      <trkpt lat="47.560368999838829" lon="10.871715573593974">
        <ele>1657.369999999999891</ele>
        <time>2015-03-01T10:59:36Z</time>
      </trkpt>
      <trkpt lat="47.560349134728312" lon="10.871732421219349">
        <ele>1655.349999999999909</ele>
        <time>2015-03-01T10:59:51Z</time>
      </trkpt>
      <trkpt lat="47.560277469456196" lon="10.871661761775613">
        <ele>1654.960000000000036</ele>
        <time>2015-03-01T11:00:07Z</time>
      </trkpt>
      <trkpt lat="47.560249054804444" lon="10.871659331023693">
        <ele>1653.920000000000073</ele>
        <time>2015-03-01T11:00:23Z</time>
      </trkpt>
      <trkpt lat="47.560271015390754" lon="10.871625803411007">
        <ele>1654.329999999999927</ele>
        <time>2015-03-01T11:00:37Z</time>
      </trkpt>
      <trkpt lat="47.56027914583683" lon="10.871596215292811">
        <ele>1653.710000000000036</ele>
        <time>2015-03-01T11:00:51Z</time>
      </trkpt>
      <trkpt lat="47.560275541618466" lon="10.871600992977619">
        <ele>1652.099999999999909</ele>
        <time>2015-03-01T11:01:08Z</time>
      </trkpt>
      <trkpt lat="47.560269087553024" lon="10.87160736322403">
        <ele>1651.519999999999982</ele>
        <time>2015-03-01T11:01:26Z</time>
      </trkpt>
      <trkpt lat="47.560259364545345" lon="10.871612895280123">
        <ele>1652.200000000000045</ele>
        <time>2015-03-01T11:01:46Z</time>
      </trkpt>
      <trkpt lat="47.56026204675436" lon="10.871590934693813">
        <ele>1652.240000000000009</ele>
        <time>2015-03-01T11:01:58Z</time>
      </trkpt>
      <trkpt lat="47.560260538011789" lon="10.871580624952912">
        <ele>1651.700000000000045</ele>
        <time>2015-03-01T11:02:13Z</time>
      </trkpt>
      <trkpt lat="47.560259196907282" lon="10.871573416516185">
        <ele>1650.529999999999973</ele>
        <time>2015-03-01T11:02:30Z</time>
      </trkpt>
      <trkpt lat="47.560243019834161" lon="10.87156243622303">
        <ele>1650.940000000000055</ele>
        <time>2015-03-01T11:02:43Z</time>
      </trkpt>
      <trkpt lat="47.560226004570723" lon="10.871545420959592">
        <ele>1650.549999999999955</ele>
        <time>2015-03-01T11:02:54Z</time>
      </trkpt>
      <trkpt lat="47.560188872739673" lon="10.871526058763266">
        <ele>1649.059999999999945</ele>
        <time>2015-03-01T11:02:57Z</time>
      </trkpt>
      <trkpt lat="47.560122488066554" lon="10.871504936367273">
        <ele>1647.480000000000018</ele>
        <time>2015-03-01T11:03:01Z</time>
      </trkpt>
      <trkpt lat="47.560101449489594" lon="10.871471324935555">
        <ele>1647.059999999999945</ele>
        <time>2015-03-01T11:03:02Z</time>
      </trkpt>
      <trkpt lat="47.560108741745353" lon="10.871407287195325">
        <ele>1644.519999999999982</ele>
        <time>2015-03-01T11:03:09Z</time>
      </trkpt>
      <trkpt lat="47.560146292671561" lon="10.871310392394662">
        <ele>1641.099999999999909</ele>
        <time>2015-03-01T11:03:12Z</time>
      </trkpt>
      <trkpt lat="47.560185017064214" lon="10.871268650516868">
        <ele>1640.990000000000009</ele>
        <time>2015-03-01T11:03:17Z</time>
      </trkpt>
      <trkpt lat="47.560154674574733" lon="10.871181562542915">
        <ele>1637.380000000000109</ele>
        <time>2015-03-01T11:03:21Z</time>
      </trkpt>
      <trkpt lat="47.560155428946018" lon="10.871180975809693">
        <ele>1637.170000000000073</ele>
        <time>2015-03-01T11:03:22Z</time>
      </trkpt>
      <trkpt lat="47.560144364833832" lon="10.871117021888494">
        <ele>1636.349999999999909</ele>
        <time>2015-03-01T11:03:26Z</time>
      </trkpt>
      <trkpt lat="47.560253078117967" lon="10.870922561734915">
        <ele>1630.619999999999891</ele>
        <time>2015-03-01T11:03:32Z</time>
      </trkpt>
      <trkpt lat="47.560247881338" lon="10.870741764083505">
        <ele>1626.900000000000091</ele>
        <time>2015-03-01T11:03:36Z</time>
      </trkpt>
      <trkpt lat="47.56021217443049" lon="10.870674792677164">
        <ele>1626.190000000000055</ele>
        <time>2015-03-01T11:03:39Z</time>
      </trkpt>
      <trkpt lat="47.560140676796436" lon="10.870572617277503">
        <ele>1622.839999999999918</ele>
        <time>2015-03-01T11:03:44Z</time>
      </trkpt>
      <trkpt lat="47.560108406469226" lon="10.870537664741278">
        <ele>1621.5</ele>
        <time>2015-03-01T11:03:47Z</time>
      </trkpt>
      <trkpt lat="47.5600441172719" lon="10.870460132136941">
        <ele>1618.430000000000064</ele>
        <time>2015-03-01T11:03:50Z</time>
      </trkpt>
      <trkpt lat="47.559996172785759" lon="10.870382850989699">
        <ele>1616.470000000000027</ele>
        <time>2015-03-01T11:03:52Z</time>
      </trkpt>
      <trkpt lat="47.559952838346362" lon="10.870239101350307">
        <ele>1612.220000000000027</ele>
        <time>2015-03-01T11:03:55Z</time>
      </trkpt>
      <trkpt lat="47.559951413422823" lon="10.870198449119925">
        <ele>1611.319999999999936</ele>
        <time>2015-03-01T11:04:03Z</time>
      </trkpt>
      <trkpt lat="47.559947138652205" lon="10.870186211541295">
        <ele>1611.75</ele>
        <time>2015-03-01T11:04:05Z</time>
      </trkpt>
      <trkpt lat="47.559926770627499" lon="10.870158467441797">
        <ele>1611.660000000000082</ele>
        <time>2015-03-01T11:04:07Z</time>
      </trkpt>
      <trkpt lat="47.559847896918654" lon="10.870179086923599">
        <ele>1608.029999999999973</ele>
        <time>2015-03-01T11:04:11Z</time>
      </trkpt>
      <trkpt lat="47.559821410104632" lon="10.870208507403731">
        <ele>1606.170000000000073</ele>
        <time>2015-03-01T11:04:13Z</time>
      </trkpt>
      <trkpt lat="47.559754941612482" lon="10.870290147140622">
        <ele>1603.200000000000045</ele>
        <time>2015-03-01T11:04:27Z</time>
      </trkpt>
      <trkpt lat="47.559753265231848" lon="10.870291069149971">
        <ele>1604.829999999999927</ele>
        <time>2015-03-01T11:04:49Z</time>
      </trkpt>
      <trkpt lat="47.559749577194452" lon="10.870308335870504">
        <ele>1604.650000000000091</ele>
        <time>2015-03-01T11:05:15Z</time>
      </trkpt>
      <trkpt lat="47.559742704033852" lon="10.870298780500889">
        <ele>1604.420000000000073</ele>
        <time>2015-03-01T11:05:31Z</time>
      </trkpt>
      <trkpt lat="47.559742284938693" lon="10.870290817692876">
        <ele>1605.210000000000036</ele>
        <time>2015-03-01T11:05:44Z</time>
      </trkpt>
      <trkpt lat="47.559745302423835" lon="10.870313113555312">
        <ele>1606.049999999999955</ele>
        <time>2015-03-01T11:06:17Z</time>
      </trkpt>
      <trkpt lat="47.559588560834527" lon="10.870440769940615">
        <ele>1603.75</ele>
        <time>2015-03-01T11:06:37Z</time>
      </trkpt>
      <trkpt lat="47.559501305222511" lon="10.870425766333938">
        <ele>1602.900000000000091</ele>
        <time>2015-03-01T11:06:55Z</time>
      </trkpt>
      <trkpt lat="47.559428885579109" lon="10.870414953678846">
        <ele>1604.190000000000055</ele>
        <time>2015-03-01T11:07:11Z</time>
      </trkpt>
      <trkpt lat="47.559193270280957" lon="10.870389137417078">
        <ele>1606.170000000000073</ele>
        <time>2015-03-01T11:07:34Z</time>
      </trkpt>
      <trkpt lat="47.559166112914681" lon="10.87038335390389">
        <ele>1607.210000000000036</ele>
        <time>2015-03-01T11:07:38Z</time>
      </trkpt>
      <trkpt lat="47.559029823169112" lon="10.870361728593707">
        <ele>1610.440000000000055</ele>
        <time>2015-03-01T11:07:57Z</time>
      </trkpt>
      <trkpt lat="47.558947596698999" lon="10.870333984494209">
        <ele>1612.160000000000082</ele>
        <time>2015-03-01T11:08:15Z</time>
      </trkpt>
      <trkpt lat="47.558922115713358" lon="10.870329374447465">
        <ele>1611.970000000000027</ele>
        <time>2015-03-01T11:08:44Z</time>
      </trkpt>
      <trkpt lat="47.558775935322046" lon="10.87030372582376">
        <ele>1611.829999999999927</ele>
        <time>2015-03-01T11:09:03Z</time>
      </trkpt>
      <trkpt lat="47.558637298643589" lon="10.870304899290204">
        <ele>1613.339999999999918</ele>
        <time>2015-03-01T11:09:21Z</time>
      </trkpt>
      <trkpt lat="47.558471336960793" lon="10.87027438916266">
        <ele>1615.910000000000082</ele>
        <time>2015-03-01T11:09:42Z</time>
      </trkpt>
      <trkpt lat="47.558343932032585" lon="10.870244381949306">
        <ele>1617.900000000000091</ele>
        <time>2015-03-01T11:09:59Z</time>
      </trkpt>
      <trkpt lat="47.55824108608067" lon="10.870193587616086">
        <ele>1620.569999999999936</ele>
        <time>2015-03-01T11:10:18Z</time>
      </trkpt>
      <trkpt lat="47.558141844347119" lon="10.870154025033116">
        <ele>1622.299999999999955</ele>
        <time>2015-03-01T11:10:34Z</time>
      </trkpt>
      <trkpt lat="47.558061964809895" lon="10.870097195729613">
        <ele>1624.849999999999909</ele>
        <time>2015-03-01T11:10:48Z</time>
      </trkpt>
      <trkpt lat="47.557927099987864" lon="10.870035924017429">
        <ele>1628.119999999999891</ele>
        <time>2015-03-01T11:11:03Z</time>
      </trkpt>
      <trkpt lat="47.557918801903725" lon="10.870029805228114">
        <ele>1627.940000000000055</ele>
        <time>2015-03-01T11:11:04Z</time>
      </trkpt>
      <trkpt lat="47.557773040607572" lon="10.869983453303576">
        <ele>1629.490000000000009</ele>
        <time>2015-03-01T11:11:24Z</time>
      </trkpt>
      <trkpt lat="47.557647731155157" lon="10.86991966702044">
        <ele>1630.339999999999918</ele>
        <time>2015-03-01T11:11:42Z</time>
      </trkpt>
      <trkpt lat="47.557635074481368" lon="10.869910195469856">
        <ele>1629.680000000000064</ele>
        <time>2015-03-01T11:11:44Z</time>
      </trkpt>
      <trkpt lat="47.557611269876361" lon="10.869893515482545">
        <ele>1629.589999999999918</ele>
        <time>2015-03-01T11:11:46Z</time>
      </trkpt>
      <trkpt lat="47.557492917403579" lon="10.869800727814436">
        <ele>1626.470000000000027</ele>
        <time>2015-03-01T11:11:51Z</time>
      </trkpt>
      <trkpt lat="47.557418486103415" lon="10.869727302342653">
        <ele>1622.539999999999964</ele>
        <time>2015-03-01T11:11:53Z</time>
      </trkpt>
      <trkpt lat="47.557354280725121" lon="10.869651781395078">
        <ele>1621.210000000000036</ele>
        <time>2015-03-01T11:11:55Z</time>
      </trkpt>
      <trkpt lat="47.557255793362856" lon="10.869531081989408">
        <ele>1620.369999999999891</ele>
        <time>2015-03-01T11:12:05Z</time>
      </trkpt>
      <trkpt lat="47.557049263268709" lon="10.869475761428475">
        <ele>1622.900000000000091</ele>
        <time>2015-03-01T11:12:26Z</time>
      </trkpt>
      <trkpt lat="47.556890677660704" lon="10.869390768930316">
        <ele>1625.25</ele>
        <time>2015-03-01T11:12:46Z</time>
      </trkpt>
      <trkpt lat="47.556764613837004" lon="10.869308291003108">
        <ele>1625.480000000000018</ele>
        <time>2015-03-01T11:13:04Z</time>
      </trkpt>
      <trkpt lat="47.556651458144188" lon="10.869226232171059">
        <ele>1628.3599999999999</ele>
        <time>2015-03-01T11:13:21Z</time>
      </trkpt>
      <trkpt lat="47.556525394320488" lon="10.8690704125911">
        <ele>1630.730000000000018</ele>
        <time>2015-03-01T11:13:41Z</time>
      </trkpt>
      <trkpt lat="47.556482311338186" lon="10.869000004604459">
        <ele>1631.25</ele>
        <time>2015-03-01T11:13:48Z</time>
      </trkpt>
      <trkpt lat="47.556476192548871" lon="10.868987012654543">
        <ele>1630.680000000000064</ele>
        <time>2015-03-01T11:13:49Z</time>
      </trkpt>
      <trkpt lat="47.556337807327509" lon="10.868741841986775">
        <ele>1631.470000000000027</ele>
        <time>2015-03-01T11:14:11Z</time>
      </trkpt>
      <trkpt lat="47.556223478168249" lon="10.868560206145048">
        <ele>1632.200000000000045</ele>
        <time>2015-03-01T11:14:30Z</time>
      </trkpt>
      <trkpt lat="47.556112669408321" lon="10.868330122902989">
        <ele>1632.990000000000009</ele>
        <time>2015-03-01T11:14:52Z</time>
      </trkpt>
      <trkpt lat="47.556091379374266" lon="10.868289722129703">
        <ele>1633.769999999999982</ele>
        <time>2015-03-01T11:14:56Z</time>
      </trkpt>
      <trkpt lat="47.555980822071433" lon="10.868103643879294">
        <ele>1635.279999999999973</ele>
        <time>2015-03-01T11:15:16Z</time>
      </trkpt>
      <trkpt lat="47.555867750197649" lon="10.867908429354429">
        <ele>1637.220000000000027</ele>
        <time>2015-03-01T11:15:38Z</time>
      </trkpt>
      <trkpt lat="47.555786361917853" lon="10.867744646966457">
        <ele>1638.210000000000036</ele>
        <time>2015-03-01T11:15:56Z</time>
      </trkpt>
      <trkpt lat="47.555712768808007" lon="10.867599807679653">
        <ele>1640.200000000000045</ele>
        <time>2015-03-01T11:16:14Z</time>
      </trkpt>
      <trkpt lat="47.555655101314187" lon="10.867466954514384">
        <ele>1642.619999999999891</ele>
        <time>2015-03-01T11:16:31Z</time>
      </trkpt>
      <trkpt lat="47.555601540952921" lon="10.867333263158798">
        <ele>1644.920000000000073</ele>
        <time>2015-03-01T11:16:48Z</time>
      </trkpt>
      <trkpt lat="47.555549656972289" lon="10.867207869887352">
        <ele>1647.8599999999999</ele>
        <time>2015-03-01T11:17:05Z</time>
      </trkpt>
      <trkpt lat="47.555494252592325" lon="10.867071747779846">
        <ele>1650.829999999999927</ele>
        <time>2015-03-01T11:17:22Z</time>
      </trkpt>
      <trkpt lat="47.555447900667787" lon="10.86693998426199">
        <ele>1652.619999999999891</ele>
        <time>2015-03-01T11:17:38Z</time>
      </trkpt>
      <trkpt lat="47.555390233173966" lon="10.866790870204568">
        <ele>1654.809999999999945</ele>
        <time>2015-03-01T11:17:55Z</time>
      </trkpt>
      <trkpt lat="47.555340947583318" lon="10.86665365844965">
        <ele>1656.509999999999991</ele>
        <time>2015-03-01T11:18:12Z</time>
      </trkpt>
      <trkpt lat="47.555308844894171" lon="10.866549890488386">
        <ele>1658.809999999999945</ele>
        <time>2015-03-01T11:18:27Z</time>
      </trkpt>
      <trkpt lat="47.555281352251768" lon="10.86645919829607">
        <ele>1661.079999999999927</ele>
        <time>2015-03-01T11:18:42Z</time>
      </trkpt>
      <trkpt lat="47.55525654181838" lon="10.866399854421616">
        <ele>1664.079999999999927</ele>
        <time>2015-03-01T11:18:54Z</time>
      </trkpt>
      <trkpt lat="47.555242627859116" lon="10.866371188312769">
        <ele>1665.690000000000055</ele>
        <time>2015-03-01T11:18:59Z</time>
      </trkpt>
      <trkpt lat="47.555233240127563" lon="10.86627596989274">
        <ele>1666.700000000000045</ele>
        <time>2015-03-01T11:19:12Z</time>
      </trkpt>
      <trkpt lat="47.555222427472472" lon="10.866185445338488">
        <ele>1669.599999999999909</ele>
        <time>2015-03-01T11:19:24Z</time>
      </trkpt>
      <trkpt lat="47.555169453844428" lon="10.866149989888072">
        <ele>1670.539999999999964</ele>
        <time>2015-03-01T11:19:38Z</time>
      </trkpt>
      <trkpt lat="47.555150426924229" lon="10.866152001544833">
        <ele>1671.259999999999991</ele>
        <time>2015-03-01T11:19:51Z</time>
      </trkpt>
      <trkpt lat="47.555166017264128" lon="10.866059632971883">
        <ele>1672.849999999999909</ele>
        <time>2015-03-01T11:20:06Z</time>
      </trkpt>
      <trkpt lat="47.555194180458784" lon="10.865978077054024">
        <ele>1674.670000000000073</ele>
        <time>2015-03-01T11:20:22Z</time>
      </trkpt>
      <trkpt lat="47.555199796333909" lon="10.865966593846679">
        <ele>1676.309999999999945</ele>
        <time>2015-03-01T11:20:27Z</time>
      </trkpt>
      <trkpt lat="47.555248495191336" lon="10.865943795070052">
        <ele>1677.759999999999991</ele>
        <time>2015-03-01T11:20:42Z</time>
      </trkpt>
      <trkpt lat="47.555244388058782" lon="10.865933820605278">
        <ele>1677.160000000000082</ele>
        <time>2015-03-01T11:20:57Z</time>
      </trkpt>
      <trkpt lat="47.555200383067131" lon="10.865896353498101">
        <ele>1679.170000000000073</ele>
        <time>2015-03-01T11:21:12Z</time>
      </trkpt>
      <trkpt lat="47.55514170974493" lon="10.865860814228654">
        <ele>1681.599999999999909</ele>
        <time>2015-03-01T11:21:24Z</time>
      </trkpt>
      <trkpt lat="47.555045653134584" lon="10.865869531407952">
        <ele>1684.700000000000045</ele>
        <time>2015-03-01T11:21:40Z</time>
      </trkpt>
      <trkpt lat="47.55496040917933" lon="10.865925019606948">
        <ele>1687.700000000000045</ele>
        <time>2015-03-01T11:21:54Z</time>
      </trkpt>
      <trkpt lat="47.554916823282838" lon="10.865958798676729">
        <ele>1689.150000000000091</ele>
        <time>2015-03-01T11:22:07Z</time>
      </trkpt>
      <trkpt lat="47.554913302883506" lon="10.865939855575562">
        <ele>1689.329999999999927</ele>
        <time>2015-03-01T11:22:23Z</time>
      </trkpt>
      <trkpt lat="47.554905088618398" lon="10.865786299109459">
        <ele>1692.339999999999918</ele>
        <time>2015-03-01T11:22:37Z</time>
      </trkpt>
      <trkpt lat="47.554899556562304" lon="10.865644812583923">
        <ele>1695.619999999999891</ele>
        <time>2015-03-01T11:22:52Z</time>
      </trkpt>
      <trkpt lat="47.554859491065145" lon="10.86556158028543">
        <ele>1697.789999999999964</ele>
        <time>2015-03-01T11:23:06Z</time>
      </trkpt>
      <trkpt lat="47.554845493286848" lon="10.865557724609971">
        <ele>1698.059999999999945</ele>
        <time>2015-03-01T11:23:20Z</time>
      </trkpt>
      <trkpt lat="47.554845074191689" lon="10.865558898076415">
        <ele>1698.490000000000009</ele>
        <time>2015-03-01T11:23:57Z</time>
      </trkpt>
      <trkpt lat="47.554798806086183" lon="10.865506092086434">
        <ele>1697.230000000000018</ele>
        <time>2015-03-01T11:24:39Z</time>
      </trkpt>
      <trkpt lat="47.554774917662144" lon="10.865376172587276">
        <ele>1697.759999999999991</ele>
        <time>2015-03-01T11:24:49Z</time>
      </trkpt>
      <trkpt lat="47.554769301787019" lon="10.865139132365584">
        <ele>1698.3900000000001</ele>
        <time>2015-03-01T11:25:07Z</time>
      </trkpt>
      <trkpt lat="47.55476301535964" lon="10.865101246163249">
        <ele>1697.970000000000027</ele>
        <time>2015-03-01T11:25:10Z</time>
      </trkpt>
      <trkpt lat="47.554755387827754" lon="10.865057408809662">
        <ele>1697.569999999999936</ele>
        <time>2015-03-01T11:25:13Z</time>
      </trkpt>
      <trkpt lat="47.554733091965318" lon="10.864880131557584">
        <ele>1698.069999999999936</ele>
        <time>2015-03-01T11:25:26Z</time>
      </trkpt>
      <trkpt lat="47.554762428626418" lon="10.864825984463096">
        <ele>1697.349999999999909</ele>
        <time>2015-03-01T11:25:30Z</time>
      </trkpt>
      <trkpt lat="47.554783718660474" lon="10.864682234823704">
        <ele>1698.089999999999918</ele>
        <time>2015-03-01T11:25:42Z</time>
      </trkpt>
      <trkpt lat="47.55467114970088" lon="10.864470675587654">
        <ele>1699.380000000000109</ele>
        <time>2015-03-01T11:26:02Z</time>
      </trkpt>
      <trkpt lat="47.554564364254475" lon="10.864208238199353">
        <ele>1700.1400000000001</ele>
        <time>2015-03-01T11:26:22Z</time>
      </trkpt>
      <trkpt lat="47.554463194683194" lon="10.864017717540264">
        <ele>1701.289999999999964</ele>
        <time>2015-03-01T11:26:39Z</time>
      </trkpt>
      <trkpt lat="47.554334783926606" lon="10.863725608214736">
        <ele>1703.660000000000082</ele>
        <time>2015-03-01T11:27:02Z</time>
      </trkpt>
      <trkpt lat="47.55426655523479" lon="10.863542463630438">
        <ele>1704.680000000000064</ele>
        <time>2015-03-01T11:27:19Z</time>
      </trkpt>
      <trkpt lat="47.554235374554992" lon="10.863377926871181">
        <ele>1706.589999999999918</ele>
        <time>2015-03-01T11:27:34Z</time>
      </trkpt>
      <trkpt lat="47.554181227460504" lon="10.863258400931954">
        <ele>1707.880000000000109</ele>
        <time>2015-03-01T11:27:48Z</time>
      </trkpt>
      <trkpt lat="47.554142335429788" lon="10.863171564415097">
        <ele>1708.309999999999945</ele>
        <time>2015-03-01T11:28:02Z</time>
      </trkpt>
      <trkpt lat="47.554122218862176" lon="10.863143652677536">
        <ele>1707.650000000000091</ele>
        <time>2015-03-01T11:28:16Z</time>
      </trkpt>
      <trkpt lat="47.554114423692226" lon="10.863118087872863">
        <ele>1707.8900000000001</ele>
        <time>2015-03-01T11:28:31Z</time>
      </trkpt>
      <trkpt lat="47.554115178063512" lon="10.863097971305251">
        <ele>1708.240000000000009</ele>
        <time>2015-03-01T11:28:48Z</time>
      </trkpt>
      <trkpt lat="47.554102018475533" lon="10.863069221377373">
        <ele>1709.380000000000109</ele>
        <time>2015-03-01T11:29:01Z</time>
      </trkpt>
      <trkpt lat="47.554090954363346" lon="10.863054553046823">
        <ele>1710.6400000000001</ele>
        <time>2015-03-01T11:29:16Z</time>
      </trkpt>
      <trkpt lat="47.554089864715934" lon="10.863019013777375">
        <ele>1710.6099999999999</ele>
        <time>2015-03-01T11:29:37Z</time>
      </trkpt>
      <trkpt lat="47.554039154201746" lon="10.862907199189067">
        <ele>1712.420000000000073</ele>
        <time>2015-03-01T11:29:52Z</time>
      </trkpt>
      <trkpt lat="47.553982995450497" lon="10.862798653542995">
        <ele>1714.6099999999999</ele>
        <time>2015-03-01T11:30:07Z</time>
      </trkpt>
      <trkpt lat="47.553947707638144" lon="10.862713996320963">
        <ele>1716.630000000000109</ele>
        <time>2015-03-01T11:30:21Z</time>
      </trkpt>
      <trkpt lat="47.553888447582722" lon="10.862589692696929">
        <ele>1718.599999999999909</ele>
        <time>2015-03-01T11:30:36Z</time>
      </trkpt>
      <trkpt lat="47.553830863907933" lon="10.862504197284579">
        <ele>1722.230000000000018</ele>
        <time>2015-03-01T11:30:50Z</time>
      </trkpt>
      <trkpt lat="47.553821811452508" lon="10.862494893372059">
        <ele>1721.700000000000045</ele>
        <time>2015-03-01T11:31:11Z</time>
      </trkpt>
      <trkpt lat="47.553823823109269" lon="10.862480392679572">
        <ele>1720.319999999999936</ele>
        <time>2015-03-01T11:31:36Z</time>
      </trkpt>
      <trkpt lat="47.55381166934967" lon="10.862463461235166">
        <ele>1721.490000000000009</ele>
        <time>2015-03-01T11:31:50Z</time>
      </trkpt>
      <trkpt lat="47.553774621337652" lon="10.86240160278976">
        <ele>1723.289999999999964</ele>
        <time>2015-03-01T11:32:02Z</time>
      </trkpt>
      <trkpt lat="47.553741596639156" lon="10.862359693273902">
        <ele>1725.490000000000009</ele>
        <time>2015-03-01T11:32:17Z</time>
      </trkpt>
      <trkpt lat="47.553693233057857" lon="10.862342594191432">
        <ele>1727.470000000000027</ele>
        <time>2015-03-01T11:32:29Z</time>
      </trkpt>
      <trkpt lat="47.553674206137657" lon="10.862325495108962">
        <ele>1729.059999999999945</ele>
        <time>2015-03-01T11:32:44Z</time>
      </trkpt>
      <trkpt lat="47.553653251379728" lon="10.862286351621151">
        <ele>1731.049999999999955</ele>
        <time>2015-03-01T11:32:59Z</time>
      </trkpt>
      <trkpt lat="47.553628105670214" lon="10.862247627228498">
        <ele>1732.700000000000045</ele>
        <time>2015-03-01T11:33:11Z</time>
      </trkpt>
      <trkpt lat="47.553607653826475" lon="10.862164227291942">
        <ele>1735.569999999999936</ele>
        <time>2015-03-01T11:33:24Z</time>
      </trkpt>
      <trkpt lat="47.553605223074555" lon="10.862103374674916">
        <ele>1736.769999999999982</ele>
        <time>2015-03-01T11:33:39Z</time>
      </trkpt>
      <trkpt lat="47.55359860137105" lon="10.861997427418828">
        <ele>1739.3900000000001</ele>
        <time>2015-03-01T11:33:53Z</time>
      </trkpt>
      <trkpt lat="47.553590890020132" lon="10.861985608935356">
        <ele>1740.170000000000073</ele>
        <time>2015-03-01T11:33:55Z</time>
      </trkpt>
      <trkpt lat="47.553567001596093" lon="10.861883098259568">
        <ele>1742.339999999999918</ele>
        <time>2015-03-01T11:34:10Z</time>
      </trkpt>
      <trkpt lat="47.553554680198431" lon="10.861814534291625">
        <ele>1743.480000000000018</ele>
        <time>2015-03-01T11:34:25Z</time>
      </trkpt>
      <trkpt lat="47.553505729883909" lon="10.8617536816746">
        <ele>1745</ele>
        <time>2015-03-01T11:34:40Z</time>
      </trkpt>
      <trkpt lat="47.553493995219469" lon="10.861674472689629">
        <ele>1748.329999999999927</ele>
        <time>2015-03-01T11:34:51Z</time>
      </trkpt>
      <trkpt lat="47.553481422364712" lon="10.861638346686959">
        <ele>1751.880000000000109</ele>
        <time>2015-03-01T11:35:04Z</time>
      </trkpt>
      <trkpt lat="47.553479662165046" lon="10.861632646992803">
        <ele>1751.599999999999909</ele>
        <time>2015-03-01T11:35:05Z</time>
      </trkpt>
      <trkpt lat="47.553463904187083" lon="10.861547905951738">
        <ele>1751.259999999999991</ele>
        <time>2015-03-01T11:35:19Z</time>
      </trkpt>
      <trkpt lat="47.553497431799769" lon="10.861473642289639">
        <ele>1753.009999999999991</ele>
        <time>2015-03-01T11:35:35Z</time>
      </trkpt>
      <trkpt lat="47.553592901676893" lon="10.861343471333385">
        <ele>1753.509999999999991</ele>
        <time>2015-03-01T11:35:52Z</time>
      </trkpt>
      <trkpt lat="47.553649144247174" lon="10.861235344782472">
        <ele>1756.819999999999936</ele>
        <time>2015-03-01T11:36:05Z</time>
      </trkpt>
      <trkpt lat="47.553712846711278" lon="10.861150771379471">
        <ele>1760.089999999999918</ele>
        <time>2015-03-01T11:36:18Z</time>
      </trkpt>
      <trkpt lat="47.553730197250843" lon="10.861033089458942">
        <ele>1763.220000000000027</ele>
        <time>2015-03-01T11:36:31Z</time>
      </trkpt>
      <trkpt lat="47.553763389587402" lon="10.860953880473971">
        <ele>1766.829999999999927</ele>
        <time>2015-03-01T11:36:41Z</time>
      </trkpt>
      <trkpt lat="47.553766909986734" lon="10.860948013141751">
        <ele>1766.869999999999891</ele>
        <time>2015-03-01T11:36:42Z</time>
      </trkpt>
      <trkpt lat="47.553768251091242" lon="10.860945666208863">
        <ele>1766.789999999999964</ele>
        <time>2015-03-01T11:36:46Z</time>
      </trkpt>
      <trkpt lat="47.553809490054846" lon="10.860851537436247">
        <ele>1767.660000000000082</ele>
        <time>2015-03-01T11:37:01Z</time>
      </trkpt>
      <trkpt lat="47.553835390135646" lon="10.860791271552444">
        <ele>1770.730000000000018</ele>
        <time>2015-03-01T11:37:09Z</time>
      </trkpt>
      <trkpt lat="47.553887274116278" lon="10.860718265175819">
        <ele>1773.769999999999982</ele>
        <time>2015-03-01T11:37:20Z</time>
      </trkpt>
      <trkpt lat="47.553941840305924" lon="10.860680798068643">
        <ele>1774.970000000000027</ele>
        <time>2015-03-01T11:37:33Z</time>
      </trkpt>
      <trkpt lat="47.553955838084221" lon="10.860668560490012">
        <ele>1774.190000000000055</ele>
        <time>2015-03-01T11:38:00Z</time>
      </trkpt>
      <trkpt lat="47.553984839469194" lon="10.860635032877326">
        <ele>1773.490000000000009</ele>
        <time>2015-03-01T11:38:46Z</time>
      </trkpt>
      <trkpt lat="47.55409263074398" lon="10.860564708709717">
        <ele>1771.299999999999955</ele>
        <time>2015-03-01T11:38:59Z</time>
      </trkpt>
      <trkpt lat="47.554201763123274" lon="10.860477536916733">
        <ele>1769.710000000000036</ele>
        <time>2015-03-01T11:39:10Z</time>
      </trkpt>
      <trkpt lat="47.554238475859165" lon="10.860439566895366">
        <ele>1769.099999999999909</ele>
        <time>2015-03-01T11:39:16Z</time>
      </trkpt>
      <trkpt lat="47.55427535623312" lon="10.860344180837274">
        <ele>1768.380000000000109</ele>
        <time>2015-03-01T11:39:20Z</time>
      </trkpt>
      <trkpt lat="47.554320450872183" lon="10.86021451279521">
        <ele>1766.119999999999891</ele>
        <time>2015-03-01T11:39:23Z</time>
      </trkpt>
      <trkpt lat="47.554351966828108" lon="10.860161371529102">
        <ele>1766.079999999999927</ele>
        <time>2015-03-01T11:39:31Z</time>
      </trkpt>
      <trkpt lat="47.554396474733949" lon="10.860125999897718">
        <ele>1769.369999999999891</ele>
        <time>2015-03-01T11:39:41Z</time>
      </trkpt>
      <trkpt lat="47.554430169984698" lon="10.860093981027603">
        <ele>1771.660000000000082</ele>
        <time>2015-03-01T11:39:48Z</time>
      </trkpt>
      <trkpt lat="47.554484065622091" lon="10.860032290220261">
        <ele>1774.680000000000064</ele>
        <time>2015-03-01T11:40:00Z</time>
      </trkpt>
      <trkpt lat="47.554537374526262" lon="10.85995995439589">
        <ele>1775.069999999999936</ele>
        <time>2015-03-01T11:40:12Z</time>
      </trkpt>
      <trkpt lat="47.554596131667495" lon="10.859915697947145">
        <ele>1777</ele>
        <time>2015-03-01T11:40:23Z</time>
      </trkpt>
      <trkpt lat="47.55467458628118" lon="10.859947465360165">
        <ele>1777.720000000000027</ele>
        <time>2015-03-01T11:40:36Z</time>
      </trkpt>
      <trkpt lat="47.554717250168324" lon="10.859958361834288">
        <ele>1776.910000000000082</ele>
        <time>2015-03-01T11:40:47Z</time>
      </trkpt>
      <trkpt lat="47.554731667041779" lon="10.859981412068009">
        <ele>1775.470000000000027</ele>
        <time>2015-03-01T11:41:05Z</time>
      </trkpt>
      <trkpt lat="47.554764440283179" lon="10.859990799799562">
        <ele>1774.960000000000036</ele>
        <time>2015-03-01T11:41:25Z</time>
      </trkpt>
      <trkpt lat="47.554774833843112" lon="10.859987949952483">
        <ele>1775.1400000000001</ele>
        <time>2015-03-01T11:42:15Z</time>
      </trkpt>
      <trkpt lat="47.554767541587353" lon="10.859973533079028">
        <ele>1774.769999999999982</ele>
        <time>2015-03-01T11:43:03Z</time>
      </trkpt>
      <trkpt lat="47.554778270423412" lon="10.859968420118093">
        <ele>1774.269999999999982</ele>
        <time>2015-03-01T11:43:56Z</time>
      </trkpt>
      <trkpt lat="47.554784389212728" lon="10.859990883618593">
        <ele>1774.460000000000036</ele>
        <time>2015-03-01T11:45:18Z</time>
      </trkpt>
      <trkpt lat="47.554790424183011" lon="10.859982334077358">
        <ele>1774.25</ele>
        <time>2015-03-01T11:46:36Z</time>
      </trkpt>
      <trkpt lat="47.554787993431091" lon="10.859952745959163">
        <ele>1773.470000000000027</ele>
        <time>2015-03-01T11:47:23Z</time>
      </trkpt>
      <trkpt lat="47.554788747802377" lon="10.859962301328778">
        <ele>1773.089999999999918</ele>
        <time>2015-03-01T11:48:27Z</time>
      </trkpt>
      <trkpt lat="47.554780282080173" lon="10.860002366825938">
        <ele>1773.210000000000036</ele>
        <time>2015-03-01T11:48:52Z</time>
      </trkpt>
      <trkpt lat="47.554774666205049" lon="10.860005803406239">
        <ele>1772.829999999999927</ele>
        <time>2015-03-01T11:49:14Z</time>
      </trkpt>
      <trkpt lat="47.554771732538939" lon="10.860008401796222">
        <ele>1773.150000000000091</ele>
        <time>2015-03-01T11:49:39Z</time>
      </trkpt>
      <trkpt lat="47.554774330928922" lon="10.860016867518425">
        <ele>1774.089999999999918</ele>
        <time>2015-03-01T11:50:01Z</time>
      </trkpt>
      <trkpt lat="47.554772738367319" lon="10.860024159774184">
        <ele>1774.900000000000091</ele>
        <time>2015-03-01T11:50:12Z</time>
      </trkpt>
      <trkpt lat="47.554758070036769" lon="10.860005971044302">
        <ele>1773.509999999999991</ele>
        <time>2015-03-01T11:50:30Z</time>
      </trkpt>
      <trkpt lat="47.554767122492194" lon="10.860011586919427">
        <ele>1773.970000000000027</ele>
        <time>2015-03-01T11:50:42Z</time>
      </trkpt>
      <trkpt lat="47.554753459990025" lon="10.860020387917757">
        <ele>1773.420000000000073</ele>
        <time>2015-03-01T11:51:01Z</time>
      </trkpt>
      <trkpt lat="47.5547547172755" lon="10.860021226108074">
        <ele>1773.210000000000036</ele>
        <time>2015-03-01T11:51:26Z</time>
      </trkpt>
      <trkpt lat="47.554699648171663" lon="10.860015610232949">
        <ele>1772.8900000000001</ele>
        <time>2015-03-01T11:51:37Z</time>
      </trkpt>
      <trkpt lat="47.554641729220748" lon="10.86000488139689">
        <ele>1772.319999999999936</ele>
        <time>2015-03-01T11:51:43Z</time>
      </trkpt>
      <trkpt lat="47.554542906582355" lon="10.860030027106404">
        <ele>1770.650000000000091</ele>
        <time>2015-03-01T11:51:54Z</time>
      </trkpt>
      <trkpt lat="47.554504182189703" lon="10.860067997127771">
        <ele>1770.049999999999955</ele>
        <time>2015-03-01T11:51:57Z</time>
      </trkpt>
      <trkpt lat="47.554446179419756" lon="10.860131531953812">
        <ele>1768.5</ele>
        <time>2015-03-01T11:52:00Z</time>
      </trkpt>
      <trkpt lat="47.554366635158658" lon="10.860188947990537">
        <ele>1765.230000000000018</ele>
        <time>2015-03-01T11:52:02Z</time>
      </trkpt>
      <trkpt lat="47.554253060370684" lon="10.860246028751135">
        <ele>1762.8599999999999</ele>
        <time>2015-03-01T11:52:05Z</time>
      </trkpt>
      <trkpt lat="47.554194973781705" lon="10.860299253836274">
        <ele>1763.6400000000001</ele>
        <time>2015-03-01T11:52:16Z</time>
      </trkpt>
      <trkpt lat="47.554204110056162" lon="10.860368572175503">
        <ele>1766.789999999999964</ele>
        <time>2015-03-01T11:52:26Z</time>
      </trkpt>
      <trkpt lat="47.55418055690825" lon="10.860441662371159">
        <ele>1765.730000000000018</ele>
        <time>2015-03-01T11:52:34Z</time>
      </trkpt>
      <trkpt lat="47.554098414257169" lon="10.860512992367148">
        <ele>1769.180000000000064</ele>
        <time>2015-03-01T11:52:44Z</time>
      </trkpt>
      <trkpt lat="47.554011661559343" lon="10.860570659860969">
        <ele>1771.769999999999982</ele>
        <time>2015-03-01T11:52:54Z</time>
      </trkpt>
      <trkpt lat="47.553970757871866" lon="10.860592117533088">
        <ele>1772.039999999999964</ele>
        <time>2015-03-01T11:52:58Z</time>
      </trkpt>
      <trkpt lat="47.553963381797075" lon="10.860603600740433">
        <ele>1772.549999999999955</ele>
        <time>2015-03-01T11:52:59Z</time>
      </trkpt>
      <trkpt lat="47.553955083712935" lon="10.860613659024239">
        <ele>1773.019999999999982</ele>
        <time>2015-03-01T11:53:00Z</time>
      </trkpt>
      <trkpt lat="47.553945360705256" lon="10.860615167766809">
        <ele>1773.240000000000009</ele>
        <time>2015-03-01T11:53:01Z</time>
      </trkpt>
      <trkpt lat="47.553934967145324" lon="10.860614413395524">
        <ele>1772.6099999999999</ele>
        <time>2015-03-01T11:53:02Z</time>
      </trkpt>
      <trkpt lat="47.553890040144324" lon="10.860660346224904">
        <ele>1771.710000000000036</ele>
        <time>2015-03-01T11:53:11Z</time>
      </trkpt>
      <trkpt lat="47.553878389298916" lon="10.860669817775488">
        <ele>1770.569999999999936</ele>
        <time>2015-03-01T11:53:12Z</time>
      </trkpt>
      <trkpt lat="47.553866235539317" lon="10.860685659572482">
        <ele>1770.269999999999982</ele>
        <time>2015-03-01T11:53:13Z</time>
      </trkpt>
      <trkpt lat="47.55385315977037" lon="10.86069923825562">
        <ele>1760.710000000000036</ele>
        <time>2015-03-01T11:53:15Z</time>
      </trkpt>
      <trkpt lat="47.553861541673541" lon="10.860696556046605">
        <ele>1769.069999999999936</ele>
        <time>2015-03-01T11:53:16Z</time>
      </trkpt>
      <trkpt lat="47.553864810615778" lon="10.860705859959126">
        <ele>1769.049999999999955</ele>
        <time>2015-03-01T11:53:33Z</time>
      </trkpt>
      <trkpt lat="47.553821727633476" lon="10.860722037032247">
        <ele>1774.1099999999999</ele>
        <time>2015-03-01T11:53:51Z</time>
      </trkpt>
      <trkpt lat="47.553824912756681" lon="10.860723629593849">
        <ele>1770.240000000000009</ele>
        <time>2015-03-01T11:53:52Z</time>
      </trkpt>
      <trkpt lat="47.553826337680221" lon="10.860723210498691">
        <ele>1768.589999999999918</ele>
        <time>2015-03-01T11:53:54Z</time>
      </trkpt>
      <trkpt lat="47.553841676563025" lon="10.860731676220894">
        <ele>1768.3599999999999</ele>
        <time>2015-03-01T11:54:10Z</time>
      </trkpt>
      <trkpt lat="47.553865481168032" lon="10.86072807200253">
        <ele>1767.119999999999891</ele>
        <time>2015-03-01T11:54:26Z</time>
      </trkpt>
      <trkpt lat="47.553877215832472" lon="10.860724216327071">
        <ele>1768.119999999999891</ele>
        <time>2015-03-01T11:54:53Z</time>
      </trkpt>
      <trkpt lat="47.55387956276536" lon="10.86072706617415">
        <ele>1768.319999999999936</ele>
        <time>2015-03-01T11:54:54Z</time>
      </trkpt>
      <trkpt lat="47.553892806172371" lon="10.860753636807203">
        <ele>1768.569999999999936</ele>
        <time>2015-03-01T11:55:23Z</time>
      </trkpt>
      <trkpt lat="47.553896075114608" lon="10.860787499696016">
        <ele>1767.630000000000109</ele>
        <time>2015-03-01T11:55:51Z</time>
      </trkpt>
      <trkpt lat="47.553892303258181" lon="10.860786158591509">
        <ele>1766.349999999999909</ele>
        <time>2015-03-01T11:56:19Z</time>
      </trkpt>
      <trkpt lat="47.553890459239483" lon="10.860754810273647">
        <ele>1767.079999999999927</ele>
        <time>2015-03-01T11:56:44Z</time>
      </trkpt>
      <trkpt lat="47.553890543058515" lon="10.860726982355118">
        <ele>1766.799999999999955</ele>
        <time>2015-03-01T11:57:02Z</time>
      </trkpt>
      <trkpt lat="47.553893812000751" lon="10.860723545774817">
        <ele>1767.160000000000082</ele>
        <time>2015-03-01T11:57:16Z</time>
      </trkpt>
      <trkpt lat="47.553890459239483" lon="10.860728994011879">
        <ele>1766.6099999999999</ele>
        <time>2015-03-01T11:57:32Z</time>
      </trkpt>
      <trkpt lat="47.5538878608495" lon="10.860745422542095">
        <ele>1766.259999999999991</ele>
        <time>2015-03-01T11:57:56Z</time>
      </trkpt>
      <trkpt lat="47.553894398733974" lon="10.860759085044265">
        <ele>1766.549999999999955</ele>
        <time>2015-03-01T11:58:24Z</time>
      </trkpt>
      <trkpt lat="47.553906971588731" lon="10.860761515796185">
        <ele>1766.470000000000027</ele>
        <time>2015-03-01T11:58:47Z</time>
      </trkpt>
      <trkpt lat="47.553902864456177" lon="10.860748272389174">
        <ele>1767.319999999999936</ele>
        <time>2015-03-01T11:59:02Z</time>
      </trkpt>
      <trkpt lat="47.553903199732304" lon="10.860743243247271">
        <ele>1767.579999999999927</ele>
        <time>2015-03-01T11:59:16Z</time>
      </trkpt>
      <trkpt lat="47.553897332400084" lon="10.860731843858957">
        <ele>1768.710000000000036</ele>
        <time>2015-03-01T11:59:32Z</time>
      </trkpt>
      <trkpt lat="47.553896494209766" lon="10.860729664564133">
        <ele>1765.410000000000082</ele>
        <time>2015-03-01T11:59:33Z</time>
      </trkpt>
      <trkpt lat="47.5538947340101" lon="10.860727820545435">
        <ele>1769.960000000000036</ele>
        <time>2015-03-01T11:59:34Z</time>
      </trkpt>
      <trkpt lat="47.553892470896244" lon="10.860728155821562">
        <ele>1765.240000000000009</ele>
        <time>2015-03-01T11:59:35Z</time>
      </trkpt>
      <trkpt lat="47.553891129791737" lon="10.860723713412881">
        <ele>1769.6099999999999</ele>
        <time>2015-03-01T11:59:36Z</time>
      </trkpt>
      <trkpt lat="47.553888028487563" lon="10.86071977391839">
        <ele>1766.089999999999918</ele>
        <time>2015-03-01T11:59:37Z</time>
      </trkpt>
      <trkpt lat="47.553880400955677" lon="10.860707117244601">
        <ele>1769.1099999999999</ele>
        <time>2015-03-01T11:59:40Z</time>
      </trkpt>
      <trkpt lat="47.553877718746662" lon="10.860703848302364">
        <ele>1765.619999999999891</ele>
        <time>2015-03-01T11:59:43Z</time>
      </trkpt>
      <trkpt lat="47.553873527795076" lon="10.860700076445937">
        <ele>1768.730000000000018</ele>
        <time>2015-03-01T11:59:45Z</time>
      </trkpt>
      <trkpt lat="47.553886435925961" lon="10.860741147771478">
        <ele>1767.130000000000109</ele>
        <time>2015-03-01T12:00:02Z</time>
      </trkpt>
      <trkpt lat="47.553867995738983" lon="10.860741566866636">
        <ele>1766.6400000000001</ele>
        <time>2015-03-01T12:00:21Z</time>
      </trkpt>
      <trkpt lat="47.553865229710937" lon="10.860744919627905">
        <ele>1767.6099999999999</ele>
        <time>2015-03-01T12:00:23Z</time>
      </trkpt>
      <trkpt lat="47.553861206397414" lon="10.860741985961795">
        <ele>1767</ele>
        <time>2015-03-01T12:00:41Z</time>
      </trkpt>
      <trkpt lat="47.553857350721955" lon="10.860771741718054">
        <ele>1767.279999999999973</ele>
        <time>2015-03-01T12:01:01Z</time>
      </trkpt>
      <trkpt lat="47.553865648806095" lon="10.86079160682857">
        <ele>1767.150000000000091</ele>
        <time>2015-03-01T12:01:21Z</time>
      </trkpt>
      <trkpt lat="47.553884340450168" lon="10.860756821930408">
        <ele>1766.700000000000045</ele>
        <time>2015-03-01T12:01:45Z</time>
      </trkpt>
      <trkpt lat="47.55387419834733" lon="10.860753552988172">
        <ele>1767.269999999999982</ele>
        <time>2015-03-01T12:02:01Z</time>
      </trkpt>
      <trkpt lat="47.553871599957347" lon="10.860780626535416">
        <ele>1767.289999999999964</ele>
        <time>2015-03-01T12:02:17Z</time>
      </trkpt>
      <trkpt lat="47.553861290216446" lon="10.86080526933074">
        <ele>1767.369999999999891</ele>
        <time>2015-03-01T12:02:37Z</time>
      </trkpt>
      <trkpt lat="47.553845616057515" lon="10.860801162198186">
        <ele>1768.180000000000064</ele>
        <time>2015-03-01T12:02:52Z</time>
      </trkpt>
      <trkpt lat="47.553837653249502" lon="10.860766125842929">
        <ele>1768.049999999999955</ele>
        <time>2015-03-01T12:03:09Z</time>
      </trkpt>
      <trkpt lat="47.553845951333642" lon="10.860771909356117">
        <ele>1766.990000000000009</ele>
        <time>2015-03-01T12:03:24Z</time>
      </trkpt>
      <trkpt lat="47.553838575258851" lon="10.860732095316052">
        <ele>1767.740000000000009</ele>
        <time>2015-03-01T12:03:39Z</time>
      </trkpt>
      <trkpt lat="47.553836479783058" lon="10.860722959041595">
        <ele>1769.180000000000064</ele>
        <time>2015-03-01T12:03:41Z</time>
      </trkpt>
      <trkpt lat="47.553859781473875" lon="10.860699824988842">
        <ele>1768.710000000000036</ele>
        <time>2015-03-01T12:04:02Z</time>
      </trkpt>
      <trkpt lat="47.553862212225795" lon="10.860687252134085">
        <ele>1768.1400000000001</ele>
        <time>2015-03-01T12:04:18Z</time>
      </trkpt>
      <trkpt lat="47.553855674341321" lon="10.860705021768808">
        <ele>1769.299999999999955</ele>
        <time>2015-03-01T12:04:37Z</time>
      </trkpt>
      <trkpt lat="47.55387176759541" lon="10.860732682049274">
        <ele>1768.1400000000001</ele>
        <time>2015-03-01T12:04:56Z</time>
      </trkpt>
      <trkpt lat="47.553908647969365" lon="10.860779033973813">
        <ele>1767.029999999999973</ele>
        <time>2015-03-01T12:05:14Z</time>
      </trkpt>
      <trkpt lat="47.553908312693238" lon="10.860792864114046">
        <ele>1766.789999999999964</ele>
        <time>2015-03-01T12:05:15Z</time>
      </trkpt>
      <trkpt lat="47.553863553330302" lon="10.860870899632573">
        <ele>1764.819999999999936</ele>
        <time>2015-03-01T12:05:21Z</time>
      </trkpt>
      <trkpt lat="47.55379356443882" lon="10.860889256000519">
        <ele>1763.160000000000082</ele>
        <time>2015-03-01T12:05:48Z</time>
      </trkpt>
      <trkpt lat="47.553752157837152" lon="10.860936781391501">
        <ele>1762.099999999999909</ele>
        <time>2015-03-01T12:05:49Z</time>
      </trkpt>
      <trkpt lat="47.553697004914284" lon="10.860985144972801">
        <ele>1760.569999999999936</ele>
        <time>2015-03-01T12:05:50Z</time>
      </trkpt>
      <trkpt lat="47.553636403754354" lon="10.861010039225221">
        <ele>1758.809999999999945</ele>
        <time>2015-03-01T12:05:51Z</time>
      </trkpt>
      <trkpt lat="47.553588291630149" lon="10.861047590151429">
        <ele>1756.480000000000018</ele>
        <time>2015-03-01T12:05:52Z</time>
      </trkpt>
      <trkpt lat="47.55356096662581" lon="10.861118165776134">
        <ele>1756.839999999999918</ele>
        <time>2015-03-01T12:05:53Z</time>
      </trkpt>
      <trkpt lat="47.553530959412456" lon="10.861182035878301">
        <ele>1753.660000000000082</ele>
        <time>2015-03-01T12:05:54Z</time>
      </trkpt>
      <trkpt lat="47.553489971905947" lon="10.861220005899668">
        <ele>1752.740000000000009</ele>
        <time>2015-03-01T12:05:55Z</time>
      </trkpt>
      <trkpt lat="47.553450660780072" lon="10.86126166395843">
        <ele>1750.809999999999945</ele>
        <time>2015-03-01T12:05:56Z</time>
      </trkpt>
      <trkpt lat="47.553425431251526" lon="10.861325617879629">
        <ele>1747.960000000000036</ele>
        <time>2015-03-01T12:05:57Z</time>
      </trkpt>
      <trkpt lat="47.553422162309289" lon="10.861393176019192">
        <ele>1747.259999999999991</ele>
        <time>2015-03-01T12:05:58Z</time>
      </trkpt>
      <trkpt lat="47.553432639688253" lon="10.861439863219857">
        <ele>1747.299999999999955</ele>
        <time>2015-03-01T12:05:59Z</time>
      </trkpt>
      <trkpt lat="47.553446721285582" lon="10.861466685310006">
        <ele>1748.1099999999999</ele>
        <time>2015-03-01T12:06:00Z</time>
      </trkpt>
      <trkpt lat="47.553456444293261" lon="10.861477665603161">
        <ele>1748.1400000000001</ele>
        <time>2015-03-01T12:06:01Z</time>
      </trkpt>
      <trkpt lat="47.553476560860872" lon="10.861486298963428">
        <ele>1747.75</ele>
        <time>2015-03-01T12:06:13Z</time>
      </trkpt>
      <trkpt lat="47.553483601659536" lon="10.861504236236215">
        <ele>1746.910000000000082</ele>
        <time>2015-03-01T12:06:24Z</time>
      </trkpt>
      <trkpt lat="47.553491564467549" lon="10.861516306176782">
        <ele>1746.809999999999945</ele>
        <time>2015-03-01T12:06:38Z</time>
      </trkpt>
      <trkpt lat="47.553513776510954" lon="10.861571207642555">
        <ele>1746.730000000000018</ele>
        <time>2015-03-01T12:06:49Z</time>
      </trkpt>
      <trkpt lat="47.553507322445512" lon="10.861744126304984">
        <ele>1742.559999999999945</ele>
        <time>2015-03-01T12:06:53Z</time>
      </trkpt>
      <trkpt lat="47.55349500104785" lon="10.86181134916842">
        <ele>1740.509999999999991</ele>
        <time>2015-03-01T12:06:54Z</time>
      </trkpt>
      <trkpt lat="47.553506903350353" lon="10.861870357766747">
        <ele>1739.079999999999927</ele>
        <time>2015-03-01T12:06:55Z</time>
      </trkpt>
      <trkpt lat="47.553526014089584" lon="10.861898269504309">
        <ele>1739.1099999999999</ele>
        <time>2015-03-01T12:06:56Z</time>
      </trkpt>
      <trkpt lat="47.553536910563707" lon="10.861891815438867">
        <ele>1740.369999999999891</ele>
        <time>2015-03-01T12:06:57Z</time>
      </trkpt>
      <trkpt lat="47.553531713783741" lon="10.86185677908361">
        <ele>1738.039999999999964</ele>
        <time>2015-03-01T12:07:05Z</time>
      </trkpt>
      <trkpt lat="47.553546130657196" lon="10.862047551199794">
        <ele>1734.740000000000009</ele>
        <time>2015-03-01T12:07:09Z</time>
      </trkpt>
      <trkpt lat="47.553551746532321" lon="10.862083006650209">
        <ele>1733.299999999999955</ele>
        <time>2015-03-01T12:07:10Z</time>
      </trkpt>
      <trkpt lat="47.553576054051518" lon="10.862098429352045">
        <ele>1731.730000000000018</ele>
        <time>2015-03-01T12:07:11Z</time>
      </trkpt>
      <trkpt lat="47.553604049608111" lon="10.862118881195784">
        <ele>1732.230000000000018</ele>
        <time>2015-03-01T12:07:12Z</time>
      </trkpt>
      <trkpt lat="47.553614862263203" lon="10.862157270312309">
        <ele>1727.3599999999999</ele>
        <time>2015-03-01T12:07:13Z</time>
      </trkpt>
      <trkpt lat="47.553619891405106" lon="10.862208902835846">
        <ele>1728.819999999999936</ele>
        <time>2015-03-01T12:07:14Z</time>
      </trkpt>
      <trkpt lat="47.553640259429812" lon="10.862251063808799">
        <ele>1726.339999999999918</ele>
        <time>2015-03-01T12:07:15Z</time>
      </trkpt>
      <trkpt lat="47.553666494786739" lon="10.86226724088192">
        <ele>1725.410000000000082</ele>
        <time>2015-03-01T12:07:16Z</time>
      </trkpt>
      <trkpt lat="47.55369046702981" lon="10.862287860363722">
        <ele>1724.940000000000055</ele>
        <time>2015-03-01T12:07:17Z</time>
      </trkpt>
      <trkpt lat="47.553712427616119" lon="10.862310910597444">
        <ele>1723.920000000000073</ele>
        <time>2015-03-01T12:07:18Z</time>
      </trkpt>
      <trkpt lat="47.553749475628138" lon="10.862339157611132">
        <ele>1722.660000000000082</ele>
        <time>2015-03-01T12:07:20Z</time>
      </trkpt>
      <trkpt lat="47.553829271346331" lon="10.86238014511764">
        <ele>1720.279999999999973</ele>
        <time>2015-03-01T12:07:23Z</time>
      </trkpt>
      <trkpt lat="47.553955083712935" lon="10.862493133172393">
        <ele>1717.920000000000073</ele>
        <time>2015-03-01T12:07:26Z</time>
      </trkpt>
      <trkpt lat="47.5539880245924" lon="10.862528504803777">
        <ele>1717.349999999999909</ele>
        <time>2015-03-01T12:07:33Z</time>
      </trkpt>
      <trkpt lat="47.553975787013769" lon="10.862556165084243">
        <ele>1716.880000000000109</ele>
        <time>2015-03-01T12:07:35Z</time>
      </trkpt>
      <trkpt lat="47.553938319906592" lon="10.862571001052856">
        <ele>1715.490000000000009</ele>
        <time>2015-03-01T12:07:37Z</time>
      </trkpt>
      <trkpt lat="47.553923651576042" lon="10.862630680203438">
        <ele>1712.329999999999927</ele>
        <time>2015-03-01T12:07:39Z</time>
      </trkpt>
      <trkpt lat="47.553934715688229" lon="10.862660352140665">
        <ele>1712</ele>
        <time>2015-03-01T12:07:40Z</time>
      </trkpt>
      <trkpt lat="47.553945863619447" lon="10.862683989107609">
        <ele>1711.710000000000036</ele>
        <time>2015-03-01T12:07:41Z</time>
      </trkpt>
      <trkpt lat="47.553943013772368" lon="10.86269773542881">
        <ele>1710.880000000000109</ele>
        <time>2015-03-01T12:07:52Z</time>
      </trkpt>
      <trkpt lat="47.55394016392529" lon="10.862699495628476">
        <ele>1711.839999999999918</ele>
        <time>2015-03-01T12:07:56Z</time>
      </trkpt>
      <trkpt lat="47.553940080106258" lon="10.862697064876556">
        <ele>1711.420000000000073</ele>
        <time>2015-03-01T12:08:10Z</time>
      </trkpt>
      <trkpt lat="47.553956592455506" lon="10.862761437892914">
        <ele>1709.589999999999918</ele>
        <time>2015-03-01T12:08:13Z</time>
      </trkpt>
      <trkpt lat="47.554087014868855" lon="10.863090427592397">
        <ele>1706.039999999999964</ele>
        <time>2015-03-01T12:08:20Z</time>
      </trkpt>
      <trkpt lat="47.554109059274197" lon="10.863147173076868">
        <ele>1705.940000000000055</ele>
        <time>2015-03-01T12:08:21Z</time>
      </trkpt>
      <trkpt lat="47.554184664040804" lon="10.863369712606072">
        <ele>1702.819999999999936</ele>
        <time>2015-03-01T12:08:25Z</time>
      </trkpt>
      <trkpt lat="47.554228836670518" lon="10.863517234101892">
        <ele>1701.1099999999999</ele>
        <time>2015-03-01T12:08:28Z</time>
      </trkpt>
      <trkpt lat="47.554340315982699" lon="10.863773971796036">
        <ele>1699.049999999999955</ele>
        <time>2015-03-01T12:08:39Z</time>
      </trkpt>
      <trkpt lat="47.554428577423096" lon="10.863945130258799">
        <ele>1697.769999999999982</ele>
        <time>2015-03-01T12:08:47Z</time>
      </trkpt>
      <trkpt lat="47.554561346769333" lon="10.864256182685494">
        <ele>1694.6099999999999</ele>
        <time>2015-03-01T12:08:53Z</time>
      </trkpt>
      <trkpt lat="47.554587246850133" lon="10.864319885149598">
        <ele>1694.670000000000073</ele>
        <time>2015-03-01T12:08:54Z</time>
      </trkpt>
      <trkpt lat="47.554788328707218" lon="10.864706290885806">
        <ele>1693.119999999999891</ele>
        <time>2015-03-01T12:09:04Z</time>
      </trkpt>
      <trkpt lat="47.554789250716567" lon="10.864744009450078">
        <ele>1692.809999999999945</ele>
        <time>2015-03-01T12:09:05Z</time>
      </trkpt>
      <trkpt lat="47.554774666205049" lon="10.864790780469775">
        <ele>1692.569999999999936</ele>
        <time>2015-03-01T12:09:06Z</time>
      </trkpt>
      <trkpt lat="47.554749855771661" lon="10.864829421043396">
        <ele>1692.220000000000027</ele>
        <time>2015-03-01T12:09:07Z</time>
      </trkpt>
      <trkpt lat="47.554688164964318" lon="10.86492732167244">
        <ele>1692.049999999999955</ele>
        <time>2015-03-01T12:09:17Z</time>
      </trkpt>
      <trkpt lat="47.554711131379008" lon="10.86500896140933">
        <ele>1691.480000000000018</ele>
        <time>2015-03-01T12:09:25Z</time>
      </trkpt>
      <trkpt lat="47.554715489968657" lon="10.865023713558912">
        <ele>1692.470000000000027</ele>
        <time>2015-03-01T12:09:26Z</time>
      </trkpt>
      <trkpt lat="47.554718758910894" lon="10.865040896460414">
        <ele>1691.980000000000018</ele>
        <time>2015-03-01T12:09:27Z</time>
      </trkpt>
      <trkpt lat="47.554755639284849" lon="10.865222113206983">
        <ele>1691.400000000000091</ele>
        <time>2015-03-01T12:09:41Z</time>
      </trkpt>
      <trkpt lat="47.554762763902545" lon="10.865468541160226">
        <ele>1691.740000000000009</ele>
        <time>2015-03-01T12:09:50Z</time>
      </trkpt>
      <trkpt lat="47.554810708388686" lon="10.865571219474077">
        <ele>1692.700000000000045</ele>
        <time>2015-03-01T12:10:07Z</time>
      </trkpt>
      <trkpt lat="47.554809786379337" lon="10.865565519779921">
        <ele>1693.039999999999964</ele>
        <time>2015-03-01T12:10:34Z</time>
      </trkpt>
      <trkpt lat="47.554871141910553" lon="10.865721758455038">
        <ele>1688.25</ele>
        <time>2015-03-01T12:10:48Z</time>
      </trkpt>
      <trkpt lat="47.554889163002372" lon="10.865755118429661">
        <ele>1689.019999999999982</ele>
        <time>2015-03-01T12:10:49Z</time>
      </trkpt>
      <trkpt lat="47.554896371439099" lon="10.865785628557205">
        <ele>1687.200000000000045</ele>
        <time>2015-03-01T12:10:50Z</time>
      </trkpt>
      <trkpt lat="47.554904082790017" lon="10.865811696276069">
        <ele>1686.410000000000082</ele>
        <time>2015-03-01T12:10:51Z</time>
      </trkpt>
      <trkpt lat="47.554923361167312" lon="10.865827118977904">
        <ele>1685.049999999999955</ele>
        <time>2015-03-01T12:10:52Z</time>
      </trkpt>
      <trkpt lat="47.55496283993125" lon="10.865825023502111">
        <ele>1684.089999999999918</ele>
        <time>2015-03-01T12:10:54Z</time>
      </trkpt>
      <trkpt lat="47.554981950670481" lon="10.865883445367217">
        <ele>1681.3900000000001</ele>
        <time>2015-03-01T12:10:56Z</time>
      </trkpt>
      <trkpt lat="47.554985471069813" lon="10.865923091769218">
        <ele>1678.1099999999999</ele>
        <time>2015-03-01T12:10:57Z</time>
      </trkpt>
      <trkpt lat="47.554993433877826" lon="10.865945806726813">
        <ele>1679.069999999999936</ele>
        <time>2015-03-01T12:10:58Z</time>
      </trkpt>
      <trkpt lat="47.555009527131915" lon="10.865942453965545">
        <ele>1678.529999999999973</ele>
        <time>2015-03-01T12:10:59Z</time>
      </trkpt>
      <trkpt lat="47.555053448304534" lon="10.865932144224644">
        <ele>1674.950000000000045</ele>
        <time>2015-03-01T12:11:01Z</time>
      </trkpt>
      <trkpt lat="47.555105499923229" lon="10.86599450558424">
        <ele>1671.839999999999918</ele>
        <time>2015-03-01T12:11:04Z</time>
      </trkpt>
      <trkpt lat="47.555125365033746" lon="10.866013532504439">
        <ele>1667.970000000000027</ele>
        <time>2015-03-01T12:11:05Z</time>
      </trkpt>
      <trkpt lat="47.555123353376985" lon="10.86605217307806">
        <ele>1669.420000000000073</ele>
        <time>2015-03-01T12:11:06Z</time>
      </trkpt>
      <trkpt lat="47.555124359205365" lon="10.866098022088408">
        <ele>1666.269999999999982</ele>
        <time>2015-03-01T12:11:07Z</time>
      </trkpt>
      <trkpt lat="47.555140955373645" lon="10.866209752857685">
        <ele>1664.440000000000055</ele>
        <time>2015-03-01T12:11:09Z</time>
      </trkpt>
      <trkpt lat="47.555151600390673" lon="10.86634092964232">
        <ele>1661.1400000000001</ele>
        <time>2015-03-01T12:11:11Z</time>
      </trkpt>
      <trkpt lat="47.555144224315882" lon="10.866381917148829">
        <ele>1660.900000000000091</ele>
        <time>2015-03-01T12:11:12Z</time>
      </trkpt>
      <trkpt lat="47.555189318954945" lon="10.866489624604583">
        <ele>1657.269999999999982</ele>
        <time>2015-03-01T12:11:15Z</time>
      </trkpt>
      <trkpt lat="47.55530976690352" lon="10.866741668432951">
        <ele>1652.150000000000091</ele>
        <time>2015-03-01T12:11:18Z</time>
      </trkpt>
      <trkpt lat="47.555556362494826" lon="10.867316583171487">
        <ele>1642.380000000000109</ele>
        <time>2015-03-01T12:11:23Z</time>
      </trkpt>
      <trkpt lat="47.555681085214019" lon="10.867571979761124">
        <ele>1637.25</ele>
        <time>2015-03-01T12:11:25Z</time>
      </trkpt>
      <trkpt lat="47.555799018591642" lon="10.867826119065285">
        <ele>1634.099999999999909</ele>
        <time>2015-03-01T12:11:27Z</time>
      </trkpt>
      <trkpt lat="47.555855931714177" lon="10.867940532043576">
        <ele>1633.150000000000091</ele>
        <time>2015-03-01T12:11:28Z</time>
      </trkpt>
      <trkpt lat="47.556070508435369" lon="10.868286117911339">
        <ele>1628.519999999999982</ele>
        <time>2015-03-01T12:11:32Z</time>
      </trkpt>
      <trkpt lat="47.556227333843708" lon="10.868632541969419">
        <ele>1627.279999999999973</ele>
        <time>2015-03-01T12:11:42Z</time>
      </trkpt>
      <trkpt lat="47.556413998827338" lon="10.868959603831172">
        <ele>1625.809999999999945</ele>
        <time>2015-03-01T12:11:58Z</time>
      </trkpt>
      <trkpt lat="47.556445682421327" lon="10.869026323780417">
        <ele>1626.279999999999973</ele>
        <time>2015-03-01T12:12:04Z</time>
      </trkpt>
      <trkpt lat="47.556487759575248" lon="10.869108298793435">
        <ele>1626.019999999999982</ele>
        <time>2015-03-01T12:12:11Z</time>
      </trkpt>
      <trkpt lat="47.556496728211641" lon="10.86912321858108">
        <ele>1626.089999999999918</ele>
        <time>2015-03-01T12:12:12Z</time>
      </trkpt>
      <trkpt lat="47.556725637987256" lon="10.869394540786743">
        <ele>1622.630000000000109</ele>
        <time>2015-03-01T12:12:23Z</time>
      </trkpt>
      <trkpt lat="47.556864358484745" lon="10.869471654295921">
        <ele>1621.190000000000055</ele>
        <time>2015-03-01T12:12:26Z</time>
      </trkpt>
      <trkpt lat="47.557094357907772" lon="10.869578858837485">
        <ele>1618.069999999999936</ele>
        <time>2015-03-01T12:12:31Z</time>
      </trkpt>
      <trkpt lat="47.557305078953505" lon="10.869638454169035">
        <ele>1615.779999999999973</ele>
        <time>2015-03-01T12:12:35Z</time>
      </trkpt>
      <trkpt lat="47.557343384250998" lon="10.869652703404427">
        <ele>1615.079999999999927</ele>
        <time>2015-03-01T12:12:36Z</time>
      </trkpt>
      <trkpt lat="47.557367524132133" lon="10.869662845507264">
        <ele>1615.1099999999999</ele>
        <time>2015-03-01T12:12:37Z</time>
      </trkpt>
      <trkpt lat="47.557379929348826" lon="10.869672987610102">
        <ele>1614.900000000000091</ele>
        <time>2015-03-01T12:12:38Z</time>
      </trkpt>
      <trkpt lat="47.557469364255667" lon="10.869706515222788">
        <ele>1615.980000000000018</ele>
        <time>2015-03-01T12:12:50Z</time>
      </trkpt>
      <trkpt lat="47.55757019855082" lon="10.869726883247495">
        <ele>1616.349999999999909</ele>
        <time>2015-03-01T12:13:03Z</time>
      </trkpt>
      <trkpt lat="47.557654771953821" lon="10.869757393375039">
        <ele>1616.6400000000001</ele>
        <time>2015-03-01T12:13:17Z</time>
      </trkpt>
      <trkpt lat="47.557725012302399" lon="10.86980139836669">
        <ele>1617.789999999999964</ele>
        <time>2015-03-01T12:13:33Z</time>
      </trkpt>
      <trkpt lat="47.557773040607572" lon="10.869849929586053">
        <ele>1619.529999999999973</ele>
        <time>2015-03-01T12:13:44Z</time>
      </trkpt>
      <trkpt lat="47.557783266529441" lon="10.869873985648155">
        <ele>1619.8599999999999</ele>
        <time>2015-03-01T12:13:48Z</time>
      </trkpt>
      <trkpt lat="47.557823751121759" lon="10.86996266618371">
        <ele>1620.650000000000091</ele>
        <time>2015-03-01T12:14:00Z</time>
      </trkpt>
      <trkpt lat="47.557869013398886" lon="10.870048496872187">
        <ele>1621.75</ele>
        <time>2015-03-01T12:14:14Z</time>
      </trkpt>
      <trkpt lat="47.557916874065995" lon="10.870092669501901">
        <ele>1620.630000000000109</ele>
        <time>2015-03-01T12:14:31Z</time>
      </trkpt>
      <trkpt lat="47.558003459125757" lon="10.870153773576021">
        <ele>1621.220000000000027</ele>
        <time>2015-03-01T12:14:48Z</time>
      </trkpt>
      <trkpt lat="47.558081578463316" lon="10.870230132713914">
        <ele>1619.8900000000001</ele>
        <time>2015-03-01T12:15:01Z</time>
      </trkpt>
      <trkpt lat="47.558136899024248" lon="10.870294841006398">
        <ele>1618.970000000000027</ele>
        <time>2015-03-01T12:15:04Z</time>
      </trkpt>
      <trkpt lat="47.558143939822912" lon="10.870306827127934">
        <ele>1618.289999999999964</ele>
        <time>2015-03-01T12:15:14Z</time>
      </trkpt>
      <trkpt lat="47.558169756084681" lon="10.870273467153311">
        <ele>1618.680000000000064</ele>
        <time>2015-03-01T12:15:28Z</time>
      </trkpt>
      <trkpt lat="47.558189621195197" lon="10.870258966460824">
        <ele>1617.519999999999982</ele>
        <time>2015-03-01T12:15:29Z</time>
      </trkpt>
      <trkpt lat="47.558225328102708" lon="10.870157210156322">
        <ele>1614.329999999999927</ele>
        <time>2015-03-01T12:15:31Z</time>
      </trkpt>
      <trkpt lat="47.558220885694027" lon="10.870105745270848">
        <ele>1613.589999999999918</ele>
        <time>2015-03-01T12:15:32Z</time>
      </trkpt>
      <trkpt lat="47.55824888125062" lon="10.87002762593329">
        <ele>1610.1099999999999</ele>
        <time>2015-03-01T12:15:34Z</time>
      </trkpt>
      <trkpt lat="47.558280481025577" lon="10.870020166039467">
        <ele>1609.910000000000082</ele>
        <time>2015-03-01T12:15:35Z</time>
      </trkpt>
      <trkpt lat="47.558307135477662" lon="10.870008515194058">
        <ele>1605.970000000000027</ele>
        <time>2015-03-01T12:15:36Z</time>
      </trkpt>
      <trkpt lat="47.558318451046944" lon="10.869978005066514">
        <ele>1606.900000000000091</ele>
        <time>2015-03-01T12:15:37Z</time>
      </trkpt>
      <trkpt lat="47.558326916769147" lon="10.869943220168352">
        <ele>1604.170000000000073</ele>
        <time>2015-03-01T12:15:40Z</time>
      </trkpt>
      <trkpt lat="47.558329431340098" lon="10.869985464960337">
        <ele>1605.1400000000001</ele>
        <time>2015-03-01T12:15:58Z</time>
      </trkpt>
      <trkpt lat="47.558334041386843" lon="10.869982279837132">
        <ele>1605.190000000000055</ele>
        <time>2015-03-01T12:16:00Z</time>
      </trkpt>
      <trkpt lat="47.558358432725072" lon="10.869874153286219">
        <ele>1603.509999999999991</ele>
        <time>2015-03-01T12:16:03Z</time>
      </trkpt>
      <trkpt lat="47.558385757729411" lon="10.869726799428463">
        <ele>1601.119999999999891</ele>
        <time>2015-03-01T12:16:06Z</time>
      </trkpt>
      <trkpt lat="47.558436971157789" lon="10.869692685082555">
        <ele>1597.160000000000082</ele>
        <time>2015-03-01T12:16:08Z</time>
      </trkpt>
      <trkpt lat="47.558487178757787" lon="10.869580954313278">
        <ele>1593.940000000000055</ele>
        <time>2015-03-01T12:16:11Z</time>
      </trkpt>
      <trkpt lat="47.558521209284663" lon="10.869542984291911">
        <ele>1589.700000000000045</ele>
        <time>2015-03-01T12:16:12Z</time>
      </trkpt>
      <trkpt lat="47.558564208447933" lon="10.869533009827137">
        <ele>1589.8599999999999</ele>
        <time>2015-03-01T12:16:13Z</time>
      </trkpt>
      <trkpt lat="47.558654733002186" lon="10.869550947099924">
        <ele>1585.470000000000027</ele>
        <time>2015-03-01T12:16:15Z</time>
      </trkpt>
      <trkpt lat="47.55881130695343" lon="10.869545415043831">
        <ele>1581.259999999999991</ele>
        <time>2015-03-01T12:16:19Z</time>
      </trkpt>
      <trkpt lat="47.558860508725047" lon="10.869534770026803">
        <ele>1580.329999999999927</ele>
        <time>2015-03-01T12:16:21Z</time>
      </trkpt>
      <trkpt lat="47.558928318321705" lon="10.869562430307269">
        <ele>1578.960000000000036</ele>
        <time>2015-03-01T12:16:31Z</time>
      </trkpt>
      <trkpt lat="47.558937789872289" lon="10.869605429470539">
        <ele>1579.1400000000001</ele>
        <time>2015-03-01T12:16:53Z</time>
      </trkpt>
      <trkpt lat="47.558932593092322" lon="10.869637029245496">
        <ele>1578.740000000000009</ele>
        <time>2015-03-01T12:17:15Z</time>
      </trkpt>
      <trkpt lat="47.558926641941071" lon="10.869624791666865">
        <ele>1578.380000000000109</ele>
        <time>2015-03-01T12:17:30Z</time>
      </trkpt>
      <trkpt lat="47.558898562565446" lon="10.86967927403748">
        <ele>1576.950000000000045</ele>
        <time>2015-03-01T12:17:54Z</time>
      </trkpt>
      <trkpt lat="47.558903843164444" lon="10.86968120187521">
        <ele>1576.299999999999955</ele>
        <time>2015-03-01T12:18:16Z</time>
      </trkpt>
      <trkpt lat="47.558939047157764" lon="10.869629150256515">
        <ele>1576.529999999999973</ele>
        <time>2015-03-01T12:18:40Z</time>
      </trkpt>
      <trkpt lat="47.558948770165443" lon="10.869589671492577">
        <ele>1576.25</ele>
        <time>2015-03-01T12:19:14Z</time>
      </trkpt>
      <trkpt lat="47.558935526758432" lon="10.869564693421125">
        <ele>1576.059999999999945</ele>
        <time>2015-03-01T12:19:37Z</time>
      </trkpt>
      <trkpt lat="47.558922786265612" lon="10.869546001777053">
        <ele>1576.089999999999918</ele>
        <time>2015-03-01T12:19:56Z</time>
      </trkpt>
      <trkpt lat="47.558923456817865" lon="10.869535692036152">
        <ele>1576.3599999999999</ele>
        <time>2015-03-01T12:20:16Z</time>
      </trkpt>
      <trkpt lat="47.558918511494994" lon="10.869509624317288">
        <ele>1576.25</ele>
        <time>2015-03-01T12:20:35Z</time>
      </trkpt>
      <trkpt lat="47.558921612799168" lon="10.869524460285902">
        <ele>1577.549999999999955</ele>
        <time>2015-03-01T12:20:55Z</time>
      </trkpt>
      <trkpt lat="47.558931251987815" lon="10.869517419487238">
        <ele>1577.099999999999909</ele>
        <time>2015-03-01T12:21:19Z</time>
      </trkpt>
      <trkpt lat="47.558938628062606" lon="10.869547426700592">
        <ele>1577.049999999999955</ele>
        <time>2015-03-01T12:21:39Z</time>
      </trkpt>
      <trkpt lat="47.55893929861486" lon="10.869562849402428">
        <ele>1577.380000000000109</ele>
        <time>2015-03-01T12:21:52Z</time>
      </trkpt>
      <trkpt lat="47.558928653597832" lon="10.86957567371428">
        <ele>1577.769999999999982</ele>
        <time>2015-03-01T12:22:10Z</time>
      </trkpt>
      <trkpt lat="47.558923456817865" lon="10.869570728391409">
        <ele>1577.880000000000109</ele>
        <time>2015-03-01T12:22:29Z</time>
      </trkpt>
      <trkpt lat="47.558913985267282" lon="10.869597550481558">
        <ele>1577.990000000000009</ele>
        <time>2015-03-01T12:22:51Z</time>
      </trkpt>
      <trkpt lat="47.558929910883307" lon="10.86958103813231">
        <ele>1578.240000000000009</ele>
        <time>2015-03-01T12:23:12Z</time>
      </trkpt>
      <trkpt lat="47.558971652761102" lon="10.86960157379508">
        <ele>1578.559999999999945</ele>
        <time>2015-03-01T12:23:30Z</time>
      </trkpt>
      <trkpt lat="47.559065278619528" lon="10.869696959853172">
        <ele>1580.25</ele>
        <time>2015-03-01T12:23:45Z</time>
      </trkpt>
      <trkpt lat="47.559123868122697" lon="10.869734426960349">
        <ele>1582.220000000000027</ele>
        <time>2015-03-01T12:23:56Z</time>
      </trkpt>
      <trkpt lat="47.559220930561423" lon="10.869792932644486">
        <ele>1584.529999999999973</ele>
        <time>2015-03-01T12:24:12Z</time>
      </trkpt>
      <trkpt lat="47.559282956644893" lon="10.869938191026449">
        <ele>1587.160000000000082</ele>
        <time>2015-03-01T12:24:29Z</time>
      </trkpt>
      <trkpt lat="47.559367027133703" lon="10.870107840746641">
        <ele>1590.329999999999927</ele>
        <time>2015-03-01T12:24:45Z</time>
      </trkpt>
      <trkpt lat="47.559447325766087" lon="10.87022015824914">
        <ele>1592.319999999999936</ele>
        <time>2015-03-01T12:25:03Z</time>
      </trkpt>
      <trkpt lat="47.559467190876603" lon="10.870268102735281">
        <ele>1593.819999999999936</ele>
        <time>2015-03-01T12:25:09Z</time>
      </trkpt>
      <trkpt lat="47.559534162282944" lon="10.870413780212402">
        <ele>1596.319999999999936</ele>
        <time>2015-03-01T12:25:26Z</time>
      </trkpt>
      <trkpt lat="47.559609096497297" lon="10.870544537901878">
        <ele>1597.960000000000036</ele>
        <time>2015-03-01T12:25:44Z</time>
      </trkpt>
      <trkpt lat="47.559691239148378" lon="10.870662555098534">
        <ele>1599.779999999999973</ele>
        <time>2015-03-01T12:26:02Z</time>
      </trkpt>
      <trkpt lat="47.559771286323667" lon="10.870700273662806">
        <ele>1603.25</ele>
        <time>2015-03-01T12:26:19Z</time>
      </trkpt>
      <trkpt lat="47.559860050678253" lon="10.870686359703541">
        <ele>1606.089999999999918</ele>
        <time>2015-03-01T12:26:36Z</time>
      </trkpt>
      <trkpt lat="47.559913443401456" lon="10.870680827647448">
        <ele>1609.210000000000036</ele>
        <time>2015-03-01T12:26:49Z</time>
      </trkpt>
      <trkpt lat="47.559973374009132" lon="10.870690550655127">
        <ele>1612.619999999999891</ele>
        <time>2015-03-01T12:27:01Z</time>
      </trkpt>
      <trkpt lat="47.560062054544687" lon="10.870735812932253">
        <ele>1615.680000000000064</ele>
        <time>2015-03-01T12:27:20Z</time>
      </trkpt>
      <trkpt lat="47.560131456702948" lon="10.870810160413384">
        <ele>1618.740000000000009</ele>
        <time>2015-03-01T12:27:36Z</time>
      </trkpt>
      <trkpt lat="47.560179485008121" lon="10.870890207588673">
        <ele>1621.410000000000082</ele>
        <time>2015-03-01T12:27:52Z</time>
      </trkpt>
      <trkpt lat="47.56020094268024" lon="10.870986180379987">
        <ele>1624.019999999999982</ele>
        <time>2015-03-01T12:28:06Z</time>
      </trkpt>
      <trkpt lat="47.560169007629156" lon="10.871090367436409">
        <ele>1626.289999999999964</ele>
        <time>2015-03-01T12:28:23Z</time>
      </trkpt>
      <trkpt lat="47.560138748958707" lon="10.871196063235402">
        <ele>1629.460000000000036</ele>
        <time>2015-03-01T12:28:39Z</time>
      </trkpt>
      <trkpt lat="47.560050236061215" lon="10.871312823146582">
        <ele>1632.490000000000009</ele>
        <time>2015-03-01T12:29:00Z</time>
      </trkpt>
      <trkpt lat="47.560107065364718" lon="10.871336041018367">
        <ele>1634.700000000000045</ele>
        <time>2015-03-01T12:29:17Z</time>
      </trkpt>
      <trkpt lat="47.560106897726655" lon="10.871434360742569">
        <ele>1638.210000000000036</ele>
        <time>2015-03-01T12:29:29Z</time>
      </trkpt>
      <trkpt lat="47.560114609077573" lon="10.871526645496488">
        <ele>1640.930000000000064</ele>
        <time>2015-03-01T12:29:47Z</time>
      </trkpt>
      <trkpt lat="47.560120057314634" lon="10.871599232777953">
        <ele>1643.509999999999991</ele>
        <time>2015-03-01T12:30:03Z</time>
      </trkpt>
      <trkpt lat="47.560086948797107" lon="10.871642986312509">
        <ele>1646.690000000000055</ele>
        <time>2015-03-01T12:30:13Z</time>
      </trkpt>
      <trkpt lat="47.560122990980744" lon="10.871701827272773">
        <ele>1650.240000000000009</ele>
        <time>2015-03-01T12:30:26Z</time>
      </trkpt>
      <trkpt lat="47.560179065912962" lon="10.87178086861968">
        <ele>1652.269999999999982</ele>
        <time>2015-03-01T12:30:44Z</time>
      </trkpt>
      <trkpt lat="47.560195913538337" lon="10.871908692643046">
        <ele>1655.819999999999936</ele>
        <time>2015-03-01T12:31:02Z</time>
      </trkpt>
      <trkpt lat="47.56019557826221" lon="10.871917242184281">
        <ele>1655.990000000000009</ele>
        <time>2015-03-01T12:31:03Z</time>
      </trkpt>
      <trkpt lat="47.560220137238503" lon="10.872035343199968">
        <ele>1658.8599999999999</ele>
        <time>2015-03-01T12:31:20Z</time>
      </trkpt>
      <trkpt lat="47.560258191078901" lon="10.872132824733853">
        <ele>1660.769999999999982</ele>
        <time>2015-03-01T12:31:36Z</time>
      </trkpt>
      <trkpt lat="47.560331448912621" lon="10.872185546904802">
        <ele>1663.849999999999909</ele>
        <time>2015-03-01T12:31:50Z</time>
      </trkpt>
      <trkpt lat="47.56041694432497" lon="10.87213852442801">
        <ele>1667.029999999999973</ele>
        <time>2015-03-01T12:32:06Z</time>
      </trkpt>
      <trkpt lat="47.560461955145001" lon="10.872152354568243">
        <ele>1669.779999999999973</ele>
        <time>2015-03-01T12:32:21Z</time>
      </trkpt>
      <trkpt lat="47.560455584898591" lon="10.872289231047034">
        <ele>1672.450000000000045</ele>
        <time>2015-03-01T12:32:37Z</time>
      </trkpt>
      <trkpt lat="47.560465727001429" lon="10.872322339564562">
        <ele>1674.180000000000064</ele>
        <time>2015-03-01T12:32:43Z</time>
      </trkpt>
      <trkpt lat="47.560560358688235" lon="10.872323429211974">
        <ele>1676.740000000000009</ele>
        <time>2015-03-01T12:32:59Z</time>
      </trkpt>
      <trkpt lat="47.56057670339942" lon="10.872331811115146">
        <ele>1678</ele>
        <time>2015-03-01T12:33:03Z</time>
      </trkpt>
      <trkpt lat="47.560662450268865" lon="10.87243658490479">
        <ele>1679.700000000000045</ele>
        <time>2015-03-01T12:33:20Z</time>
      </trkpt>
      <trkpt lat="47.560644932091236" lon="10.872535156086087">
        <ele>1680.6099999999999</ele>
        <time>2015-03-01T12:33:33Z</time>
      </trkpt>
      <trkpt lat="47.56062020547688" lon="10.872545801103115">
        <ele>1679.789999999999964</ele>
        <time>2015-03-01T12:33:37Z</time>
      </trkpt>
      <trkpt lat="47.560595981776714" lon="10.872544459998608">
        <ele>1680.980000000000018</ele>
        <time>2015-03-01T12:33:39Z</time>
      </trkpt>
      <trkpt lat="47.560488190501928" lon="10.872580166906118">
        <ele>1679.650000000000091</ele>
        <time>2015-03-01T12:33:47Z</time>
      </trkpt>
      <trkpt lat="47.560335220769048" lon="10.87276104837656">
        <ele>1679.380000000000109</ele>
        <time>2015-03-01T12:34:04Z</time>
      </trkpt>
      <trkpt lat="47.560305967926979" lon="10.872865151613951">
        <ele>1678.170000000000073</ele>
        <time>2015-03-01T12:34:07Z</time>
      </trkpt>
      <trkpt lat="47.560335639864206" lon="10.873064305633307">
        <ele>1674.410000000000082</ele>
        <time>2015-03-01T12:34:12Z</time>
      </trkpt>
      <trkpt lat="47.560337316244841" lon="10.873065898194909">
        <ele>1674.1400000000001</ele>
        <time>2015-03-01T12:34:13Z</time>
      </trkpt>
      <trkpt lat="47.560357265174389" lon="10.87305617518723">
        <ele>1673.289999999999964</ele>
        <time>2015-03-01T12:34:35Z</time>
      </trkpt>
      <trkpt lat="47.560344524681568" lon="10.873049637302756">
        <ele>1670.269999999999982</ele>
        <time>2015-03-01T12:34:47Z</time>
      </trkpt>
      <trkpt lat="47.560341507196426" lon="10.873048380017281">
        <ele>1670.6099999999999</ele>
        <time>2015-03-01T12:34:48Z</time>
      </trkpt>
      <trkpt lat="47.560345530509949" lon="10.873048882931471">
        <ele>1674.049999999999955</ele>
        <time>2015-03-01T12:34:54Z</time>
      </trkpt>
      <trkpt lat="47.560346117243171" lon="10.873044775798917">
        <ele>1671.8599999999999</ele>
        <time>2015-03-01T12:34:58Z</time>
      </trkpt>
      <trkpt lat="47.560339579358697" lon="10.873044105246663">
        <ele>1674.869999999999891</ele>
        <time>2015-03-01T12:35:22Z</time>
      </trkpt>
      <trkpt lat="47.560339998453856" lon="10.873043434694409">
        <ele>1674.960000000000036</ele>
        <time>2015-03-01T12:35:23Z</time>
      </trkpt>
      <trkpt lat="47.560335220769048" lon="10.873050391674042">
        <ele>1671.779999999999973</ele>
        <time>2015-03-01T12:35:31Z</time>
      </trkpt>
      <trkpt lat="47.560335639864206" lon="10.873052990064025">
        <ele>1671.920000000000073</ele>
        <time>2015-03-01T12:35:32Z</time>
      </trkpt>
      <trkpt lat="47.560351816937327" lon="10.873027509078383">
        <ele>1673.069999999999936</ele>
        <time>2015-03-01T12:35:42Z</time>
      </trkpt>
      <trkpt lat="47.560357516631484" lon="10.872998675331473">
        <ele>1669.779999999999973</ele>
        <time>2015-03-01T12:35:55Z</time>
      </trkpt>
      <trkpt lat="47.560357600450516" lon="10.872998675331473">
        <ele>1673.480000000000018</ele>
        <time>2015-03-01T12:35:56Z</time>
      </trkpt>
      <trkpt lat="47.560310158878565" lon="10.873032035306096">
        <ele>1672.079999999999927</ele>
        <time>2015-03-01T12:36:20Z</time>
      </trkpt>
      <trkpt lat="47.560300854966044" lon="10.872996160760522">
        <ele>1674.369999999999891</ele>
        <time>2015-03-01T12:36:28Z</time>
      </trkpt>
      <trkpt lat="47.560365227982402" lon="10.872992305085063">
        <ele>1673.309999999999945</ele>
        <time>2015-03-01T12:37:09Z</time>
      </trkpt>
      <trkpt lat="47.560369921848178" lon="10.872985096648335">
        <ele>1674.480000000000018</ele>
        <time>2015-03-01T12:37:30Z</time>
      </trkpt>
      <trkpt lat="47.560369921848178" lon="10.872998926788568">
        <ele>1673.8900000000001</ele>
        <time>2015-03-01T12:38:05Z</time>
      </trkpt>
      <trkpt lat="47.5603705085814" lon="10.873002698644996">
        <ele>1675.75</ele>
        <time>2015-03-01T12:38:12Z</time>
      </trkpt>
      <trkpt lat="47.560382410883904" lon="10.873019294813275">
        <ele>1675.160000000000082</ele>
        <time>2015-03-01T12:38:25Z</time>
      </trkpt>
      <trkpt lat="47.560387440025806" lon="10.873020635917783">
        <ele>1673.990000000000009</ele>
        <time>2015-03-01T12:38:27Z</time>
      </trkpt>
      <trkpt lat="47.560385847464204" lon="10.872993813827634">
        <ele>1672.799999999999955</ele>
        <time>2015-03-01T12:38:31Z</time>
      </trkpt>
      <trkpt lat="47.560348128899932" lon="10.873030610382557">
        <ele>1674.740000000000009</ele>
        <time>2015-03-01T12:38:50Z</time>
      </trkpt>
      <trkpt lat="47.560304794460535" lon="10.873089535161853">
        <ele>1673.910000000000082</ele>
        <time>2015-03-01T12:39:18Z</time>
      </trkpt>
      <trkpt lat="47.56031577475369" lon="10.873080566525459">
        <ele>1675.6400000000001</ele>
        <time>2015-03-01T12:39:28Z</time>
      </trkpt>
      <trkpt lat="47.560330107808113" lon="10.873095402494073">
        <ele>1675.289999999999964</ele>
        <time>2015-03-01T12:39:57Z</time>
      </trkpt>
      <trkpt lat="47.56036564707756" lon="10.873039159923792">
        <ele>1675.6400000000001</ele>
        <time>2015-03-01T12:40:29Z</time>
      </trkpt>
      <trkpt lat="47.560370257124305" lon="10.873043518513441">
        <ele>1676.680000000000064</ele>
        <time>2015-03-01T12:41:08Z</time>
      </trkpt>
      <trkpt lat="47.560356175526977" lon="10.873045111075044">
        <ele>1676.460000000000036</ele>
        <time>2015-03-01T12:41:29Z</time>
      </trkpt>
      <trkpt lat="47.560349134728312" lon="10.873040417209268">
        <ele>1675.980000000000018</ele>
        <time>2015-03-01T12:41:54Z</time>
      </trkpt>
      <trkpt lat="47.560340417549014" lon="10.873062293976545">
        <ele>1676.170000000000073</ele>
        <time>2015-03-01T12:42:18Z</time>
      </trkpt>
      <trkpt lat="47.560351062566042" lon="10.873065730556846">
        <ele>1676.490000000000009</ele>
        <time>2015-03-01T12:42:37Z</time>
      </trkpt>
      <trkpt lat="47.560393810272217" lon="10.873124152421951">
        <ele>1675.289999999999964</ele>
        <time>2015-03-01T12:42:45Z</time>
      </trkpt>
      <trkpt lat="47.560528591275215" lon="10.873197661712766">
        <ele>1669.549999999999955</ele>
        <time>2015-03-01T12:42:49Z</time>
      </trkpt>
      <trkpt lat="47.56059480831027" lon="10.873336801305413">
        <ele>1665.069999999999936</ele>
        <time>2015-03-01T12:42:52Z</time>
      </trkpt>
      <trkpt lat="47.560679549351335" lon="10.873426739126444">
        <ele>1659.900000000000091</ele>
        <time>2015-03-01T12:42:55Z</time>
      </trkpt>
      <trkpt lat="47.560759680345654" lon="10.87350033223629">
        <ele>1654.849999999999909</ele>
        <time>2015-03-01T12:42:58Z</time>
      </trkpt>
      <trkpt lat="47.560811899602413" lon="10.873547522351146">
        <ele>1651.660000000000082</ele>
        <time>2015-03-01T12:43:00Z</time>
      </trkpt>
      <trkpt lat="47.560904854908586" lon="10.873642740771174">
        <ele>1646.940000000000055</ele>
        <time>2015-03-01T12:43:03Z</time>
      </trkpt>
      <trkpt lat="47.56093829870224" lon="10.873693116009235">
        <ele>1646.6400000000001</ele>
        <time>2015-03-01T12:43:04Z</time>
      </trkpt>
      <trkpt lat="47.560991439968348" lon="10.873806606978178">
        <ele>1642.210000000000036</ele>
        <time>2015-03-01T12:43:06Z</time>
      </trkpt>
      <trkpt lat="47.56102186627686" lon="10.873862095177174">
        <ele>1641.279999999999973</ele>
        <time>2015-03-01T12:43:07Z</time>
      </trkpt>
      <trkpt lat="47.561130076646805" lon="10.87403979152441">
        <ele>1636.869999999999891</ele>
        <time>2015-03-01T12:43:11Z</time>
      </trkpt>
      <trkpt lat="47.561165448278189" lon="10.874139033257961">
        <ele>1633.119999999999891</ele>
        <time>2015-03-01T12:43:13Z</time>
      </trkpt>
      <trkpt lat="47.561153043061495" lon="10.87423081509769">
        <ele>1634.009999999999991</ele>
        <time>2015-03-01T12:43:16Z</time>
      </trkpt>
      <trkpt lat="47.561159329488873" lon="10.874272556975484">
        <ele>1633.1099999999999</ele>
        <time>2015-03-01T12:43:17Z</time>
      </trkpt>
      <trkpt lat="47.561196126043797" lon="10.874352855607867">
        <ele>1631.680000000000064</ele>
        <time>2015-03-01T12:43:19Z</time>
      </trkpt>
      <trkpt lat="47.561310287564993" lon="10.874579669907689">
        <ele>1626.509999999999991</ele>
        <time>2015-03-01T12:43:25Z</time>
      </trkpt>
      <trkpt lat="47.561320681124926" lon="10.874621160328388">
        <ele>1626.3900000000001</ele>
        <time>2015-03-01T12:43:26Z</time>
      </trkpt>
      <trkpt lat="47.561314478516579" lon="10.874771364033222">
        <ele>1622.509999999999991</ele>
        <time>2015-03-01T12:43:29Z</time>
      </trkpt>
      <trkpt lat="47.561290338635445" lon="10.874943947419524">
        <ele>1618.309999999999945</ele>
        <time>2015-03-01T12:43:32Z</time>
      </trkpt>
      <trkpt lat="47.56129402667284" lon="10.875015193596482">
        <ele>1617.339999999999918</ele>
        <time>2015-03-01T12:43:33Z</time>
      </trkpt>
      <trkpt lat="47.561294781044126" lon="10.875088535249233">
        <ele>1615.539999999999964</ele>
        <time>2015-03-01T12:43:34Z</time>
      </trkpt>
      <trkpt lat="47.56128765642643" lon="10.875167995691299">
        <ele>1613.410000000000082</ele>
        <time>2015-03-01T12:43:35Z</time>
      </trkpt>
      <trkpt lat="47.561278268694878" lon="10.875250808894634">
        <ele>1611.049999999999955</ele>
        <time>2015-03-01T12:43:36Z</time>
      </trkpt>
      <trkpt lat="47.561264270916581" lon="10.875328928232193">
        <ele>1608.059999999999945</ele>
        <time>2015-03-01T12:43:37Z</time>
      </trkpt>
      <trkpt lat="47.561247507110238" lon="10.875390786677599">
        <ele>1605.910000000000082</ele>
        <time>2015-03-01T12:43:38Z</time>
      </trkpt>
      <trkpt lat="47.561239460483193" lon="10.875415010377765">
        <ele>1605.470000000000027</ele>
        <time>2015-03-01T12:43:39Z</time>
      </trkpt>
      <trkpt lat="47.561243902891874" lon="10.875408388674259">
        <ele>1605.809999999999945</ele>
        <time>2015-03-01T12:43:50Z</time>
      </trkpt>
      <trkpt lat="47.561248848214746" lon="10.875441497191787">
        <ele>1605.569999999999936</ele>
        <time>2015-03-01T12:44:13Z</time>
      </trkpt>
      <trkpt lat="47.561267791315913" lon="10.875469408929348">
        <ele>1604.680000000000064</ele>
        <time>2015-03-01T12:44:14Z</time>
      </trkpt>
      <trkpt lat="47.561302073299885" lon="10.875490866601467">
        <ele>1602.880000000000109</ele>
        <time>2015-03-01T12:44:15Z</time>
      </trkpt>
      <trkpt lat="47.561373570933938" lon="10.875529926270247">
        <ele>1598.920000000000073</ele>
        <time>2015-03-01T12:44:17Z</time>
      </trkpt>
      <trkpt lat="47.56139175966382" lon="10.8755823969841">
        <ele>1598.259999999999991</ele>
        <time>2015-03-01T12:44:18Z</time>
      </trkpt>
      <trkpt lat="47.561412043869495" lon="10.875640986487269">
        <ele>1594.049999999999955</ele>
        <time>2015-03-01T12:44:19Z</time>
      </trkpt>
      <trkpt lat="47.561449008062482" lon="10.875691780820489">
        <ele>1592.75</ele>
        <time>2015-03-01T12:44:20Z</time>
      </trkpt>
      <trkpt lat="47.561572724953294" lon="10.875814408063889">
        <ele>1587.319999999999936</ele>
        <time>2015-03-01T12:44:23Z</time>
      </trkpt>
      <trkpt lat="47.561634918674827" lon="10.875895628705621">
        <ele>1585.150000000000091</ele>
        <time>2015-03-01T12:44:25Z</time>
      </trkpt>
      <trkpt lat="47.561662998050451" lon="10.87600308470428">
        <ele>1582.539999999999964</ele>
        <time>2015-03-01T12:44:27Z</time>
      </trkpt>
      <trkpt lat="47.561725694686174" lon="10.876112719997764">
        <ele>1576.440000000000055</ele>
        <time>2015-03-01T12:44:30Z</time>
      </trkpt>
      <trkpt lat="47.561708344146609" lon="10.876137614250183">
        <ele>1577.619999999999891</ele>
        <time>2015-03-01T12:44:38Z</time>
      </trkpt>
      <trkpt lat="47.561728125438094" lon="10.87612428702414">
        <ele>1577.230000000000018</ele>
        <time>2015-03-01T12:44:55Z</time>
      </trkpt>
      <trkpt lat="47.561730975285172" lon="10.876126633957028">
        <ele>1577.329999999999927</ele>
        <time>2015-03-01T12:44:56Z</time>
      </trkpt>
      <trkpt lat="47.561759976670146" lon="10.876170974224806">
        <ele>1576.200000000000045</ele>
        <time>2015-03-01T12:44:59Z</time>
      </trkpt>
      <trkpt lat="47.561849914491177" lon="10.876335008069873">
        <ele>1573.289999999999964</ele>
        <time>2015-03-01T12:45:05Z</time>
      </trkpt>
      <trkpt lat="47.561919568106532" lon="10.876467609778047">
        <ele>1569.789999999999964</ele>
        <time>2015-03-01T12:45:08Z</time>
      </trkpt>
      <trkpt lat="47.562007578089833" lon="10.876615550369024">
        <ele>1566.009999999999991</ele>
        <time>2015-03-01T12:45:11Z</time>
      </trkpt>
      <trkpt lat="47.562042195349932" lon="10.87680833414197">
        <ele>1560.329999999999927</ele>
        <time>2015-03-01T12:45:14Z</time>
      </trkpt>
      <trkpt lat="47.562089636921883" lon="10.876952335238457">
        <ele>1557.220000000000027</ele>
        <time>2015-03-01T12:45:17Z</time>
      </trkpt>
      <trkpt lat="47.562102125957608" lon="10.877000615000725">
        <ele>1557.470000000000027</ele>
        <time>2015-03-01T12:45:18Z</time>
      </trkpt>
      <trkpt lat="47.562097599729896" lon="10.877044703811407">
        <ele>1554.980000000000018</ele>
        <time>2015-03-01T12:45:19Z</time>
      </trkpt>
      <trkpt lat="47.562054600566626" lon="10.877129025757313">
        <ele>1549.599999999999909</ele>
        <time>2015-03-01T12:45:21Z</time>
      </trkpt>
      <trkpt lat="47.562042949721217" lon="10.877140592783689">
        <ele>1549.720000000000027</ele>
        <time>2015-03-01T12:45:22Z</time>
      </trkpt>
      <trkpt lat="47.562032975256443" lon="10.87710983119905">
        <ele>1550.470000000000027</ele>
        <time>2015-03-01T12:45:37Z</time>
      </trkpt>
      <trkpt lat="47.562033142894506" lon="10.877248048782349">
        <ele>1546.990000000000009</ele>
        <time>2015-03-01T12:45:53Z</time>
      </trkpt>
      <trkpt lat="47.562079494819045" lon="10.877414597198367">
        <ele>1542.220000000000027</ele>
        <time>2015-03-01T12:45:56Z</time>
      </trkpt>
      <trkpt lat="47.562101790681481" lon="10.877465391531587">
        <ele>1541.950000000000045</ele>
        <time>2015-03-01T12:45:57Z</time>
      </trkpt>
      <trkpt lat="47.56217697635293" lon="10.877574691548944">
        <ele>1539.440000000000055</ele>
        <time>2015-03-01T12:46:00Z</time>
      </trkpt>
      <trkpt lat="47.562192650511861" lon="10.877750040963292">
        <ele>1534.960000000000036</ele>
        <time>2015-03-01T12:46:03Z</time>
      </trkpt>
      <trkpt lat="47.562183514237404" lon="10.877818772569299">
        <ele>1532.819999999999936</ele>
        <time>2015-03-01T12:46:04Z</time>
      </trkpt>
      <trkpt lat="47.562156273052096" lon="10.877995295450091">
        <ele>1527.529999999999973</ele>
        <time>2015-03-01T12:46:07Z</time>
      </trkpt>
      <trkpt lat="47.562129199504852" lon="10.878085820004344">
        <ele>1522.990000000000009</ele>
        <time>2015-03-01T12:46:09Z</time>
      </trkpt>
      <trkpt lat="47.562102964147925" lon="10.878075510263443">
        <ele>1523.1099999999999</ele>
        <time>2015-03-01T12:46:19Z</time>
      </trkpt>
      <trkpt lat="47.562090894207358" lon="10.878081126138568">
        <ele>1522.900000000000091</ele>
        <time>2015-03-01T12:46:33Z</time>
      </trkpt>
      <trkpt lat="47.562127858400345" lon="10.878260331228375">
        <ele>1519.579999999999927</ele>
        <time>2015-03-01T12:46:39Z</time>
      </trkpt>
      <trkpt lat="47.562135150656104" lon="10.878321938216686">
        <ele>1519.460000000000036</ele>
        <time>2015-03-01T12:46:40Z</time>
      </trkpt>
      <trkpt lat="47.562159290537238" lon="10.878450097516179">
        <ele>1514.519999999999982</ele>
        <time>2015-03-01T12:46:42Z</time>
      </trkpt>
      <trkpt lat="47.56218183785677" lon="10.878618070855737">
        <ele>1511.1099999999999</ele>
        <time>2015-03-01T12:46:45Z</time>
      </trkpt>
      <trkpt lat="47.562207402661443" lon="10.87879316881299">
        <ele>1507.3900000000001</ele>
        <time>2015-03-01T12:46:48Z</time>
      </trkpt>
      <trkpt lat="47.562208073213696" lon="10.878918394446373">
        <ele>1503.720000000000027</ele>
        <time>2015-03-01T12:46:50Z</time>
      </trkpt>
      <trkpt lat="47.562128780409694" lon="10.879077985882759">
        <ele>1500.019999999999982</ele>
        <time>2015-03-01T12:46:54Z</time>
      </trkpt>
      <trkpt lat="47.562103718519211" lon="10.879227770492435">
        <ele>1497.690000000000055</ele>
        <time>2015-03-01T12:46:57Z</time>
      </trkpt>
      <trkpt lat="47.562118554487824" lon="10.87946992367506">
        <ele>1493.259999999999991</ele>
        <time>2015-03-01T12:47:01Z</time>
      </trkpt>
      <trkpt lat="47.562108244746923" lon="10.879633706063032">
        <ele>1489.690000000000055</ele>
        <time>2015-03-01T12:47:04Z</time>
      </trkpt>
      <trkpt lat="47.562102042138577" lon="10.879790615290403">
        <ele>1486.480000000000018</ele>
        <time>2015-03-01T12:47:08Z</time>
      </trkpt>
      <trkpt lat="47.562112184241414" lon="10.879915338009596">
        <ele>1485.430000000000064</ele>
        <time>2015-03-01T12:47:12Z</time>
      </trkpt>
      <trkpt lat="47.562135066837072" lon="10.88015547953546">
        <ele>1481.769999999999982</ele>
        <time>2015-03-01T12:47:17Z</time>
      </trkpt>
      <trkpt lat="47.562143029645085" lon="10.880314232781529">
        <ele>1478.339999999999918</ele>
        <time>2015-03-01T12:47:20Z</time>
      </trkpt>
      <trkpt lat="47.56215451285243" lon="10.880482709035277">
        <ele>1474.210000000000036</ele>
        <time>2015-03-01T12:47:23Z</time>
      </trkpt>
      <trkpt lat="47.562160715460777" lon="10.880647748708725">
        <ele>1471.150000000000091</ele>
        <time>2015-03-01T12:47:26Z</time>
      </trkpt>
      <trkpt lat="47.562157362699509" lon="10.880851009860635">
        <ele>1467.869999999999891</ele>
        <time>2015-03-01T12:47:31Z</time>
      </trkpt>
      <trkpt lat="47.562153255566955" lon="10.880897948518395">
        <ele>1467.619999999999891</ele>
        <time>2015-03-01T12:47:32Z</time>
      </trkpt>
      <trkpt lat="47.562129786238074" lon="10.881068101152778">
        <ele>1463.579999999999927</ele>
        <time>2015-03-01T12:47:35Z</time>
      </trkpt>
      <trkpt lat="47.562123667448759" lon="10.881113950163126">
        <ele>1463.3599999999999</ele>
        <time>2015-03-01T12:47:36Z</time>
      </trkpt>
      <trkpt lat="47.562173036858439" lon="10.8812949154526">
        <ele>1460.059999999999945</ele>
        <time>2015-03-01T12:47:40Z</time>
      </trkpt>
      <trkpt lat="47.562188291922212" lon="10.881356941536069">
        <ele>1460.299999999999955</ele>
        <time>2015-03-01T12:47:41Z</time>
      </trkpt>
      <trkpt lat="47.562206061556935" lon="10.881527261808515">
        <ele>1456.450000000000045</ele>
        <time>2015-03-01T12:47:44Z</time>
      </trkpt>
      <trkpt lat="47.562211258336902" lon="10.881634969264269">
        <ele>1455.289999999999964</ele>
        <time>2015-03-01T12:47:46Z</time>
      </trkpt>
      <trkpt lat="47.562268925830722" lon="10.881875697523355">
        <ele>1450.619999999999891</ele>
        <time>2015-03-01T12:47:51Z</time>
      </trkpt>
      <trkpt lat="47.562295747920871" lon="10.881992373615503">
        <ele>1446.910000000000082</ele>
        <time>2015-03-01T12:47:53Z</time>
      </trkpt>
      <trkpt lat="47.562305135652423" lon="10.882028499618173">
        <ele>1447.089999999999918</ele>
        <time>2015-03-01T12:47:54Z</time>
      </trkpt>
      <trkpt lat="47.562295077368617" lon="10.882056411355734">
        <ele>1447.509999999999991</ele>
        <time>2015-03-01T12:48:04Z</time>
      </trkpt>
      <trkpt lat="47.562313936650753" lon="10.882089016959071">
        <ele>1446.950000000000045</ele>
        <time>2015-03-01T12:48:13Z</time>
      </trkpt>
      <trkpt lat="47.562314858660102" lon="10.882191443815827">
        <ele>1444.3599999999999</ele>
        <time>2015-03-01T12:48:16Z</time>
      </trkpt>
      <trkpt lat="47.562304884195328" lon="10.882228994742036">
        <ele>1443.549999999999955</ele>
        <time>2015-03-01T12:48:17Z</time>
      </trkpt>
      <trkpt lat="47.56228594109416" lon="10.882318178191781">
        <ele>1441.779999999999973</ele>
        <time>2015-03-01T12:48:25Z</time>
      </trkpt>
      <trkpt lat="47.562279319390655" lon="10.88249646127224">
        <ele>1438.1099999999999</ele>
        <time>2015-03-01T12:48:29Z</time>
      </trkpt>
      <trkpt lat="47.562286611646414" lon="10.882774908095598">
        <ele>1435.1099999999999</ele>
        <time>2015-03-01T12:48:35Z</time>
      </trkpt>
      <trkpt lat="47.562283175066113" lon="10.882836934179068">
        <ele>1434.480000000000018</ele>
        <time>2015-03-01T12:48:36Z</time>
      </trkpt>
      <trkpt lat="47.56228250451386" lon="10.882903570309281">
        <ele>1433.470000000000027</ele>
        <time>2015-03-01T12:48:37Z</time>
      </trkpt>
      <trkpt lat="47.562288204208016" lon="10.882966853678226">
        <ele>1432.420000000000073</ele>
        <time>2015-03-01T12:48:38Z</time>
      </trkpt>
      <trkpt lat="47.56229960359633" lon="10.883066765964031">
        <ele>1430.369999999999891</ele>
        <time>2015-03-01T12:48:40Z</time>
      </trkpt>
      <trkpt lat="47.562303794547915" lon="10.883266590535641">
        <ele>1428.009999999999991</ele>
        <time>2015-03-01T12:48:44Z</time>
      </trkpt>
      <trkpt lat="47.562295161187649" lon="10.88332861661911">
        <ele>1426.519999999999982</ele>
        <time>2015-03-01T12:48:46Z</time>
      </trkpt>
      <trkpt lat="47.562213437631726" lon="10.883449986577034">
        <ele>1425.170000000000073</ele>
        <time>2015-03-01T12:48:56Z</time>
      </trkpt>
      <trkpt lat="47.562194662168622" lon="10.883480748161674">
        <ele>1424.970000000000027</ele>
        <time>2015-03-01T12:48:57Z</time>
      </trkpt>
      <trkpt lat="47.562178149819374" lon="10.883508576080203">
        <ele>1424.710000000000036</ele>
        <time>2015-03-01T12:48:58Z</time>
      </trkpt>
      <trkpt lat="47.562151663005352" lon="10.883546378463507">
        <ele>1423.579999999999927</ele>
        <time>2015-03-01T12:49:00Z</time>
      </trkpt>
      <trkpt lat="47.562134061008692" lon="10.883551994338632">
        <ele>1423.069999999999936</ele>
        <time>2015-03-01T12:49:18Z</time>
      </trkpt>
      <trkpt lat="47.562123583629727" lon="10.883564651012421">
        <ele>1422.680000000000064</ele>
        <time>2015-03-01T12:49:31Z</time>
      </trkpt>
      <trkpt lat="47.562126265838742" lon="10.883847624063492">
        <ele>1417.549999999999955</ele>
        <time>2015-03-01T12:49:37Z</time>
      </trkpt>
      <trkpt lat="47.562149483710527" lon="10.883932784199715">
        <ele>1410.980000000000018</ele>
        <time>2015-03-01T12:49:38Z</time>
      </trkpt>
      <trkpt lat="47.562169432640076" lon="10.883997827768326">
        <ele>1399.690000000000055</ele>
        <time>2015-03-01T12:49:39Z</time>
      </trkpt>
      <trkpt lat="47.562177143990993" lon="10.884024314582348">
        <ele>1407.910000000000082</ele>
        <time>2015-03-01T12:49:40Z</time>
      </trkpt>
      <trkpt lat="47.562180329114199" lon="10.884022889658809">
        <ele>1407.960000000000036</ele>
        <time>2015-03-01T12:49:52Z</time>
      </trkpt>
      <trkpt lat="47.562174880877137" lon="10.884029762819409">
        <ele>1408.880000000000109</ele>
        <time>2015-03-01T12:50:21Z</time>
      </trkpt>
      <trkpt lat="47.562177227810025" lon="10.88409430347383">
        <ele>1407.240000000000009</ele>
        <time>2015-03-01T12:50:23Z</time>
      </trkpt>
      <trkpt lat="47.562255766242743" lon="10.884186252951622">
        <ele>1404.990000000000009</ele>
        <time>2015-03-01T12:50:26Z</time>
      </trkpt>
      <trkpt lat="47.562276218086481" lon="10.88422279804945">
        <ele>1402.970000000000027</ele>
        <time>2015-03-01T12:50:27Z</time>
      </trkpt>
      <trkpt lat="47.562283929437399" lon="10.884274346753955">
        <ele>1401.630000000000109</ele>
        <time>2015-03-01T12:50:28Z</time>
      </trkpt>
      <trkpt lat="47.562273032963276" lon="10.884334528818727">
        <ele>1400.069999999999936</ele>
        <time>2015-03-01T12:50:29Z</time>
      </trkpt>
      <trkpt lat="47.562253754585981" lon="10.884393621236086">
        <ele>1398.740000000000009</ele>
        <time>2015-03-01T12:50:30Z</time>
      </trkpt>
      <trkpt lat="47.562243109568954" lon="10.88444902561605">
        <ele>1398.069999999999936</ele>
        <time>2015-03-01T12:50:31Z</time>
      </trkpt>
      <trkpt lat="47.562295412644744" lon="10.884606437757611">
        <ele>1394.369999999999891</ele>
        <time>2015-03-01T12:50:34Z</time>
      </trkpt>
      <trkpt lat="47.562309075146914" lon="10.884675923734903">
        <ele>1392.759999999999991</ele>
        <time>2015-03-01T12:50:35Z</time>
      </trkpt>
      <trkpt lat="47.56230941042304" lon="10.884750774130225">
        <ele>1390.75</ele>
        <time>2015-03-01T12:50:36Z</time>
      </trkpt>
      <trkpt lat="47.56229524500668" lon="10.884814644232392">
        <ele>1389.269999999999982</ele>
        <time>2015-03-01T12:50:37Z</time>
      </trkpt>
      <trkpt lat="47.562269596382976" lon="10.884863510727882">
        <ele>1388.190000000000055</ele>
        <time>2015-03-01T12:50:38Z</time>
      </trkpt>
      <trkpt lat="47.562245037406683" lon="10.88490491732955">
        <ele>1387.220000000000027</ele>
        <time>2015-03-01T12:50:39Z</time>
      </trkpt>
      <trkpt lat="47.56222190335393" lon="10.884949760511518">
        <ele>1386.6400000000001</ele>
        <time>2015-03-01T12:50:40Z</time>
      </trkpt>
      <trkpt lat="47.562194662168622" lon="10.88501924648881">
        <ele>1385.720000000000027</ele>
        <time>2015-03-01T12:50:42Z</time>
      </trkpt>
      <trkpt lat="47.562154764309525" lon="10.885182609781623">
        <ele>1382.980000000000018</ele>
        <time>2015-03-01T12:50:47Z</time>
      </trkpt>
      <trkpt lat="47.562110088765621" lon="10.885370364412665">
        <ele>1379.720000000000027</ele>
        <time>2015-03-01T12:50:52Z</time>
      </trkpt>
      <trkpt lat="47.562097599729896" lon="10.885450160130858">
        <ele>1379.019999999999982</ele>
        <time>2015-03-01T12:50:54Z</time>
      </trkpt>
      <trkpt lat="47.562089888378978" lon="10.885645626112819">
        <ele>1375.220000000000027</ele>
        <time>2015-03-01T12:50:58Z</time>
      </trkpt>
      <trkpt lat="47.562112351879478" lon="10.885825334116817">
        <ele>1372.009999999999991</ele>
        <time>2015-03-01T12:51:02Z</time>
      </trkpt>
      <trkpt lat="47.562144119292498" lon="10.885934131219983">
        <ele>1371.329999999999927</ele>
        <time>2015-03-01T12:51:06Z</time>
      </trkpt>
      <trkpt lat="47.562162224203348" lon="10.886042257770896">
        <ele>1370.900000000000091</ele>
        <time>2015-03-01T12:51:16Z</time>
      </trkpt>
      <trkpt lat="47.562185022979975" lon="10.88618072681129">
        <ele>1371.549999999999955</ele>
        <time>2015-03-01T12:51:31Z</time>
      </trkpt>
      <trkpt lat="47.562206480652094" lon="10.886333277449012">
        <ele>1370.190000000000055</ele>
        <time>2015-03-01T12:51:43Z</time>
      </trkpt>
      <trkpt lat="47.562226681038737" lon="10.886398404836655">
        <ele>1370.329999999999927</ele>
        <time>2015-03-01T12:51:54Z</time>
      </trkpt>
      <trkpt lat="47.56227127276361" lon="10.886534694582224">
        <ele>1370.3900000000001</ele>
        <time>2015-03-01T12:52:09Z</time>
      </trkpt>
      <trkpt lat="47.5622717756778" lon="10.88655455969274">
        <ele>1370.170000000000073</ele>
        <time>2015-03-01T12:52:11Z</time>
      </trkpt>
      <trkpt lat="47.562309158965945" lon="10.886827642098069">
        <ele>1366.720000000000027</ele>
        <time>2015-03-01T12:52:19Z</time>
      </trkpt>
      <trkpt lat="47.56232600659132" lon="10.886911293491721">
        <ele>1365.559999999999945</ele>
        <time>2015-03-01T12:52:21Z</time>
      </trkpt>
      <trkpt lat="47.562361797317863" lon="10.887146405875683">
        <ele>1362.240000000000009</ele>
        <time>2015-03-01T12:52:27Z</time>
      </trkpt>
      <trkpt lat="47.562407813966274" lon="10.887422254309058">
        <ele>1358.599999999999909</ele>
        <time>2015-03-01T12:52:32Z</time>
      </trkpt>
      <trkpt lat="47.562446957454085" lon="10.887657282873988">
        <ele>1358.380000000000109</ele>
        <time>2015-03-01T12:52:42Z</time>
      </trkpt>
      <trkpt lat="47.562460955232382" lon="10.887710507959127">
        <ele>1357.549999999999955</ele>
        <time>2015-03-01T12:52:48Z</time>
      </trkpt>
      <trkpt lat="47.562541756778955" lon="10.888003539294004">
        <ele>1354.839999999999918</ele>
        <time>2015-03-01T12:52:56Z</time>
      </trkpt>
      <trkpt lat="47.562590958550572" lon="10.888177882879972">
        <ele>1353.25</ele>
        <time>2015-03-01T12:53:01Z</time>
      </trkpt>
      <trkpt lat="47.562607219442725" lon="10.888238735496998">
        <ele>1352.450000000000045</ele>
        <time>2015-03-01T12:53:02Z</time>
      </trkpt>
      <trkpt lat="47.562628090381622" lon="10.888303527608514">
        <ele>1351.960000000000036</ele>
        <time>2015-03-01T12:53:03Z</time>
      </trkpt>
      <trkpt lat="47.562662959098816" lon="10.888440068811178">
        <ele>1349.8900000000001</ele>
        <time>2015-03-01T12:53:05Z</time>
      </trkpt>
      <trkpt lat="47.562679555267096" lon="10.88850125670433">
        <ele>1350.3599999999999</ele>
        <time>2015-03-01T12:53:06Z</time>
      </trkpt>
      <trkpt lat="47.56272230297327" lon="10.888667888939381">
        <ele>1347.170000000000073</ele>
        <time>2015-03-01T12:53:09Z</time>
      </trkpt>
      <trkpt lat="47.562761949375272" lon="10.888823959976435">
        <ele>1345.200000000000045</ele>
        <time>2015-03-01T12:53:12Z</time>
      </trkpt>
      <trkpt lat="47.562787933275104" lon="10.888956561684608">
        <ele>1345.130000000000109</ele>
        <time>2015-03-01T12:53:22Z</time>
      </trkpt>
      <trkpt lat="47.562837135046721" lon="10.889071645215154">
        <ele>1345.3900000000001</ele>
        <time>2015-03-01T12:53:37Z</time>
      </trkpt>
      <trkpt lat="47.562874518334866" lon="10.889106094837189">
        <ele>1343.829999999999927</ele>
        <time>2015-03-01T12:53:59Z</time>
      </trkpt>
      <trkpt lat="47.562890527769923" lon="10.889105927199125">
        <ele>1344.069999999999936</ele>
        <time>2015-03-01T12:54:23Z</time>
      </trkpt>
      <trkpt lat="47.562936125323176" lon="10.889133755117655">
        <ele>1345.1400000000001</ele>
        <time>2015-03-01T12:54:48Z</time>
      </trkpt>
      <trkpt lat="47.562900669872761" lon="10.889212880283594">
        <ele>1346.049999999999955</ele>
        <time>2015-03-01T12:55:07Z</time>
      </trkpt>
      <trkpt lat="47.562883654609323" lon="10.889194859191775">
        <ele>1346.309999999999945</ele>
        <time>2015-03-01T12:55:27Z</time>
      </trkpt>
      <trkpt lat="47.562880134209991" lon="10.889198128134012">
        <ele>1345.680000000000064</ele>
        <time>2015-03-01T12:55:55Z</time>
      </trkpt>
      <trkpt lat="47.562878876924515" lon="10.889206677675247">
        <ele>1344.940000000000055</ele>
        <time>2015-03-01T12:56:21Z</time>
      </trkpt>
      <trkpt lat="47.562873428687453" lon="10.889240792021155">
        <ele>1345.779999999999973</ele>
        <time>2015-03-01T12:56:47Z</time>
      </trkpt>
      <trkpt lat="47.562872339040041" lon="10.889230147004128">
        <ele>1345.440000000000055</ele>
        <time>2015-03-01T12:57:13Z</time>
      </trkpt>
      <trkpt lat="47.562870159745216" lon="10.889220088720322">
        <ele>1345.579999999999927</ele>
        <time>2015-03-01T12:57:47Z</time>
      </trkpt>
      <trkpt lat="47.56286496296525" lon="10.889247413724661">
        <ele>1345.470000000000027</ele>
        <time>2015-03-01T12:58:17Z</time>
      </trkpt>
      <trkpt lat="47.562859430909157" lon="10.889232158660889">
        <ele>1345.059999999999945</ele>
        <time>2015-03-01T12:58:44Z</time>
      </trkpt>
      <trkpt lat="47.562857000157237" lon="10.889205504208803">
        <ele>1345.509999999999991</ele>
        <time>2015-03-01T12:59:13Z</time>
      </trkpt>
      <trkpt lat="47.562831016257405" lon="10.889184046536684">
        <ele>1345.710000000000036</ele>
        <time>2015-03-01T12:59:39Z</time>
      </trkpt>
      <trkpt lat="47.562887342646718" lon="10.889226123690605">
        <ele>1347.220000000000027</ele>
        <time>2015-03-01T13:00:01Z</time>
      </trkpt>
      <trkpt lat="47.562874937430024" lon="10.889214556664228">
        <ele>1346.509999999999991</ele>
        <time>2015-03-01T13:00:25Z</time>
      </trkpt>
      <trkpt lat="47.562891701236367" lon="10.889221932739019">
        <ele>1346.190000000000055</ele>
        <time>2015-03-01T13:00:48Z</time>
      </trkpt>
      <trkpt lat="47.562878876924515" lon="10.88922000490129">
        <ele>1346.059999999999945</ele>
        <time>2015-03-01T13:01:14Z</time>
      </trkpt>
      <trkpt lat="47.562865717336535" lon="10.889208354055882">
        <ele>1346.589999999999918</ele>
        <time>2015-03-01T13:01:37Z</time>
      </trkpt>
      <trkpt lat="47.562874853610992" lon="10.889207348227501">
        <ele>1346.039999999999964</ele>
        <time>2015-03-01T13:01:59Z</time>
      </trkpt>
      <trkpt lat="47.562803691253066" lon="10.889295106753707">
        <ele>1347.660000000000082</ele>
        <time>2015-03-01T13:02:12Z</time>
      </trkpt>
      <trkpt lat="47.562705958262086" lon="10.889402981847525">
        <ele>1349.480000000000018</ele>
        <time>2015-03-01T13:02:28Z</time>
      </trkpt>
      <trkpt lat="47.562642591074109" lon="10.889553101733327">
        <ele>1350.299999999999955</ele>
        <time>2015-03-01T13:02:43Z</time>
      </trkpt>
      <trkpt lat="47.562652314081788" lon="10.889777485281229">
        <ele>1353.289999999999964</ele>
        <time>2015-03-01T13:03:03Z</time>
      </trkpt>
      <trkpt lat="47.562620881944895" lon="10.889949314296246">
        <ele>1356.099999999999909</ele>
        <time>2015-03-01T13:03:23Z</time>
      </trkpt>
      <trkpt lat="47.562685003504157" lon="10.890104128047824">
        <ele>1359.220000000000027</ele>
        <time>2015-03-01T13:03:39Z</time>
      </trkpt>
      <trkpt lat="47.562752226367593" lon="10.890215607360005">
        <ele>1362.240000000000009</ele>
        <time>2015-03-01T13:03:56Z</time>
      </trkpt>
      <trkpt lat="47.56277066655457" lon="10.890416940674186">
        <ele>1366.019999999999982</ele>
        <time>2015-03-01T13:04:18Z</time>
      </trkpt>
      <trkpt lat="47.562727248296142" lon="10.890530264005065">
        <ele>1368.799999999999955</ele>
        <time>2015-03-01T13:04:41Z</time>
      </trkpt>
      <trkpt lat="47.562619540840387" lon="10.890658758580685">
        <ele>1372.079999999999927</ele>
        <time>2015-03-01T13:05:04Z</time>
      </trkpt>
      <trkpt lat="47.562507977709174" lon="10.890800748020411">
        <ele>1375.180000000000064</ele>
        <time>2015-03-01T13:05:30Z</time>
      </trkpt>
      <trkpt lat="47.562528932467103" lon="10.890976013615727">
        <ele>1378.700000000000045</ele>
        <time>2015-03-01T13:05:51Z</time>
      </trkpt>
      <trkpt lat="47.562559861689806" lon="10.891090929508209">
        <ele>1381.829999999999927</ele>
        <time>2015-03-01T13:06:11Z</time>
      </trkpt>
      <trkpt lat="47.562471432611346" lon="10.891167791560292">
        <ele>1384.170000000000073</ele>
        <time>2015-03-01T13:06:31Z</time>
      </trkpt>
      <trkpt lat="47.56245156750083" lon="10.891191093251109">
        <ele>1385.329999999999927</ele>
        <time>2015-03-01T13:06:36Z</time>
      </trkpt>
      <trkpt lat="47.562442347407341" lon="10.891214646399021">
        <ele>1386.569999999999936</ele>
        <time>2015-03-01T13:06:40Z</time>
      </trkpt>
      <trkpt lat="47.562415860593319" lon="10.891387481242418">
        <ele>1390.039999999999964</ele>
        <time>2015-03-01T13:07:00Z</time>
      </trkpt>
      <trkpt lat="47.562466990202665" lon="10.891545480117202">
        <ele>1393.059999999999945</ele>
        <time>2015-03-01T13:07:19Z</time>
      </trkpt>
      <trkpt lat="47.562451232224703" lon="10.89165628887713">
        <ele>1394.650000000000091</ele>
        <time>2015-03-01T13:07:31Z</time>
      </trkpt>
      <trkpt lat="47.562410496175289" lon="10.891777155920863">
        <ele>1397.8599999999999</ele>
        <time>2015-03-01T13:07:52Z</time>
      </trkpt>
      <trkpt lat="47.56230790168047" lon="10.891780257225037">
        <ele>1400.990000000000009</ele>
        <time>2015-03-01T13:08:11Z</time>
      </trkpt>
      <trkpt lat="47.562218885868788" lon="10.891735749319196">
        <ele>1402.319999999999936</ele>
        <time>2015-03-01T13:08:34Z</time>
      </trkpt>
      <trkpt lat="47.562220059335232" lon="10.891741868108511">
        <ele>1403.25</ele>
        <time>2015-03-01T13:08:55Z</time>
      </trkpt>
      <trkpt lat="47.562234895303845" lon="10.89188645593822">
        <ele>1405.759999999999991</ele>
        <time>2015-03-01T13:09:17Z</time>
      </trkpt>
      <trkpt lat="47.562304129824042" lon="10.892039593309164">
        <ele>1409.289999999999964</ele>
        <time>2015-03-01T13:09:33Z</time>
      </trkpt>
      <trkpt lat="47.562237828969955" lon="10.892121735960245">
        <ele>1411.930000000000064</ele>
        <time>2015-03-01T13:09:50Z</time>
      </trkpt>
      <trkpt lat="47.562118470668793" lon="10.892184684053063">
        <ele>1415.5</ele>
        <time>2015-03-01T13:10:09Z</time>
      </trkpt>
      <trkpt lat="47.562059797346592" lon="10.892106983810663">
        <ele>1417.8900000000001</ele>
        <time>2015-03-01T13:10:21Z</time>
      </trkpt>
      <trkpt lat="47.562048062682152" lon="10.892222486436367">
        <ele>1420.180000000000064</ele>
        <time>2015-03-01T13:10:35Z</time>
      </trkpt>
      <trkpt lat="47.562002968043089" lon="10.892336061224341">
        <ele>1422.700000000000045</ele>
        <time>2015-03-01T13:10:57Z</time>
      </trkpt>
      <trkpt lat="47.561932392418385" lon="10.89231695048511">
        <ele>1425.960000000000036</ele>
        <time>2015-03-01T13:11:13Z</time>
      </trkpt>
      <trkpt lat="47.561938175931573" lon="10.892391381785274">
        <ele>1427.200000000000045</ele>
        <time>2015-03-01T13:11:29Z</time>
      </trkpt>
      <trkpt lat="47.561888219788671" lon="10.89243127964437">
        <ele>1429.8900000000001</ele>
        <time>2015-03-01T13:11:47Z</time>
      </trkpt>
      <trkpt lat="47.561851423233747" lon="10.8924332074821">
        <ele>1431.210000000000036</ele>
        <time>2015-03-01T13:12:08Z</time>
      </trkpt>
      <trkpt lat="47.561879586428404" lon="10.892408480867743">
        <ele>1432.25</ele>
        <time>2015-03-01T13:12:27Z</time>
      </trkpt>
      <trkpt lat="47.561893165111542" lon="10.892498670145869">
        <ele>1433.440000000000055</ele>
        <time>2015-03-01T13:12:47Z</time>
      </trkpt>
      <trkpt lat="47.561877993866801" lon="10.892534460872412">
        <ele>1433.400000000000091</ele>
        <time>2015-03-01T13:13:15Z</time>
      </trkpt>
      <trkpt lat="47.561871372163296" lon="10.892530353739858">
        <ele>1434.420000000000073</ele>
        <time>2015-03-01T13:13:20Z</time>
      </trkpt>
      <trkpt lat="47.561827786266804" lon="10.89253781363368">
        <ele>1436.269999999999982</ele>
        <time>2015-03-01T13:13:38Z</time>
      </trkpt>
      <trkpt lat="47.561801802366972" lon="10.892607383430004">
        <ele>1437.549999999999955</ele>
        <time>2015-03-01T13:13:59Z</time>
      </trkpt>
      <trkpt lat="47.561754863709211" lon="10.892501268535852">
        <ele>1439.160000000000082</ele>
        <time>2015-03-01T13:14:17Z</time>
      </trkpt>
      <trkpt lat="47.561675822362304" lon="10.892396997660398">
        <ele>1441.720000000000027</ele>
        <time>2015-03-01T13:14:37Z</time>
      </trkpt>
      <trkpt lat="47.561666769906878" lon="10.892461957409978">
        <ele>1443.349999999999909</ele>
        <time>2015-03-01T13:14:59Z</time>
      </trkpt>
      <trkpt lat="47.561620334163308" lon="10.89247620664537">
        <ele>1446.480000000000018</ele>
        <time>2015-03-01T13:15:22Z</time>
      </trkpt>
      <trkpt lat="47.561544813215733" lon="10.892386771738529">
        <ele>1447.900000000000091</ele>
        <time>2015-03-01T13:15:44Z</time>
      </trkpt>
      <trkpt lat="47.56153249181807" lon="10.892486264929175">
        <ele>1448.990000000000009</ele>
        <time>2015-03-01T13:16:04Z</time>
      </trkpt>
      <trkpt lat="47.561519499868155" lon="10.892495904117823">
        <ele>1447.369999999999891</ele>
        <time>2015-03-01T13:16:27Z</time>
      </trkpt>
      <trkpt lat="47.561520505696535" lon="10.892552146688104">
        <ele>1447.569999999999936</ele>
        <time>2015-03-01T13:16:52Z</time>
      </trkpt>
      <trkpt lat="47.561522768810391" lon="10.892547201365232">
        <ele>1448.920000000000073</ele>
        <time>2015-03-01T13:17:08Z</time>
      </trkpt>
      <trkpt lat="47.561483876779675" lon="10.892591709271073">
        <ele>1449.950000000000045</ele>
        <time>2015-03-01T13:17:27Z</time>
      </trkpt>
      <trkpt lat="47.56145185790956" lon="10.892560025677085">
        <ele>1451.380000000000109</ele>
        <time>2015-03-01T13:17:44Z</time>
      </trkpt>
      <trkpt lat="47.561465436592698" lon="10.892583662644029">
        <ele>1452.450000000000045</ele>
        <time>2015-03-01T13:18:05Z</time>
      </trkpt>
      <trkpt lat="47.561452947556973" lon="10.892577627673745">
        <ele>1453.089999999999918</ele>
        <time>2015-03-01T13:18:30Z</time>
      </trkpt>
      <trkpt lat="47.561467615887523" lon="10.892668319866061">
        <ele>1452.210000000000036</ele>
        <time>2015-03-01T13:18:51Z</time>
      </trkpt>
      <trkpt lat="47.561499970033765" lon="10.892803687602282">
        <ele>1454.130000000000109</ele>
        <time>2015-03-01T13:19:09Z</time>
      </trkpt>
      <trkpt lat="47.56147088482976" lon="10.892856828868389">
        <ele>1456.569999999999936</ele>
        <time>2015-03-01T13:19:23Z</time>
      </trkpt>
      <trkpt lat="47.561440709978342" lon="10.892877699807286">
        <ele>1458.039999999999964</ele>
        <time>2015-03-01T13:19:41Z</time>
      </trkpt>
      <trkpt lat="47.561410870403051" lon="10.892941318452358">
        <ele>1458.849999999999909</ele>
        <time>2015-03-01T13:20:02Z</time>
      </trkpt>
      <trkpt lat="47.561446577310562" lon="10.893045254051685">
        <ele>1462.009999999999991</ele>
        <time>2015-03-01T13:20:13Z</time>
      </trkpt>
      <trkpt lat="47.561393352225423" lon="10.892972834408283">
        <ele>1463.880000000000109</ele>
        <time>2015-03-01T13:20:31Z</time>
      </trkpt>
      <trkpt lat="47.561341300606728" lon="10.89293310418725">
        <ele>1465.089999999999918</ele>
        <time>2015-03-01T13:20:52Z</time>
      </trkpt>
      <trkpt lat="47.5613634288311" lon="10.893043242394924">
        <ele>1468.170000000000073</ele>
        <time>2015-03-01T13:21:08Z</time>
      </trkpt>
      <trkpt lat="47.56137122400105" lon="10.893190847709775">
        <ele>1471.490000000000009</ele>
        <time>2015-03-01T13:21:29Z</time>
      </trkpt>
      <trkpt lat="47.561398381367326" lon="10.893321353942156">
        <ele>1474.710000000000036</ele>
        <time>2015-03-01T13:21:51Z</time>
      </trkpt>
      <trkpt lat="47.561437608674169" lon="10.893536433577538">
        <ele>1477.039999999999964</ele>
        <time>2015-03-01T13:22:14Z</time>
      </trkpt>
      <trkpt lat="47.56145479157567" lon="10.893706921488047">
        <ele>1478.940000000000055</ele>
        <time>2015-03-01T13:22:35Z</time>
      </trkpt>
      <trkpt lat="47.561517488211393" lon="10.893812282010913">
        <ele>1482.009999999999991</ele>
        <time>2015-03-01T13:22:54Z</time>
      </trkpt>
      <trkpt lat="47.561489241197705" lon="10.893827704712749">
        <ele>1483.710000000000036</ele>
        <time>2015-03-01T13:23:10Z</time>
      </trkpt>
      <trkpt lat="47.561465688049793" lon="10.893853856250644">
        <ele>1485.400000000000091</ele>
        <time>2015-03-01T13:23:30Z</time>
      </trkpt>
      <trkpt lat="47.561456048861146" lon="10.893870452418923">
        <ele>1488.430000000000064</ele>
        <time>2015-03-01T13:23:48Z</time>
      </trkpt>
      <trkpt lat="47.561544980853796" lon="10.894009927287698">
        <ele>1491.509999999999991</ele>
        <time>2015-03-01T13:24:04Z</time>
      </trkpt>
      <trkpt lat="47.561571802943945" lon="10.894178235903382">
        <ele>1491.009999999999991</ele>
        <time>2015-03-01T13:24:24Z</time>
      </trkpt>
      <trkpt lat="47.561561660841107" lon="10.894214864820242">
        <ele>1490.950000000000045</ele>
        <time>2015-03-01T13:24:27Z</time>
      </trkpt>
      <trkpt lat="47.56152075715363" lon="10.894377809017897">
        <ele>1490.579999999999927</ele>
        <time>2015-03-01T13:24:41Z</time>
      </trkpt>
      <trkpt lat="47.561523774638772" lon="10.894431117922068">
        <ele>1490.180000000000064</ele>
        <time>2015-03-01T13:24:45Z</time>
      </trkpt>
      <trkpt lat="47.561569372192025" lon="10.894639492034912">
        <ele>1488.990000000000009</ele>
        <time>2015-03-01T13:24:57Z</time>
      </trkpt>
      <trkpt lat="47.561574736610055" lon="10.894787767902017">
        <ele>1488.130000000000109</ele>
        <time>2015-03-01T13:25:13Z</time>
      </trkpt>
      <trkpt lat="47.561580939218402" lon="10.894797742366791">
        <ele>1486.539999999999964</ele>
        <time>2015-03-01T13:25:35Z</time>
      </trkpt>
      <trkpt lat="47.561609521508217" lon="10.894812578335404">
        <ele>1487.470000000000027</ele>
        <time>2015-03-01T13:25:59Z</time>
      </trkpt>
      <trkpt lat="47.561593679711223" lon="10.894800592213869">
        <ele>1487.259999999999991</ele>
        <time>2015-03-01T13:26:36Z</time>
      </trkpt>
      <trkpt lat="47.561657717451453" lon="10.894740242511034">
        <ele>1487.690000000000055</ele>
        <time>2015-03-01T13:27:08Z</time>
      </trkpt>
      <trkpt lat="47.561653610318899" lon="10.894749630242586">
        <ele>1482.289999999999964</ele>
        <time>2015-03-01T13:27:34Z</time>
      </trkpt>
      <trkpt lat="47.561650928109884" lon="10.894749211147428">
        <ele>1488.829999999999927</ele>
        <time>2015-03-01T13:27:35Z</time>
      </trkpt>
      <trkpt lat="47.561627123504877" lon="10.894768154248595">
        <ele>1487.900000000000091</ele>
        <time>2015-03-01T13:27:55Z</time>
      </trkpt>
      <trkpt lat="47.561600301414728" lon="10.894780727103353">
        <ele>1487.420000000000073</ele>
        <time>2015-03-01T13:28:23Z</time>
      </trkpt>
      <trkpt lat="47.561596026644111" lon="10.894766561686993">
        <ele>1488.869999999999891</ele>
        <time>2015-03-01T13:28:43Z</time>
      </trkpt>
      <trkpt lat="47.561593931168318" lon="10.894789025187492">
        <ele>1488.299999999999955</ele>
        <time>2015-03-01T13:29:06Z</time>
      </trkpt>
      <trkpt lat="47.561578257009387" lon="10.894811823964119">
        <ele>1488.569999999999936</ele>
        <time>2015-03-01T13:29:38Z</time>
      </trkpt>
      <trkpt lat="47.561571300029755" lon="10.894803525879979">
        <ele>1488.690000000000055</ele>
        <time>2015-03-01T13:30:05Z</time>
      </trkpt>
      <trkpt lat="47.561629470437765" lon="10.894973846152425">
        <ele>1486.319999999999936</ele>
        <time>2015-03-01T13:30:28Z</time>
      </trkpt>
      <trkpt lat="47.56166148930788" lon="10.895204851403832">
        <ele>1482.849999999999909</ele>
        <time>2015-03-01T13:30:34Z</time>
      </trkpt>
      <trkpt lat="47.561665344983339" lon="10.895439209416509">
        <ele>1479.6099999999999</ele>
        <time>2015-03-01T13:30:40Z</time>
      </trkpt>
      <trkpt lat="47.561648916453123" lon="10.89569041505456">
        <ele>1476.6099999999999</ele>
        <time>2015-03-01T13:30:47Z</time>
      </trkpt>
      <trkpt lat="47.561604073271155" lon="10.896043125540018">
        <ele>1473.279999999999973</ele>
        <time>2015-03-01T13:30:58Z</time>
      </trkpt>
      <trkpt lat="47.561587141826749" lon="10.896239848807454">
        <ele>1471.1400000000001</ele>
        <time>2015-03-01T13:31:03Z</time>
      </trkpt>
      <trkpt lat="47.561540706083179" lon="10.896453503519297">
        <ele>1468.970000000000027</ele>
        <time>2015-03-01T13:31:08Z</time>
      </trkpt>
      <trkpt lat="47.561551434919238" lon="10.896511254832149">
        <ele>1468.059999999999945</ele>
        <time>2015-03-01T13:31:09Z</time>
      </trkpt>
      <trkpt lat="47.56154322065413" lon="10.896563809365034">
        <ele>1467.599999999999909</ele>
        <time>2015-03-01T13:31:10Z</time>
      </trkpt>
      <trkpt lat="47.561515728011727" lon="10.896610748022795">
        <ele>1466.549999999999955</ele>
        <time>2015-03-01T13:31:11Z</time>
      </trkpt>
      <trkpt lat="47.561476668342948" lon="10.896653076633811">
        <ele>1465.950000000000045</ele>
        <time>2015-03-01T13:31:12Z</time>
      </trkpt>
      <trkpt lat="47.561435345560312" lon="10.896692806854844">
        <ele>1465.240000000000009</ele>
        <time>2015-03-01T13:31:13Z</time>
      </trkpt>
      <trkpt lat="47.561401398852468" lon="10.896736728027463">
        <ele>1464.430000000000064</ele>
        <time>2015-03-01T13:31:14Z</time>
      </trkpt>
      <trkpt lat="47.561374576762319" lon="10.896789701655507">
        <ele>1463.339999999999918</ele>
        <time>2015-03-01T13:31:15Z</time>
      </trkpt>
      <trkpt lat="47.561354376375675" lon="10.896844351664186">
        <ele>1462.3599999999999</ele>
        <time>2015-03-01T13:31:16Z</time>
      </trkpt>
      <trkpt lat="47.561345072463155" lon="10.896891038864851">
        <ele>1461.460000000000036</ele>
        <time>2015-03-01T13:31:17Z</time>
      </trkpt>
      <trkpt lat="47.56133358925581" lon="10.896924901753664">
        <ele>1461.6400000000001</ele>
        <time>2015-03-01T13:31:18Z</time>
      </trkpt>
      <trkpt lat="47.561322273686528" lon="10.896944934502244">
        <ele>1461.069999999999936</ele>
        <time>2015-03-01T13:31:19Z</time>
      </trkpt>
      <trkpt lat="47.561307353898883" lon="10.897000255063176">
        <ele>1460.970000000000027</ele>
        <time>2015-03-01T13:31:27Z</time>
      </trkpt>
      <trkpt lat="47.561305426061153" lon="10.897025149315596">
        <ele>1460.619999999999891</ele>
        <time>2015-03-01T13:31:28Z</time>
      </trkpt>
      <trkpt lat="47.561315735802054" lon="10.897049121558666">
        <ele>1458.450000000000045</ele>
        <time>2015-03-01T13:31:29Z</time>
      </trkpt>
      <trkpt lat="47.561334008350968" lon="10.897062113508582">
        <ele>1457.3900000000001</ele>
        <time>2015-03-01T13:31:30Z</time>
      </trkpt>
      <trkpt lat="47.561347419396043" lon="10.897065047174692">
        <ele>1459.230000000000018</ele>
        <time>2015-03-01T13:31:31Z</time>
      </trkpt>
      <trkpt lat="47.561358818784356" lon="10.897085582837462">
        <ele>1458.220000000000027</ele>
        <time>2015-03-01T13:31:32Z</time>
      </trkpt>
      <trkpt lat="47.561359656974673" lon="10.897130006924272">
        <ele>1456.430000000000064</ele>
        <time>2015-03-01T13:31:33Z</time>
      </trkpt>
      <trkpt lat="47.561347922310233" lon="10.897177616134286">
        <ele>1456.3599999999999</ele>
        <time>2015-03-01T13:31:34Z</time>
      </trkpt>
      <trkpt lat="47.561308024451137" lon="10.897262440994382">
        <ele>1454.369999999999891</ele>
        <time>2015-03-01T13:31:36Z</time>
      </trkpt>
      <trkpt lat="47.561283716931939" lon="10.897297225892544">
        <ele>1452.619999999999891</ele>
        <time>2015-03-01T13:31:37Z</time>
      </trkpt>
      <trkpt lat="47.561245076358318" lon="10.89742605574429">
        <ele>1450.950000000000045</ele>
        <time>2015-03-01T13:31:40Z</time>
      </trkpt>
      <trkpt lat="47.561231078580022" lon="10.897467629984021">
        <ele>1450.220000000000027</ele>
        <time>2015-03-01T13:31:41Z</time>
      </trkpt>
      <trkpt lat="47.561211297288537" lon="10.897502414882183">
        <ele>1449.470000000000027</ele>
        <time>2015-03-01T13:31:42Z</time>
      </trkpt>
      <trkpt lat="47.561194952577353" lon="10.897532673552632">
        <ele>1449.049999999999955</ele>
        <time>2015-03-01T13:31:43Z</time>
      </trkpt>
      <trkpt lat="47.561183553189039" lon="10.897561758756638">
        <ele>1448.740000000000009</ele>
        <time>2015-03-01T13:31:44Z</time>
      </trkpt>
      <trkpt lat="47.561125550419092" lon="10.89773585088551">
        <ele>1445.630000000000109</ele>
        <time>2015-03-01T13:31:49Z</time>
      </trkpt>
      <trkpt lat="47.56107266061008" lon="10.897864261642098">
        <ele>1442.829999999999927</ele>
        <time>2015-03-01T13:31:58Z</time>
      </trkpt>
      <trkpt lat="47.56104776635766" lon="10.897910529747605">
        <ele>1442.930000000000064</ele>
        <time>2015-03-01T13:32:03Z</time>
      </trkpt>
      <trkpt lat="47.560986327007413" lon="10.898014465346932">
        <ele>1440.710000000000036</ele>
        <time>2015-03-01T13:32:06Z</time>
      </trkpt>
      <trkpt lat="47.560952631756663" lon="10.898051764816046">
        <ele>1439.950000000000045</ele>
        <time>2015-03-01T13:32:07Z</time>
      </trkpt>
      <trkpt lat="47.560917343944311" lon="10.898080095648766">
        <ele>1439.579999999999927</ele>
        <time>2015-03-01T13:32:08Z</time>
      </trkpt>
      <trkpt lat="47.560848528519273" lon="10.89815016835928">
        <ele>1437.059999999999945</ele>
        <time>2015-03-01T13:32:10Z</time>
      </trkpt>
      <trkpt lat="47.560826819390059" lon="10.89821420609951">
        <ele>1436.269999999999982</ele>
        <time>2015-03-01T13:32:11Z</time>
      </trkpt>
      <trkpt lat="47.560814917087555" lon="10.898283356800675">
        <ele>1433.039999999999964</ele>
        <time>2015-03-01T13:32:12Z</time>
      </trkpt>
      <trkpt lat="47.560792369768023" lon="10.8984340634197">
        <ele>1431.210000000000036</ele>
        <time>2015-03-01T13:32:14Z</time>
      </trkpt>
      <trkpt lat="47.560779629275203" lon="10.898463483899832">
        <ele>1430.980000000000018</ele>
        <time>2015-03-01T13:32:15Z</time>
      </trkpt>
      <trkpt lat="47.560757920145988" lon="10.898482427000999">
        <ele>1430.529999999999973</ele>
        <time>2015-03-01T13:32:25Z</time>
      </trkpt>
      <trkpt lat="47.560758171603084" lon="10.898506063967943">
        <ele>1430.240000000000009</ele>
        <time>2015-03-01T13:32:39Z</time>
      </trkpt>
      <trkpt lat="47.560793794691563" lon="10.898696752265096">
        <ele>1423.240000000000009</ele>
        <time>2015-03-01T13:32:43Z</time>
      </trkpt>
      <trkpt lat="47.560786921530962" lon="10.898740002885461">
        <ele>1424.309999999999945</ele>
        <time>2015-03-01T13:32:44Z</time>
      </trkpt>
      <trkpt lat="47.5608005002141" lon="10.898775290697813">
        <ele>1421.269999999999982</ele>
        <time>2015-03-01T13:32:45Z</time>
      </trkpt>
      <trkpt lat="47.560827489942312" lon="10.898797838017344">
        <ele>1421.460000000000036</ele>
        <time>2015-03-01T13:32:46Z</time>
      </trkpt>
      <trkpt lat="47.560856575146317" lon="10.898811919614673">
        <ele>1420.759999999999991</ele>
        <time>2015-03-01T13:32:47Z</time>
      </trkpt>
      <trkpt lat="47.560886247083545" lon="10.898826504126191">
        <ele>1419.319999999999936</ele>
        <time>2015-03-01T13:32:48Z</time>
      </trkpt>
      <trkpt lat="47.560912985354662" lon="10.898843435570598">
        <ele>1418.480000000000018</ele>
        <time>2015-03-01T13:32:49Z</time>
      </trkpt>
      <trkpt lat="47.560934191569686" lon="10.89885869063437">
        <ele>1418.180000000000064</ele>
        <time>2015-03-01T13:32:50Z</time>
      </trkpt>
      <trkpt lat="47.561010969802737" lon="10.898942593485117">
        <ele>1416.470000000000027</ele>
        <time>2015-03-01T13:32:54Z</time>
      </trkpt>
      <trkpt lat="47.561030751094222" lon="10.899063041433692">
        <ele>1415.059999999999945</ele>
        <time>2015-03-01T13:32:57Z</time>
      </trkpt>
      <trkpt lat="47.561031086370349" lon="10.899116098880768">
        <ele>1413.079999999999927</ele>
        <time>2015-03-01T13:32:58Z</time>
      </trkpt>
      <trkpt lat="47.561027314513922" lon="10.899316677823663">
        <ele>1410.450000000000045</ele>
        <time>2015-03-01T13:33:01Z</time>
      </trkpt>
      <trkpt lat="47.561019938439131" lon="10.899414829909801">
        <ele>1408.720000000000027</ele>
        <time>2015-03-01T13:33:03Z</time>
      </trkpt>
      <trkpt lat="47.560997055843472" lon="10.899583892896771">
        <ele>1407.369999999999891</ele>
        <time>2015-03-01T13:33:09Z</time>
      </trkpt>
      <trkpt lat="47.560996972024441" lon="10.899689588695765">
        <ele>1405.940000000000055</ele>
        <time>2015-03-01T13:33:12Z</time>
      </trkpt>
      <trkpt lat="47.560947770252824" lon="10.899858316406608">
        <ele>1403.1099999999999</ele>
        <time>2015-03-01T13:33:17Z</time>
      </trkpt>
      <trkpt lat="47.56097543053329" lon="10.900003826245666">
        <ele>1399.869999999999891</ele>
        <time>2015-03-01T13:33:21Z</time>
      </trkpt>
      <trkpt lat="47.560973837971687" lon="10.900091081857681">
        <ele>1399.450000000000045</ele>
        <time>2015-03-01T13:33:30Z</time>
      </trkpt>
      <trkpt lat="47.560969144105911" lon="10.900266598910093">
        <ele>1396.8599999999999</ele>
        <time>2015-03-01T13:33:47Z</time>
      </trkpt>
      <trkpt lat="47.560990350320935" lon="10.900362823158503">
        <ele>1395.230000000000018</ele>
        <time>2015-03-01T13:33:49Z</time>
      </trkpt>
      <trkpt lat="47.561012981459498" lon="10.900477487593889">
        <ele>1393.880000000000109</ele>
        <time>2015-03-01T13:33:51Z</time>
      </trkpt>
      <trkpt lat="47.561002168804407" lon="10.900573376566172">
        <ele>1392.299999999999955</ele>
        <time>2015-03-01T13:33:53Z</time>
      </trkpt>
      <trkpt lat="47.561021614819765" lon="10.900762639939785">
        <ele>1390.559999999999945</ele>
        <time>2015-03-01T13:33:58Z</time>
      </trkpt>
      <trkpt lat="47.561006443575025" lon="10.900825336575508">
        <ele>1389.589999999999918</ele>
        <time>2015-03-01T13:34:00Z</time>
      </trkpt>
      <trkpt lat="47.561060506850481" lon="10.901039661839604">
        <ele>1386.200000000000045</ele>
        <time>2015-03-01T13:34:08Z</time>
      </trkpt>
      <trkpt lat="47.561097471043468" lon="10.901143765076995">
        <ele>1383.099999999999909</ele>
        <time>2015-03-01T13:34:10Z</time>
      </trkpt>
      <trkpt lat="47.561086993664503" lon="10.901211407035589">
        <ele>1384.160000000000082</ele>
        <time>2015-03-01T13:34:16Z</time>
      </trkpt>
      <trkpt lat="47.561014154925942" lon="10.901208305731416">
        <ele>1384.380000000000109</ele>
        <time>2015-03-01T13:34:35Z</time>
      </trkpt>
      <trkpt lat="47.5609300006181" lon="10.901319617405534">
        <ele>1383.190000000000055</ele>
        <time>2015-03-01T13:34:40Z</time>
      </trkpt>
      <trkpt lat="47.560914997011423" lon="10.901446016505361">
        <ele>1381.720000000000027</ele>
        <time>2015-03-01T13:34:43Z</time>
      </trkpt>
      <trkpt lat="47.560876188799739" lon="10.901578031480312">
        <ele>1379.970000000000027</ele>
        <time>2015-03-01T13:34:46Z</time>
      </trkpt>
      <trkpt lat="47.56082346662879" lon="10.901684062555432">
        <ele>1378.539999999999964</ele>
        <time>2015-03-01T13:34:48Z</time>
      </trkpt>
      <trkpt lat="47.560790693387389" lon="10.901808952912688">
        <ele>1377.430000000000064</ele>
        <time>2015-03-01T13:34:50Z</time>
      </trkpt>
      <trkpt lat="47.560752304270864" lon="10.90197172947228">
        <ele>1375.869999999999891</ele>
        <time>2015-03-01T13:34:53Z</time>
      </trkpt>
      <trkpt lat="47.560747610405087" lon="10.902094272896647">
        <ele>1372.849999999999909</ele>
        <time>2015-03-01T13:34:57Z</time>
      </trkpt>
      <trkpt lat="47.560748029500246" lon="10.902134254574776">
        <ele>1372.700000000000045</ele>
        <time>2015-03-01T13:34:58Z</time>
      </trkpt>
      <trkpt lat="47.560769403353333" lon="10.902169207111001">
        <ele>1371.950000000000045</ele>
        <time>2015-03-01T13:35:08Z</time>
      </trkpt>
      <trkpt lat="47.560734450817108" lon="10.902355872094631">
        <ele>1369.8900000000001</ele>
        <time>2015-03-01T13:35:22Z</time>
      </trkpt>
      <trkpt lat="47.560705365613103" lon="10.902452599257231">
        <ele>1369.690000000000055</ele>
        <time>2015-03-01T13:35:28Z</time>
      </trkpt>
      <trkpt lat="47.560640824958682" lon="10.902734901756048">
        <ele>1367.25</ele>
        <time>2015-03-01T13:35:37Z</time>
      </trkpt>
      <trkpt lat="47.560611069202423" lon="10.902950065210462">
        <ele>1365.470000000000027</ele>
        <time>2015-03-01T13:35:41Z</time>
      </trkpt>
      <trkpt lat="47.560590617358685" lon="10.903203953057528">
        <ele>1361.170000000000073</ele>
        <time>2015-03-01T13:35:46Z</time>
      </trkpt>
      <trkpt lat="47.560597993433475" lon="10.903318198397756">
        <ele>1359.279999999999973</ele>
        <time>2015-03-01T13:35:48Z</time>
      </trkpt>
      <trkpt lat="47.560587013140321" lon="10.903570912778378">
        <ele>1355.769999999999982</ele>
        <time>2015-03-01T13:35:53Z</time>
      </trkpt>
      <trkpt lat="47.560566477477551" lon="10.903664119541645">
        <ele>1355</ele>
        <time>2015-03-01T13:35:57Z</time>
      </trkpt>
      <trkpt lat="47.560523310676217" lon="10.903827231377363">
        <ele>1353.700000000000045</ele>
        <time>2015-03-01T13:36:02Z</time>
      </trkpt>
      <trkpt lat="47.560504619032145" lon="10.903910882771015">
        <ele>1352.630000000000109</ele>
        <time>2015-03-01T13:36:04Z</time>
      </trkpt>
      <trkpt lat="47.560456842184067" lon="10.90415203012526">
        <ele>1348.329999999999927</ele>
        <time>2015-03-01T13:36:09Z</time>
      </trkpt>
      <trkpt lat="47.560456171631813" lon="10.904210200533271">
        <ele>1347.930000000000064</ele>
        <time>2015-03-01T13:36:10Z</time>
      </trkpt>
      <trkpt lat="47.560454830527306" lon="10.904334336519241">
        <ele>1344.509999999999991</ele>
        <time>2015-03-01T13:36:12Z</time>
      </trkpt>
      <trkpt lat="47.560447957366705" lon="10.904550924897194">
        <ele>1341.119999999999891</ele>
        <time>2015-03-01T13:36:16Z</time>
      </trkpt>
      <trkpt lat="47.560507971793413" lon="10.904690315946937">
        <ele>1338.339999999999918</ele>
        <time>2015-03-01T13:36:19Z</time>
      </trkpt>
      <trkpt lat="47.560533788055182" lon="10.904858540743589">
        <ele>1335.400000000000091</ele>
        <time>2015-03-01T13:36:23Z</time>
      </trkpt>
      <trkpt lat="47.560511073097587" lon="10.904980581253767">
        <ele>1332.569999999999936</ele>
        <time>2015-03-01T13:36:25Z</time>
      </trkpt>
      <trkpt lat="47.560491459444165" lon="10.905101783573627">
        <ele>1331.3599999999999</ele>
        <time>2015-03-01T13:36:27Z</time>
      </trkpt>
      <trkpt lat="47.560463715344667" lon="10.905207060277462">
        <ele>1330.130000000000109</ele>
        <time>2015-03-01T13:36:29Z</time>
      </trkpt>
      <trkpt lat="47.560384003445506" lon="10.905464719980955">
        <ele>1327.690000000000055</ele>
        <time>2015-03-01T13:36:35Z</time>
      </trkpt>
      <trkpt lat="47.560379141941667" lon="10.905604027211666">
        <ele>1327</ele>
        <time>2015-03-01T13:36:47Z</time>
      </trkpt>
      <trkpt lat="47.560378471389413" lon="10.905643589794636">
        <ele>1327.150000000000091</ele>
        <time>2015-03-01T13:37:12Z</time>
      </trkpt>
      <trkpt lat="47.560402108356357" lon="10.905645098537207">
        <ele>1327.160000000000082</ele>
        <time>2015-03-01T13:37:31Z</time>
      </trkpt>
      <trkpt lat="47.560382913798094" lon="10.905676614493132">
        <ele>1326.630000000000109</ele>
        <time>2015-03-01T13:37:41Z</time>
      </trkpt>
      <trkpt lat="47.560426751151681" lon="10.905828075483441">
        <ele>1325.089999999999918</ele>
        <time>2015-03-01T13:37:46Z</time>
      </trkpt>
      <trkpt lat="47.560419123619795" lon="10.905847018584609">
        <ele>1325.079999999999927</ele>
        <time>2015-03-01T13:37:47Z</time>
      </trkpt>
      <trkpt lat="47.560412585735321" lon="10.905859004706144">
        <ele>1324.8599999999999</ele>
        <time>2015-03-01T13:37:48Z</time>
      </trkpt>
      <trkpt lat="47.560405880212784" lon="10.90587392449379">
        <ele>1324.880000000000109</ele>
        <time>2015-03-01T13:37:49Z</time>
      </trkpt>
      <trkpt lat="47.560400934889913" lon="10.905899237841368">
        <ele>1325.210000000000036</ele>
        <time>2015-03-01T13:37:50Z</time>
      </trkpt>
      <trkpt lat="47.560406131669879" lon="10.905928071588278">
        <ele>1324.710000000000036</ele>
        <time>2015-03-01T13:37:51Z</time>
      </trkpt>
      <trkpt lat="47.560420213267207" lon="10.905958749353886">
        <ele>1324.259999999999991</ele>
        <time>2015-03-01T13:37:52Z</time>
      </trkpt>
      <trkpt lat="47.560426667332649" lon="10.905996970832348">
        <ele>1323.230000000000018</ele>
        <time>2015-03-01T13:37:53Z</time>
      </trkpt>
      <trkpt lat="47.560422895476222" lon="10.906025553122163">
        <ele>1323.549999999999955</ele>
        <time>2015-03-01T13:37:54Z</time>
      </trkpt>
      <trkpt lat="47.560415435582399" lon="10.906040724366903">
        <ele>1323.180000000000064</ele>
        <time>2015-03-01T13:37:55Z</time>
      </trkpt>
      <trkpt lat="47.560385260730982" lon="10.906108450144529">
        <ele>1321.690000000000055</ele>
        <time>2015-03-01T13:37:59Z</time>
      </trkpt>
      <trkpt lat="47.56038567982614" lon="10.90616075322032">
        <ele>1321.029999999999973</ele>
        <time>2015-03-01T13:38:00Z</time>
      </trkpt>
      <trkpt lat="47.560383751988411" lon="10.906223282217979">
        <ele>1320.220000000000027</ele>
        <time>2015-03-01T13:38:01Z</time>
      </trkpt>
      <trkpt lat="47.560382494702935" lon="10.906285643577576">
        <ele>1319.430000000000064</ele>
        <time>2015-03-01T13:38:02Z</time>
      </trkpt>
      <trkpt lat="47.560379728674889" lon="10.906351190060377">
        <ele>1318.130000000000109</ele>
        <time>2015-03-01T13:38:03Z</time>
      </trkpt>
      <trkpt lat="47.560379058122635" lon="10.906410785391927">
        <ele>1316.950000000000045</ele>
        <time>2015-03-01T13:38:04Z</time>
      </trkpt>
      <trkpt lat="47.560376543551683" lon="10.906538190320134">
        <ele>1315.259999999999991</ele>
        <time>2015-03-01T13:38:06Z</time>
      </trkpt>
      <trkpt lat="47.560374112799764" lon="10.906601306051016">
        <ele>1314.730000000000018</ele>
        <time>2015-03-01T13:38:07Z</time>
      </trkpt>
      <trkpt lat="47.560365395620465" lon="10.906747821718454">
        <ele>1312.5</ele>
        <time>2015-03-01T13:38:09Z</time>
      </trkpt>
      <trkpt lat="47.560350224375725" lon="10.906817559152842">
        <ele>1311.470000000000027</ele>
        <time>2015-03-01T13:38:10Z</time>
      </trkpt>
      <trkpt lat="47.56032994017005" lon="10.90687857940793">
        <ele>1310.710000000000036</ele>
        <time>2015-03-01T13:38:11Z</time>
      </trkpt>
      <trkpt lat="47.560314098373055" lon="10.906934905797243">
        <ele>1310.759999999999991</ele>
        <time>2015-03-01T13:38:12Z</time>
      </trkpt>
      <trkpt lat="47.560300100594759" lon="10.906989639624953">
        <ele>1310.049999999999955</ele>
        <time>2015-03-01T13:38:13Z</time>
      </trkpt>
      <trkpt lat="47.560283839702606" lon="10.907040433958173">
        <ele>1309.730000000000018</ele>
        <time>2015-03-01T13:38:14Z</time>
      </trkpt>
      <trkpt lat="47.560265734791756" lon="10.907091144472361">
        <ele>1309.589999999999918</ele>
        <time>2015-03-01T13:38:15Z</time>
      </trkpt>
      <trkpt lat="47.560139503329992" lon="10.90751082636416">
        <ele>1307.769999999999982</ele>
        <time>2015-03-01T13:38:25Z</time>
      </trkpt>
      <trkpt lat="47.560070771723986" lon="10.907661952078342">
        <ele>1306.220000000000027</ele>
        <time>2015-03-01T13:38:28Z</time>
      </trkpt>
      <trkpt lat="47.560049649327993" lon="10.907726660370827">
        <ele>1304.960000000000036</ele>
        <time>2015-03-01T13:38:29Z</time>
      </trkpt>
      <trkpt lat="47.560054343193769" lon="10.907797571271658">
        <ele>1303.829999999999927</ele>
        <time>2015-03-01T13:38:30Z</time>
      </trkpt>
      <trkpt lat="47.56007295101881" lon="10.907857082784176">
        <ele>1302.650000000000091</ele>
        <time>2015-03-01T13:38:31Z</time>
      </trkpt>
      <trkpt lat="47.560133887454867" lon="10.90789052657783">
        <ele>1301.019999999999982</ele>
        <time>2015-03-01T13:38:33Z</time>
      </trkpt>
      <trkpt lat="47.560218879953027" lon="10.907932100817561">
        <ele>1298.980000000000018</ele>
        <time>2015-03-01T13:38:36Z</time>
      </trkpt>
      <trkpt lat="47.560219299048185" lon="10.908017093315721">
        <ele>1301.130000000000109</ele>
        <time>2015-03-01T13:38:58Z</time>
      </trkpt>
      <trkpt lat="47.560254419222474" lon="10.908086327835917">
        <ele>1300.849999999999909</ele>
        <time>2015-03-01T13:39:12Z</time>
      </trkpt>
      <trkpt lat="47.560245869681239" lon="10.908493688330054">
        <ele>1298.319999999999936</ele>
        <time>2015-03-01T13:39:26Z</time>
      </trkpt>
      <trkpt lat="47.560210917145014" lon="10.908704744651914">
        <ele>1296.769999999999982</ele>
        <time>2015-03-01T13:39:30Z</time>
      </trkpt>
      <trkpt lat="47.560195997357368" lon="10.908764423802495">
        <ele>1296.349999999999909</ele>
        <time>2015-03-01T13:39:31Z</time>
      </trkpt>
      <trkpt lat="47.560173952952027" lon="10.908823348581791">
        <ele>1295.779999999999973</ele>
        <time>2015-03-01T13:39:32Z</time>
      </trkpt>
      <trkpt lat="47.560156602412462" lon="10.908881854265928">
        <ele>1294.680000000000064</ele>
        <time>2015-03-01T13:39:33Z</time>
      </trkpt>
      <trkpt lat="47.560143191367388" lon="10.908950166776776">
        <ele>1294.170000000000073</ele>
        <time>2015-03-01T13:39:34Z</time>
      </trkpt>
      <trkpt lat="47.560122990980744" lon="10.909125348553061">
        <ele>1291.450000000000045</ele>
        <time>2015-03-01T13:39:36Z</time>
      </trkpt>
      <trkpt lat="47.560120895504951" lon="10.909226015210152">
        <ele>1290.440000000000055</ele>
        <time>2015-03-01T13:39:37Z</time>
      </trkpt>
      <trkpt lat="47.560117626562715" lon="10.909336404874921">
        <ele>1289</ele>
        <time>2015-03-01T13:39:38Z</time>
      </trkpt>
      <trkpt lat="47.560114106163383" lon="10.909542599692941">
        <ele>1285.839999999999918</ele>
        <time>2015-03-01T13:39:40Z</time>
      </trkpt>
      <trkpt lat="47.56010421551764" lon="10.909805539995432">
        <ele>1282.470000000000027</ele>
        <time>2015-03-01T13:39:43Z</time>
      </trkpt>
      <trkpt lat="47.560096587985754" lon="10.909885251894593">
        <ele>1281.75</ele>
        <time>2015-03-01T13:39:44Z</time>
      </trkpt>
      <trkpt lat="47.560095246881247" lon="10.909963035956025">
        <ele>1280.75</ele>
        <time>2015-03-01T13:39:45Z</time>
      </trkpt>
      <trkpt lat="47.560106981545687" lon="10.910249194130301">
        <ele>1278.519999999999982</ele>
        <time>2015-03-01T13:39:49Z</time>
      </trkpt>
      <trkpt lat="47.560132881626487" lon="10.910512050613761">
        <ele>1275.490000000000009</ele>
        <time>2015-03-01T13:39:53Z</time>
      </trkpt>
      <trkpt lat="47.560172276571393" lon="10.910787982866168">
        <ele>1272.25</ele>
        <time>2015-03-01T13:39:57Z</time>
      </trkpt>
      <trkpt lat="47.560193231329322" lon="10.911072883754969">
        <ele>1269.009999999999991</ele>
        <time>2015-03-01T13:40:01Z</time>
      </trkpt>
      <trkpt lat="47.56021368317306" lon="10.911378990858793">
        <ele>1265.130000000000109</ele>
        <time>2015-03-01T13:40:05Z</time>
      </trkpt>
      <trkpt lat="47.560217622667551" lon="10.911463312804699">
        <ele>1264.980000000000018</ele>
        <time>2015-03-01T13:40:06Z</time>
      </trkpt>
      <trkpt lat="47.560233380645514" lon="10.911777969449759">
        <ele>1262.130000000000109</ele>
        <time>2015-03-01T13:40:10Z</time>
      </trkpt>
      <trkpt lat="47.560241930186749" lon="10.911855585873127">
        <ele>1261.150000000000091</ele>
        <time>2015-03-01T13:40:11Z</time>
      </trkpt>
      <trkpt lat="47.56026204675436" lon="10.912013920024037">
        <ele>1259.829999999999927</ele>
        <time>2015-03-01T13:40:13Z</time>
      </trkpt>
      <trkpt lat="47.560273949056864" lon="10.912096230313182">
        <ele>1258.75</ele>
        <time>2015-03-01T13:40:14Z</time>
      </trkpt>
      <trkpt lat="47.560271518304944" lon="10.912180719897151">
        <ele>1258.130000000000109</ele>
        <time>2015-03-01T13:40:15Z</time>
      </trkpt>
      <trkpt lat="47.560277301818132" lon="10.912260180339217">
        <ele>1256.619999999999891</ele>
        <time>2015-03-01T13:40:16Z</time>
      </trkpt>
      <trkpt lat="47.560280989855528" lon="10.912335533648729">
        <ele>1255.569999999999936</ele>
        <time>2015-03-01T13:40:17Z</time>
      </trkpt>
      <trkpt lat="47.560285096988082" lon="10.912403510883451">
        <ele>1255.450000000000045</ele>
        <time>2015-03-01T13:40:18Z</time>
      </trkpt>
      <trkpt lat="47.560296412557364" lon="10.912458328530192">
        <ele>1253.769999999999982</ele>
        <time>2015-03-01T13:40:19Z</time>
      </trkpt>
      <trkpt lat="47.56031091324985" lon="10.912472996860743">
        <ele>1254.740000000000009</ele>
        <time>2015-03-01T13:40:26Z</time>
      </trkpt>
      <trkpt lat="47.560367491096258" lon="10.912483725696802">
        <ele>1253.069999999999936</ele>
        <time>2015-03-01T13:40:45Z</time>
      </trkpt>
      <trkpt lat="47.560389200225472" lon="10.912500573322177">
        <ele>1252.680000000000064</ele>
        <time>2015-03-01T13:40:46Z</time>
      </trkpt>
      <trkpt lat="47.560434797778726" lon="10.912584308534861">
        <ele>1251.130000000000109</ele>
        <time>2015-03-01T13:40:48Z</time>
      </trkpt>
      <trkpt lat="47.560465140268207" lon="10.912617668509483">
        <ele>1249.230000000000018</ele>
        <time>2015-03-01T13:40:49Z</time>
      </trkpt>
      <trkpt lat="47.560500763356686" lon="10.912649855017662">
        <ele>1248.160000000000082</ele>
        <time>2015-03-01T13:40:50Z</time>
      </trkpt>
      <trkpt lat="47.560542840510607" lon="10.912680616602302">
        <ele>1246.529999999999973</ele>
        <time>2015-03-01T13:40:51Z</time>
      </trkpt>
      <trkpt lat="47.560589946806431" lon="10.912715820595622">
        <ele>1244.460000000000036</ele>
        <time>2015-03-01T13:40:52Z</time>
      </trkpt>
      <trkpt lat="47.560636047273874" lon="10.912742642685771">
        <ele>1242.910000000000082</ele>
        <time>2015-03-01T13:40:53Z</time>
      </trkpt>
      <trkpt lat="47.560663456097245" lon="10.91274356469512">
        <ele>1243.8900000000001</ele>
        <time>2015-03-01T13:40:54Z</time>
      </trkpt>
      <trkpt lat="47.560704946517944" lon="10.912726130336523">
        <ele>1243.160000000000082</ele>
        <time>2015-03-01T13:41:00Z</time>
      </trkpt>
      <trkpt lat="47.56077510304749" lon="10.912744402885437">
        <ele>1240.440000000000055</ele>
        <time>2015-03-01T13:41:04Z</time>
      </trkpt>
      <trkpt lat="47.560729924589396" lon="10.912905838340521">
        <ele>1238.920000000000073</ele>
        <time>2015-03-01T13:41:20Z</time>
      </trkpt>
      <trkpt lat="47.560704192146659" lon="10.912938192486763">
        <ele>1238.440000000000055</ele>
        <time>2015-03-01T13:41:21Z</time>
      </trkpt>
      <trkpt lat="47.560678627341986" lon="10.912956548854709">
        <ele>1238.170000000000073</ele>
        <time>2015-03-01T13:41:22Z</time>
      </trkpt>
      <trkpt lat="47.560655493289232" lon="10.912995524704456">
        <ele>1238.089999999999918</ele>
        <time>2015-03-01T13:41:32Z</time>
      </trkpt>
      <trkpt lat="47.56066664122045" lon="10.913021257147193">
        <ele>1238.410000000000082</ele>
        <time>2015-03-01T13:41:40Z</time>
      </trkpt>
      <trkpt lat="47.560681896284223" lon="10.913090407848358">
        <ele>1236.8599999999999</ele>
        <time>2015-03-01T13:41:43Z</time>
      </trkpt>
      <trkpt lat="47.560686506330967" lon="10.913122678175569">
        <ele>1236.289999999999964</ele>
        <time>2015-03-01T13:41:44Z</time>
      </trkpt>
      <trkpt lat="47.560682818293571" lon="10.913151009008288">
        <ele>1235.210000000000036</ele>
        <time>2015-03-01T13:41:45Z</time>
      </trkpt>
      <trkpt lat="47.560669826343656" lon="10.913168778643012">
        <ele>1236.839999999999918</ele>
        <time>2015-03-01T13:41:46Z</time>
      </trkpt>
      <trkpt lat="47.560651218518615" lon="10.913176406174898">
        <ele>1234.849999999999909</ele>
        <time>2015-03-01T13:41:47Z</time>
      </trkpt>
      <trkpt lat="47.560639483854175" lon="10.913231894373894">
        <ele>1234.019999999999982</ele>
        <time>2015-03-01T13:41:56Z</time>
      </trkpt>
      <trkpt lat="47.56066563539207" lon="10.913295596837997">
        <ele>1230.430000000000064</ele>
        <time>2015-03-01T13:42:09Z</time>
      </trkpt>
      <trkpt lat="47.560671418905258" lon="10.913341278210282">
        <ele>1231.960000000000036</ele>
        <time>2015-03-01T13:42:26Z</time>
      </trkpt>
      <trkpt lat="47.560663791373372" lon="10.913475304841995">
        <ele>1230.119999999999891</ele>
        <time>2015-03-01T13:42:37Z</time>
      </trkpt>
      <trkpt lat="47.560652224346995" lon="10.913515035063028">
        <ele>1228.559999999999945</ele>
        <time>2015-03-01T13:42:39Z</time>
      </trkpt>
      <trkpt lat="47.560647279024124" lon="10.913565075024962">
        <ele>1226.829999999999927</ele>
        <time>2015-03-01T13:42:41Z</time>
      </trkpt>
      <trkpt lat="47.560656918212771" lon="10.91358644887805">
        <ele>1226.519999999999982</ele>
        <time>2015-03-01T13:42:42Z</time>
      </trkpt>
      <trkpt lat="47.560672173276544" lon="10.913615450263023">
        <ele>1227.1099999999999</ele>
        <time>2015-03-01T13:42:43Z</time>
      </trkpt>
      <trkpt lat="47.560687512159348" lon="10.913682505488396">
        <ele>1223.420000000000073</ele>
        <time>2015-03-01T13:42:44Z</time>
      </trkpt>
      <trkpt lat="47.560702934861183" lon="10.913753164932132">
        <ele>1223.599999999999909</ele>
        <time>2015-03-01T13:42:45Z</time>
      </trkpt>
      <trkpt lat="47.560711903497577" lon="10.913852993398905">
        <ele>1220.880000000000109</ele>
        <time>2015-03-01T13:42:47Z</time>
      </trkpt>
      <trkpt lat="47.560700923204422" lon="10.913891047239304">
        <ele>1221.559999999999945</ele>
        <time>2015-03-01T13:42:48Z</time>
      </trkpt>
      <trkpt lat="47.560689356178045" lon="10.913902446627617">
        <ele>1221.130000000000109</ele>
        <time>2015-03-01T13:42:49Z</time>
      </trkpt>
      <trkpt lat="47.560657924041152" lon="10.913963215425611">
        <ele>1220.1099999999999</ele>
        <time>2015-03-01T13:43:02Z</time>
      </trkpt>
      <trkpt lat="47.560649206861854" lon="10.914031695574522">
        <ele>1219.059999999999945</ele>
        <time>2015-03-01T13:43:04Z</time>
      </trkpt>
      <trkpt lat="47.56064803339541" lon="10.914074694737792">
        <ele>1217.529999999999973</ele>
        <time>2015-03-01T13:43:07Z</time>
      </trkpt>
      <trkpt lat="47.560650883242488" lon="10.914225401356816">
        <ele>1214.259999999999991</ele>
        <time>2015-03-01T13:43:14Z</time>
      </trkpt>
      <trkpt lat="47.560649625957012" lon="10.914271669462323">
        <ele>1214.240000000000009</ele>
        <time>2015-03-01T13:43:15Z</time>
      </trkpt>
      <trkpt lat="47.560636047273874" lon="10.914385244250298">
        <ele>1212.589999999999918</ele>
        <time>2015-03-01T13:43:17Z</time>
      </trkpt>
      <trkpt lat="47.56061140447855" lon="10.914503093808889">
        <ele>1210.980000000000018</ele>
        <time>2015-03-01T13:43:19Z</time>
      </trkpt>
      <trkpt lat="47.560578295961022" lon="10.914742145687342">
        <ele>1207.920000000000073</ele>
        <time>2015-03-01T13:43:24Z</time>
      </trkpt>
      <trkpt lat="47.560596652328968" lon="10.914921686053276">
        <ele>1205.240000000000009</ele>
        <time>2015-03-01T13:43:27Z</time>
      </trkpt>
      <trkpt lat="47.560597909614444" lon="10.914984131231904">
        <ele>1205.029999999999973</ele>
        <time>2015-03-01T13:43:28Z</time>
      </trkpt>
      <trkpt lat="47.560605118051171" lon="10.91504842042923">
        <ele>1203.299999999999955</ele>
        <time>2015-03-01T13:43:29Z</time>
      </trkpt>
      <trkpt lat="47.560608722269535" lon="10.91512612067163">
        <ele>1202.829999999999927</ele>
        <time>2015-03-01T13:43:30Z</time>
      </trkpt>
      <trkpt lat="47.560623809695244" lon="10.915205413475633">
        <ele>1200.920000000000073</ele>
        <time>2015-03-01T13:43:31Z</time>
      </trkpt>
      <trkpt lat="47.560635460540652" lon="10.915279509499669">
        <ele>1201.480000000000018</ele>
        <time>2015-03-01T13:43:32Z</time>
      </trkpt>
      <trkpt lat="47.560656331479549" lon="10.915345642715693">
        <ele>1200.920000000000073</ele>
        <time>2015-03-01T13:43:33Z</time>
      </trkpt>
      <trkpt lat="47.560671670362353" lon="10.915405824780464">
        <ele>1199.710000000000036</ele>
        <time>2015-03-01T13:43:34Z</time>
      </trkpt>
      <trkpt lat="47.560701258480549" lon="10.915576480329037">
        <ele>1198.680000000000064</ele>
        <time>2015-03-01T13:43:37Z</time>
      </trkpt>
      <trkpt lat="47.560704108327627" lon="10.915640853345394">
        <ele>1198.6099999999999</ele>
        <time>2015-03-01T13:43:38Z</time>
      </trkpt>
      <trkpt lat="47.560699246823788" lon="10.915701203048229">
        <ele>1197.420000000000073</ele>
        <time>2015-03-01T13:43:39Z</time>
      </trkpt>
      <trkpt lat="47.560697151347995" lon="10.915771359577775">
        <ele>1195.8900000000001</ele>
        <time>2015-03-01T13:43:40Z</time>
      </trkpt>
      <trkpt lat="47.56068566814065" lon="10.915846545249224">
        <ele>1195.339999999999918</ele>
        <time>2015-03-01T13:43:41Z</time>
      </trkpt>
      <trkpt lat="47.56067686714232" lon="10.915918126702309">
        <ele>1193.019999999999982</ele>
        <time>2015-03-01T13:43:42Z</time>
      </trkpt>
      <trkpt lat="47.560665467754006" lon="10.915987025946379">
        <ele>1193.339999999999918</ele>
        <time>2015-03-01T13:43:43Z</time>
      </trkpt>
      <trkpt lat="47.560660438612103" lon="10.916059026494622">
        <ele>1192.059999999999945</ele>
        <time>2015-03-01T13:43:44Z</time>
      </trkpt>
      <trkpt lat="47.560647781938314" lon="10.916128009557724">
        <ele>1191.920000000000073</ele>
        <time>2015-03-01T13:43:45Z</time>
      </trkpt>
      <trkpt lat="47.560633700340986" lon="10.91619037091732">
        <ele>1191.289999999999964</ele>
        <time>2015-03-01T13:43:46Z</time>
      </trkpt>
      <trkpt lat="47.560596987605095" lon="10.91641123406589">
        <ele>1187.720000000000027</ele>
        <time>2015-03-01T13:43:50Z</time>
      </trkpt>
      <trkpt lat="47.560589108616114" lon="10.916461609303951">
        <ele>1187.829999999999927</ele>
        <time>2015-03-01T13:43:51Z</time>
      </trkpt>
      <trkpt lat="47.560512665659189" lon="10.916716251522303">
        <ele>1184.480000000000018</ele>
        <time>2015-03-01T13:43:57Z</time>
      </trkpt>
      <trkpt lat="47.560502272099257" lon="10.916770817711949">
        <ele>1182.630000000000109</ele>
        <time>2015-03-01T13:43:58Z</time>
      </trkpt>
      <trkpt lat="47.560501433908939" lon="10.916820941492915">
        <ele>1182.259999999999991</ele>
        <time>2015-03-01T13:43:59Z</time>
      </trkpt>
      <trkpt lat="47.560513755306602" lon="10.916863940656185">
        <ele>1181.8599999999999</ele>
        <time>2015-03-01T13:44:00Z</time>
      </trkpt>
      <trkpt lat="47.560577290132642" lon="10.916905933991075">
        <ele>1180.25</ele>
        <time>2015-03-01T13:44:02Z</time>
      </trkpt>
      <trkpt lat="47.560597155243158" lon="10.916894366964698">
        <ele>1179.079999999999927</ele>
        <time>2015-03-01T13:44:03Z</time>
      </trkpt>
      <trkpt lat="47.560609141364694" lon="10.916875591501594">
        <ele>1179.369999999999891</ele>
        <time>2015-03-01T13:44:04Z</time>
      </trkpt>
      <trkpt lat="47.560765044763684" lon="10.916585829108953">
        <ele>1178.660000000000082</ele>
        <time>2015-03-01T13:44:20Z</time>
      </trkpt>
      <trkpt lat="47.560917343944311" lon="10.916275279596448">
        <ele>1176.460000000000036</ele>
        <time>2015-03-01T13:44:31Z</time>
      </trkpt>
      <trkpt lat="47.561203585937619" lon="10.916222892701626">
        <ele>1175.099999999999909</ele>
        <time>2015-03-01T13:44:43Z</time>
      </trkpt>
      <trkpt lat="47.561451522633433" lon="10.916538387537003">
        <ele>1172.319999999999936</ele>
        <time>2015-03-01T13:44:55Z</time>
      </trkpt>
      <trkpt lat="47.561605833470821" lon="10.916692027822137">
        <ele>1169.950000000000045</ele>
        <time>2015-03-01T13:45:01Z</time>
      </trkpt>
      <trkpt lat="47.561638355255127" lon="10.916723040863872">
        <ele>1169.509999999999991</ele>
        <time>2015-03-01T13:45:02Z</time>
      </trkpt>
      <trkpt lat="47.561825606971979" lon="10.916860504075885">
        <ele>1167.029999999999973</ele>
        <time>2015-03-01T13:45:07Z</time>
      </trkpt>
      <trkpt lat="47.561865001916885" lon="10.916900653392076">
        <ele>1166.220000000000027</ele>
        <time>2015-03-01T13:45:08Z</time>
      </trkpt>
      <trkpt lat="47.561908336356282" lon="10.916940215975046">
        <ele>1164.930000000000064</ele>
        <time>2015-03-01T13:45:09Z</time>
      </trkpt>
      <trkpt lat="47.561994418501854" lon="10.917033590376377">
        <ele>1163.799999999999955</ele>
        <time>2015-03-01T13:45:11Z</time>
      </trkpt>
      <trkpt lat="47.56213691085577" lon="10.917251100763679">
        <ele>1161.299999999999955</ele>
        <time>2015-03-01T13:45:15Z</time>
      </trkpt>
      <trkpt lat="47.562192063778639" lon="10.917458552867174">
        <ele>1159.690000000000055</ele>
        <time>2015-03-01T13:45:19Z</time>
      </trkpt>
      <trkpt lat="47.562214024364948" lon="10.917513705790043">
        <ele>1158.549999999999955</ele>
        <time>2015-03-01T13:45:20Z</time>
      </trkpt>
      <trkpt lat="47.562233805656433" lon="10.917572295293212">
        <ele>1158.579999999999927</ele>
        <time>2015-03-01T13:45:21Z</time>
      </trkpt>
      <trkpt lat="47.562273535877466" lon="10.917691569775343">
        <ele>1157.019999999999982</ele>
        <time>2015-03-01T13:45:23Z</time>
      </trkpt>
      <trkpt lat="47.562293400987983" lon="10.91775300912559">
        <ele>1156.539999999999964</ele>
        <time>2015-03-01T13:45:24Z</time>
      </trkpt>
      <trkpt lat="47.562349895015359" lon="10.917929615825415">
        <ele>1155.240000000000009</ele>
        <time>2015-03-01T13:45:27Z</time>
      </trkpt>
      <trkpt lat="47.562388116493821" lon="10.918043777346611">
        <ele>1154.380000000000109</ele>
        <time>2015-03-01T13:45:29Z</time>
      </trkpt>
      <trkpt lat="47.562503786757588" lon="10.918372431769967">
        <ele>1150.930000000000064</ele>
        <time>2015-03-01T13:45:35Z</time>
      </trkpt>
      <trkpt lat="47.56252583116293" lon="10.918422136455774">
        <ele>1150.900000000000091</ele>
        <time>2015-03-01T13:45:36Z</time>
      </trkpt>
      <trkpt lat="47.562613673508167" lon="10.918602347373962">
        <ele>1149.420000000000073</ele>
        <time>2015-03-01T13:45:40Z</time>
      </trkpt>
      <trkpt lat="47.562635634094477" lon="10.918657500296831">
        <ele>1148.509999999999991</ele>
        <time>2015-03-01T13:45:41Z</time>
      </trkpt>
      <trkpt lat="47.56266413256526" lon="10.918712988495827">
        <ele>1147.900000000000091</ele>
        <time>2015-03-01T13:45:42Z</time>
      </trkpt>
      <trkpt lat="47.562720878049731" lon="10.91882748529315">
        <ele>1146.650000000000091</ele>
        <time>2015-03-01T13:45:44Z</time>
      </trkpt>
      <trkpt lat="47.562746526673436" lon="10.918893367052078">
        <ele>1145.930000000000064</ele>
        <time>2015-03-01T13:45:45Z</time>
      </trkpt>
      <trkpt lat="47.562774270772934" lon="10.918955057859421">
        <ele>1145.220000000000027</ele>
        <time>2015-03-01T13:45:46Z</time>
      </trkpt>
      <trkpt lat="47.562880637124181" lon="10.919210789725184">
        <ele>1142.549999999999955</ele>
        <time>2015-03-01T13:45:50Z</time>
      </trkpt>
      <trkpt lat="47.562926989048719" lon="10.919347414746881">
        <ele>1140.579999999999927</ele>
        <time>2015-03-01T13:45:52Z</time>
      </trkpt>
      <trkpt lat="47.562954984605312" lon="10.919405249878764">
        <ele>1139.849999999999909</ele>
        <time>2015-03-01T13:45:53Z</time>
      </trkpt>
      <trkpt lat="47.562978118658066" lon="10.919462414458394">
        <ele>1139.869999999999891</ele>
        <time>2015-03-01T13:45:54Z</time>
      </trkpt>
      <trkpt lat="47.563009802252054" lon="10.919508347287774">
        <ele>1139.289999999999964</ele>
        <time>2015-03-01T13:45:55Z</time>
      </trkpt>
      <trkpt lat="47.563030421733856" lon="10.919558219611645">
        <ele>1138.569999999999936</ele>
        <time>2015-03-01T13:45:56Z</time>
      </trkpt>
      <trkpt lat="47.563052382320166" lon="10.919610690325499">
        <ele>1138.029999999999973</ele>
        <time>2015-03-01T13:45:57Z</time>
      </trkpt>
      <trkpt lat="47.563109043985605" lon="10.919802468270063">
        <ele>1136.339999999999918</ele>
        <time>2015-03-01T13:46:00Z</time>
      </trkpt>
      <trkpt lat="47.563139637932181" lon="10.919939512386918">
        <ele>1134.690000000000055</ele>
        <time>2015-03-01T13:46:02Z</time>
      </trkpt>
      <trkpt lat="47.56321725435555" lon="10.920221982523799">
        <ele>1131.789999999999964</ele>
        <time>2015-03-01T13:46:06Z</time>
      </trkpt>
      <trkpt lat="47.563239466398954" lon="10.920292222872376">
        <ele>1131.049999999999955</ele>
        <time>2015-03-01T13:46:07Z</time>
      </trkpt>
      <trkpt lat="47.563257068395615" lon="10.920365480706096">
        <ele>1130.099999999999909</ele>
        <time>2015-03-01T13:46:08Z</time>
      </trkpt>
      <trkpt lat="47.563291350379586" lon="10.920506631955504">
        <ele>1128.150000000000091</ele>
        <time>2015-03-01T13:46:10Z</time>
      </trkpt>
      <trkpt lat="47.563304007053375" lon="10.920581817626953">
        <ele>1127.990000000000009</ele>
        <time>2015-03-01T13:46:11Z</time>
      </trkpt>
      <trkpt lat="47.563315322622657" lon="10.920649291947484">
        <ele>1127.589999999999918</ele>
        <time>2015-03-01T13:46:12Z</time>
      </trkpt>
      <trkpt lat="47.563350358977914" lon="10.920893372967839">
        <ele>1125.549999999999955</ele>
        <time>2015-03-01T13:46:16Z</time>
      </trkpt>
      <trkpt lat="47.563398638740182" lon="10.921297464519739">
        <ele>1123.259999999999991</ele>
        <time>2015-03-01T13:46:27Z</time>
      </trkpt>
      <trkpt lat="47.563402494415641" lon="10.921323616057634">
        <ele>1123.259999999999991</ele>
        <time>2015-03-01T13:46:29Z</time>
      </trkpt>
      <trkpt lat="47.563428897410631" lon="10.921396957710385">
        <ele>1123.710000000000036</ele>
        <time>2015-03-01T13:46:34Z</time>
      </trkpt>
      <trkpt lat="47.563438955694437" lon="10.921416068449616">
        <ele>1123.519999999999982</ele>
        <time>2015-03-01T13:46:35Z</time>
      </trkpt>
      <trkpt lat="47.563450103625655" lon="10.921433586627245">
        <ele>1123.210000000000036</ele>
        <time>2015-03-01T13:46:36Z</time>
      </trkpt>
      <trkpt lat="47.563462425023317" lon="10.921449344605207">
        <ele>1122.869999999999891</ele>
        <time>2015-03-01T13:46:37Z</time>
      </trkpt>
      <trkpt lat="47.563477596268058" lon="10.921462504193187">
        <ele>1123.029999999999973</ele>
        <time>2015-03-01T13:46:38Z</time>
      </trkpt>
      <trkpt lat="47.563493773341179" lon="10.921475077047944">
        <ele>1123</ele>
        <time>2015-03-01T13:46:39Z</time>
      </trkpt>
      <trkpt lat="47.5637396145612" lon="10.921449093148112">
        <ele>1121.329999999999927</ele>
        <time>2015-03-01T13:46:53Z</time>
      </trkpt>
      <trkpt lat="47.564030550420284" lon="10.921494523063302">
        <ele>1119.160000000000082</ele>
        <time>2015-03-01T13:47:08Z</time>
      </trkpt>
      <trkpt lat="47.564262729138136" lon="10.921618239954114">
        <ele>1116.269999999999982</ele>
        <time>2015-03-01T13:47:16Z</time>
      </trkpt>
      <trkpt lat="47.564307069405913" lon="10.921650175005198">
        <ele>1115.460000000000036</ele>
        <time>2015-03-01T13:47:17Z</time>
      </trkpt>
      <trkpt lat="47.564463140442967" lon="10.921783028170466">
        <ele>1112.130000000000109</ele>
        <time>2015-03-01T13:47:20Z</time>
      </trkpt>
      <trkpt lat="47.564489794895053" lon="10.921855280175805">
        <ele>1110.8900000000001</ele>
        <time>2015-03-01T13:47:21Z</time>
      </trkpt>
      <trkpt lat="47.564491806551814" lon="10.92193515971303">
        <ele>1109.930000000000064</ele>
        <time>2015-03-01T13:47:22Z</time>
      </trkpt>
      <trkpt lat="47.56447596475482" lon="10.922015039250255">
        <ele>1109.180000000000064</ele>
        <time>2015-03-01T13:47:23Z</time>
      </trkpt>
      <trkpt lat="47.564445119351149" lon="10.922086117789149">
        <ele>1108.210000000000036</ele>
        <time>2015-03-01T13:47:24Z</time>
      </trkpt>
      <trkpt lat="47.564406311139464" lon="10.92215065844357">
        <ele>1106.779999999999973</ele>
        <time>2015-03-01T13:47:25Z</time>
      </trkpt>
      <trkpt lat="47.564367922022939" lon="10.922209750860929">
        <ele>1105.759999999999991</ele>
        <time>2015-03-01T13:47:26Z</time>
      </trkpt>
      <trkpt lat="47.564328275620937" lon="10.92226012609899">
        <ele>1104.910000000000082</ele>
        <time>2015-03-01T13:47:27Z</time>
      </trkpt>
      <trkpt lat="47.564220065250993" lon="10.922383591532707">
        <ele>1103.349999999999909</ele>
        <time>2015-03-01T13:47:30Z</time>
      </trkpt>
      <trkpt lat="47.56418670527637" lon="10.922415610402822">
        <ele>1102.3599999999999</ele>
        <time>2015-03-01T13:47:31Z</time>
      </trkpt>
      <trkpt lat="47.564164660871029" lon="10.922450143843889">
        <ele>1102.6099999999999</ele>
        <time>2015-03-01T13:47:32Z</time>
      </trkpt>
      <trkpt lat="47.564143035560846" lon="10.92247654683888">
        <ele>1101.789999999999964</ele>
        <time>2015-03-01T13:47:33Z</time>
      </trkpt>
      <trkpt lat="47.564123002812266" lon="10.92250001616776">
        <ele>1101.970000000000027</ele>
        <time>2015-03-01T13:47:34Z</time>
      </trkpt>
      <trkpt lat="47.564101377502084" lon="10.922527341172099">
        <ele>1101.869999999999891</ele>
        <time>2015-03-01T13:47:35Z</time>
      </trkpt>
      <trkpt lat="47.563932985067368" lon="10.922754323109984">
        <ele>1099.680000000000064</ele>
        <time>2015-03-01T13:47:42Z</time>
      </trkpt>
      <trkpt lat="47.56392627954483" lon="10.922817857936025">
        <ele>1098.990000000000009</ele>
        <time>2015-03-01T13:47:43Z</time>
      </trkpt>
      <trkpt lat="47.563931727781892" lon="10.922885918989778">
        <ele>1098.289999999999964</ele>
        <time>2015-03-01T13:47:44Z</time>
      </trkpt>
      <trkpt lat="47.563956957310438" lon="10.922950627282262">
        <ele>1097.269999999999982</ele>
        <time>2015-03-01T13:47:45Z</time>
      </trkpt>
      <trkpt lat="47.563988557085395" lon="10.923012066632509">
        <ele>1096.480000000000018</ele>
        <time>2015-03-01T13:47:46Z</time>
      </trkpt>
      <trkpt lat="47.564031556248665" lon="10.923067554831505">
        <ele>1096.180000000000064</ele>
        <time>2015-03-01T13:47:47Z</time>
      </trkpt>
      <trkpt lat="47.564082182943821" lon="10.923118265345693">
        <ele>1094.8900000000001</ele>
        <time>2015-03-01T13:47:48Z</time>
      </trkpt>
      <trkpt lat="47.564135324209929" lon="10.923165120184422">
        <ele>1093.829999999999927</ele>
        <time>2015-03-01T13:47:49Z</time>
      </trkpt>
      <trkpt lat="47.564190309494734" lon="10.923211555927992">
        <ele>1092</ele>
        <time>2015-03-01T13:47:50Z</time>
      </trkpt>
      <trkpt lat="47.564246216788888" lon="10.923258829861879">
        <ele>1091.119999999999891</ele>
        <time>2015-03-01T13:47:51Z</time>
      </trkpt>
      <trkpt lat="47.564482502639294" lon="10.923418337479234">
        <ele>1087.589999999999918</ele>
        <time>2015-03-01T13:47:55Z</time>
      </trkpt>
      <trkpt lat="47.564537655562162" lon="10.923468209803104">
        <ele>1086.589999999999918</ele>
        <time>2015-03-01T13:47:56Z</time>
      </trkpt>
      <trkpt lat="47.564633628353477" lon="10.923570217564702">
        <ele>1084.619999999999891</ele>
        <time>2015-03-01T13:47:58Z</time>
      </trkpt>
      <trkpt lat="47.564672101289034" lon="10.923636266961694">
        <ele>1083.549999999999955</ele>
        <time>2015-03-01T13:47:59Z</time>
      </trkpt>
      <trkpt lat="47.564706383273005" lon="10.923714889213443">
        <ele>1082.470000000000027</ele>
        <time>2015-03-01T13:48:00Z</time>
      </trkpt>
      <trkpt lat="47.564736222848296" lon="10.923799881711602">
        <ele>1081.680000000000064</ele>
        <time>2015-03-01T13:48:01Z</time>
      </trkpt>
      <trkpt lat="47.564764972776175" lon="10.923884455114603">
        <ele>1080.490000000000009</ele>
        <time>2015-03-01T13:48:02Z</time>
      </trkpt>
      <trkpt lat="47.564847869798541" lon="10.924143707379699">
        <ele>1077.349999999999909</ele>
        <time>2015-03-01T13:48:05Z</time>
      </trkpt>
      <trkpt lat="47.564914170652628" lon="10.924424501135945">
        <ele>1073.630000000000109</ele>
        <time>2015-03-01T13:48:08Z</time>
      </trkpt>
      <trkpt lat="47.564937891438603" lon="10.924717867746949">
        <ele>1069.940000000000055</ele>
        <time>2015-03-01T13:48:11Z</time>
      </trkpt>
      <trkpt lat="47.564932107925415" lon="10.924909478053451">
        <ele>1068.160000000000082</ele>
        <time>2015-03-01T13:48:13Z</time>
      </trkpt>
      <trkpt lat="47.564922133460641" lon="10.925008887425065">
        <ele>1066.700000000000045</ele>
        <time>2015-03-01T13:48:14Z</time>
      </trkpt>
      <trkpt lat="47.56486689671874" lon="10.925298565998673">
        <ele>1063.210000000000036</ele>
        <time>2015-03-01T13:48:17Z</time>
      </trkpt>
      <trkpt lat="47.564806463196874" lon="10.925468550994992">
        <ele>1061.529999999999973</ele>
        <time>2015-03-01T13:48:19Z</time>
      </trkpt>
      <trkpt lat="47.564664892852306" lon="10.925808940082788">
        <ele>1057.869999999999891</ele>
        <time>2015-03-01T13:48:24Z</time>
      </trkpt>
      <trkpt lat="47.564647793769836" lon="10.925879180431366">
        <ele>1057.170000000000073</ele>
        <time>2015-03-01T13:48:25Z</time>
      </trkpt>
      <trkpt lat="47.564636478200555" lon="10.925954533740878">
        <ele>1056.319999999999936</ele>
        <time>2015-03-01T13:48:26Z</time>
      </trkpt>
      <trkpt lat="47.564632454887033" lon="10.926029719412327">
        <ele>1055.869999999999891</ele>
        <time>2015-03-01T13:48:27Z</time>
      </trkpt>
      <trkpt lat="47.564633209258318" lon="10.926103899255395">
        <ele>1055.309999999999945</ele>
        <time>2015-03-01T13:48:28Z</time>
      </trkpt>
      <trkpt lat="47.564638825133443" lon="10.926180426031351">
        <ele>1054.130000000000109</ele>
        <time>2015-03-01T13:48:29Z</time>
      </trkpt>
      <trkpt lat="47.564645614475012" lon="10.926259635016322">
        <ele>1053.339999999999918</ele>
        <time>2015-03-01T13:48:30Z</time>
      </trkpt>
      <trkpt lat="47.564656510949135" lon="10.926340101286769">
        <ele>1052.549999999999955</ele>
        <time>2015-03-01T13:48:31Z</time>
      </trkpt>
      <trkpt lat="47.564676208421588" lon="10.926587702706456">
        <ele>1049.619999999999891</ele>
        <time>2015-03-01T13:48:34Z</time>
      </trkpt>
      <trkpt lat="47.564665731042624" lon="10.92666951008141">
        <ele>1048.410000000000082</ele>
        <time>2015-03-01T13:48:35Z</time>
      </trkpt>
      <trkpt lat="47.564652236178517" lon="10.926744695752859">
        <ele>1048.220000000000027</ele>
        <time>2015-03-01T13:48:36Z</time>
      </trkpt>
      <trkpt lat="47.564616445451975" lon="10.926876040175557">
        <ele>1046.970000000000027</ele>
        <time>2015-03-01T13:48:38Z</time>
      </trkpt>
      <trkpt lat="47.564597586169839" lon="10.926933204755187">
        <ele>1046.25</ele>
        <time>2015-03-01T13:48:39Z</time>
      </trkpt>
      <trkpt lat="47.564580738544464" lon="10.926992213353515">
        <ele>1046.039999999999964</ele>
        <time>2015-03-01T13:48:40Z</time>
      </trkpt>
      <trkpt lat="47.564543187618256" lon="10.927105117589235">
        <ele>1044.769999999999982</ele>
        <time>2015-03-01T13:48:42Z</time>
      </trkpt>
      <trkpt lat="47.564508654177189" lon="10.927151050418615">
        <ele>1044.299999999999955</ele>
        <time>2015-03-01T13:48:43Z</time>
      </trkpt>
      <trkpt lat="47.564477389678359" lon="10.927199246361852">
        <ele>1043.880000000000109</ele>
        <time>2015-03-01T13:48:44Z</time>
      </trkpt>
      <trkpt lat="47.56440220400691" lon="10.927350707352161">
        <ele>1042.490000000000009</ele>
        <time>2015-03-01T13:48:47Z</time>
      </trkpt>
      <trkpt lat="47.564330957829952" lon="10.927499150857329">
        <ele>1040.799999999999955</ele>
        <time>2015-03-01T13:48:50Z</time>
      </trkpt>
      <trkpt lat="47.564285192638636" lon="10.927680199965835">
        <ele>1038.990000000000009</ele>
        <time>2015-03-01T13:48:53Z</time>
      </trkpt>
      <trkpt lat="47.564275804907084" lon="10.927745746448636">
        <ele>1038.460000000000036</ele>
        <time>2015-03-01T13:48:54Z</time>
      </trkpt>
      <trkpt lat="47.564268764108419" lon="10.927807604894042">
        <ele>1038.200000000000045</ele>
        <time>2015-03-01T13:48:55Z</time>
      </trkpt>
      <trkpt lat="47.564249569550157" lon="10.928205493837595">
        <ele>1035.259999999999991</ele>
        <time>2015-03-01T13:49:02Z</time>
      </trkpt>
      <trkpt lat="47.564239427447319" lon="10.928270453587174">
        <ele>1034.3900000000001</ele>
        <time>2015-03-01T13:49:03Z</time>
      </trkpt>
      <trkpt lat="47.564184693619609" lon="10.928573627024889">
        <ele>1030.849999999999909</ele>
        <time>2015-03-01T13:49:07Z</time>
      </trkpt>
      <trkpt lat="47.564161224290729" lon="10.928645376116037">
        <ele>1030.1099999999999</ele>
        <time>2015-03-01T13:49:08Z</time>
      </trkpt>
      <trkpt lat="47.564128702506423" lon="10.928705641999841">
        <ele>1029.319999999999936</ele>
        <time>2015-03-01T13:49:09Z</time>
      </trkpt>
      <trkpt lat="47.564090145751834" lon="10.928754257038236">
        <ele>1029.480000000000018</ele>
        <time>2015-03-01T13:49:10Z</time>
      </trkpt>
      <trkpt lat="47.564049325883389" lon="10.928794741630554">
        <ele>1028.509999999999991</ele>
        <time>2015-03-01T13:49:11Z</time>
      </trkpt>
      <trkpt lat="47.564013032242656" lon="10.928828185424209">
        <ele>1027.950000000000045</ele>
        <time>2015-03-01T13:49:12Z</time>
      </trkpt>
      <trkpt lat="47.563928794115782" lon="10.928900856524706">
        <ele>1026.730000000000018</ele>
        <time>2015-03-01T13:49:15Z</time>
      </trkpt>
      <trkpt lat="47.563817985355854" lon="10.929202688857913">
        <ele>1025.900000000000091</ele>
        <time>2015-03-01T13:49:26Z</time>
      </trkpt>
      <trkpt lat="47.563773645088077" lon="10.929591609165072">
        <ele>1022.870000000000005</ele>
        <time>2015-03-01T13:49:35Z</time>
      </trkpt>
      <trkpt lat="47.563759479671717" lon="10.929652294144034">
        <ele>1022.259999999999991</ele>
        <time>2015-03-01T13:49:36Z</time>
      </trkpt>
      <trkpt lat="47.563738524913788" lon="10.929708117619157">
        <ele>1021.57000000000005</ele>
        <time>2015-03-01T13:49:37Z</time>
      </trkpt>
      <trkpt lat="47.563709607347846" lon="10.929755140095949">
        <ele>1020.740000000000009</ele>
        <time>2015-03-01T13:49:38Z</time>
      </trkpt>
      <trkpt lat="47.56367021240294" lon="10.929790595546365">
        <ele>1019.909999999999968</ele>
        <time>2015-03-01T13:49:39Z</time>
      </trkpt>
      <trkpt lat="47.563623106107116" lon="10.929810712113976">
        <ele>1019.190000000000055</ele>
        <time>2015-03-01T13:49:40Z</time>
      </trkpt>
      <trkpt lat="47.563573904335499" lon="10.929816830903292">
        <ele>1018.350000000000023</ele>
        <time>2015-03-01T13:49:41Z</time>
      </trkpt>
      <trkpt lat="47.563515901565552" lon="10.929818758741021">
        <ele>1017.230000000000018</ele>
        <time>2015-03-01T13:49:42Z</time>
      </trkpt>
      <trkpt lat="47.563394783064723" lon="10.929833007976413">
        <ele>1015.399999999999977</ele>
        <time>2015-03-01T13:49:44Z</time>
      </trkpt>
      <trkpt lat="47.563336277380586" lon="10.92984851449728">
        <ele>1014.850000000000023</ele>
        <time>2015-03-01T13:49:45Z</time>
      </trkpt>
      <trkpt lat="47.563279783353209" lon="10.929870391264558">
        <ele>1013.620000000000005</ele>
        <time>2015-03-01T13:49:46Z</time>
      </trkpt>
      <trkpt lat="47.563228402286768" lon="10.929893106222153">
        <ele>1013.669999999999959</ele>
        <time>2015-03-01T13:49:47Z</time>
      </trkpt>
      <trkpt lat="47.563027488067746" lon="10.929999556392431">
        <ele>1009.879999999999995</ele>
        <time>2015-03-01T13:49:51Z</time>
      </trkpt>
      <trkpt lat="47.562894718721509" lon="10.930077927187085">
        <ele>1008.25</ele>
        <time>2015-03-01T13:49:54Z</time>
      </trkpt>
      <trkpt lat="47.562708053737879" lon="10.930221593007445">
        <ele>1006.419999999999959</ele>
        <time>2015-03-01T13:49:59Z</time>
      </trkpt>
      <trkpt lat="47.562637645751238" lon="10.930275488644838">
        <ele>1005.470000000000027</ele>
        <time>2015-03-01T13:50:01Z</time>
      </trkpt>
      <trkpt lat="47.562608644366264" lon="10.930316811427474">
        <ele>1004.580000000000041</ele>
        <time>2015-03-01T13:50:02Z</time>
      </trkpt>
      <trkpt lat="47.562576290220022" lon="10.930357379838824">
        <ele>1004.549999999999955</ele>
        <time>2015-03-01T13:50:03Z</time>
      </trkpt>
      <trkpt lat="47.562551144510508" lon="10.930405743420124">
        <ele>1004.220000000000027</ele>
        <time>2015-03-01T13:50:04Z</time>
      </trkpt>
      <trkpt lat="47.5625273399055" lon="10.93046709895134">
        <ele>1003.82000000000005</ele>
        <time>2015-03-01T13:50:05Z</time>
      </trkpt>
      <trkpt lat="47.562516946345568" lon="10.930537171661854">
        <ele>1002.669999999999959</ele>
        <time>2015-03-01T13:50:06Z</time>
      </trkpt>
      <trkpt lat="47.562520634382963" lon="10.930601125583053">
        <ele>1002.620000000000005</ele>
        <time>2015-03-01T13:50:07Z</time>
      </trkpt>
      <trkpt lat="47.562543349340558" lon="10.930656529963017">
        <ele>1001.919999999999959</ele>
        <time>2015-03-01T13:50:08Z</time>
      </trkpt>
      <trkpt lat="47.562568746507168" lon="10.930701373144984">
        <ele>1001.509999999999991</ele>
        <time>2015-03-01T13:50:09Z</time>
      </trkpt>
      <trkpt lat="47.562601016834378" lon="10.930737918242812">
        <ele>1000.950000000000045</ele>
        <time>2015-03-01T13:50:10Z</time>
      </trkpt>
      <trkpt lat="47.562631191685796" lon="10.930762644857168">
        <ele>1001.029999999999973</ele>
        <time>2015-03-01T13:50:11Z</time>
      </trkpt>
      <trkpt lat="47.562661031261086" lon="10.930775804445148">
        <ele>999.940000000000055</ele>
        <time>2015-03-01T13:50:12Z</time>
      </trkpt>
      <trkpt lat="47.562692882493138" lon="10.930777648463845">
        <ele>1000.129999999999995</ele>
        <time>2015-03-01T13:50:13Z</time>
      </trkpt>
      <trkpt lat="47.562722135335207" lon="10.93077446334064">
        <ele>999.419999999999959</ele>
        <time>2015-03-01T13:50:14Z</time>
      </trkpt>
      <trkpt lat="47.562840068712831" lon="10.930762477219105">
        <ele>997.07000000000005</ele>
        <time>2015-03-01T13:50:17Z</time>
      </trkpt>
      <trkpt lat="47.562886085361242" lon="10.930768260732293">
        <ele>997.399999999999977</ele>
        <time>2015-03-01T13:50:18Z</time>
      </trkpt>
      <trkpt lat="47.5629279948771" lon="10.930789299309254">
        <ele>996.059999999999945</ele>
        <time>2015-03-01T13:50:19Z</time>
      </trkpt>
      <trkpt lat="47.562966216355562" lon="10.930830538272858">
        <ele>994.879999999999995</ele>
        <time>2015-03-01T13:50:20Z</time>
      </trkpt>
      <trkpt lat="47.562992870807648" lon="10.930892564356327">
        <ele>994.200000000000045</ele>
        <time>2015-03-01T13:50:21Z</time>
      </trkpt>
      <trkpt lat="47.563003767281771" lon="10.930963642895222">
        <ele>993.759999999999991</ele>
        <time>2015-03-01T13:50:22Z</time>
      </trkpt>
      <trkpt lat="47.562997816130519" lon="10.931038409471512">
        <ele>992.759999999999991</ele>
        <time>2015-03-01T13:50:23Z</time>
      </trkpt>
      <trkpt lat="47.562977196648717" lon="10.931111583486199">
        <ele>991.080000000000041</ele>
        <time>2015-03-01T13:50:24Z</time>
      </trkpt>
      <trkpt lat="47.56295146420598" lon="10.931178722530603">
        <ele>990.629999999999995</ele>
        <time>2015-03-01T13:50:25Z</time>
      </trkpt>
      <trkpt lat="47.562920115888119" lon="10.931238066405058">
        <ele>989.669999999999959</ele>
        <time>2015-03-01T13:50:26Z</time>
      </trkpt>
      <trkpt lat="47.562882816419005" lon="10.931293303146958">
        <ele>988.639999999999986</ele>
        <time>2015-03-01T13:50:27Z</time>
      </trkpt>
      <trkpt lat="47.56284249946475" lon="10.931341666728258">
        <ele>988.080000000000041</ele>
        <time>2015-03-01T13:50:28Z</time>
      </trkpt>
      <trkpt lat="47.56280142813921" lon="10.931383073329926">
        <ele>987.460000000000036</ele>
        <time>2015-03-01T13:50:29Z</time>
      </trkpt>
      <trkpt lat="47.56276186555624" lon="10.931420456618071">
        <ele>986.169999999999959</ele>
        <time>2015-03-01T13:50:30Z</time>
      </trkpt>
      <trkpt lat="47.562676537781954" lon="10.931482231244445">
        <ele>985.409999999999968</ele>
        <time>2015-03-01T13:50:32Z</time>
      </trkpt>
      <trkpt lat="47.562630604952574" lon="10.931507041677833">
        <ele>984.840000000000032</ele>
        <time>2015-03-01T13:50:33Z</time>
      </trkpt>
      <trkpt lat="47.562584672123194" lon="10.931527158245444">
        <ele>983.549999999999955</ele>
        <time>2015-03-01T13:50:34Z</time>
      </trkpt>
      <trkpt lat="47.562539409846067" lon="10.931540401652455">
        <ele>983.399999999999977</ele>
        <time>2015-03-01T13:50:35Z</time>
      </trkpt>
      <trkpt lat="47.562490627169609" lon="10.931551968678832">
        <ele>982.519999999999982</ele>
        <time>2015-03-01T13:50:36Z</time>
      </trkpt>
      <trkpt lat="47.562443520873785" lon="10.931582059711218">
        <ele>981.830000000000041</ele>
        <time>2015-03-01T13:50:37Z</time>
      </trkpt>
      <trkpt lat="47.56239834241569" lon="10.931627573445439">
        <ele>981.25</ele>
        <time>2015-03-01T13:50:38Z</time>
      </trkpt>
      <trkpt lat="47.562361881136894" lon="10.93168867751956">
        <ele>980.080000000000041</ele>
        <time>2015-03-01T13:50:39Z</time>
      </trkpt>
      <trkpt lat="47.5623460393399" lon="10.931767802685499">
        <ele>979.309999999999945</ele>
        <time>2015-03-01T13:50:40Z</time>
      </trkpt>
      <trkpt lat="47.562354672700167" lon="10.931854471564293">
        <ele>978.100000000000023</ele>
        <time>2015-03-01T13:50:41Z</time>
      </trkpt>
      <trkpt lat="47.562373783439398" lon="10.931936949491501">
        <ele>977.629999999999995</ele>
        <time>2015-03-01T13:50:42Z</time>
      </trkpt>
      <trkpt lat="47.562397168949246" lon="10.932021019980311">
        <ele>976.309999999999945</ele>
        <time>2015-03-01T13:50:43Z</time>
      </trkpt>
      <trkpt lat="47.562428768724203" lon="10.932104839012027">
        <ele>975.710000000000036</ele>
        <time>2015-03-01T13:50:44Z</time>
      </trkpt>
      <trkpt lat="47.562461541965604" lon="10.932191507890821">
        <ele>974.25</ele>
        <time>2015-03-01T13:50:45Z</time>
      </trkpt>
      <trkpt lat="47.562505630776286" lon="10.932271387428045">
        <ele>973.309999999999945</ele>
        <time>2015-03-01T13:50:46Z</time>
      </trkpt>
      <trkpt lat="47.562552066519856" lon="10.93234246596694">
        <ele>972.419999999999959</ele>
        <time>2015-03-01T13:50:47Z</time>
      </trkpt>
      <trkpt lat="47.562596993520856" lon="10.932398373261094">
        <ele>971.279999999999973</ele>
        <time>2015-03-01T13:50:48Z</time>
      </trkpt>
      <trkpt lat="47.562643429264426" lon="10.932441959157586">
        <ele>971.360000000000014</ele>
        <time>2015-03-01T13:50:49Z</time>
      </trkpt>
      <trkpt lat="47.562687685713172" lon="10.932479090988636">
        <ele>969.860000000000014</ele>
        <time>2015-03-01T13:50:50Z</time>
      </trkpt>
      <trkpt lat="47.562890527769923" lon="10.932640358805656">
        <ele>969.240000000000009</ele>
        <time>2015-03-01T13:51:00Z</time>
      </trkpt>
      <trkpt lat="47.562998570501804" lon="10.932781929150224">
        <ele>969.100000000000023</ele>
        <time>2015-03-01T13:51:13Z</time>
      </trkpt>
      <trkpt lat="47.563200825825334" lon="10.933107566088438">
        <ele>968.340000000000032</ele>
        <time>2015-03-01T13:51:30Z</time>
      </trkpt>
      <trkpt lat="47.563196299597621" lon="10.933429431170225">
        <ele>968.279999999999973</ele>
        <time>2015-03-01T13:51:45Z</time>
      </trkpt>
      <trkpt lat="47.563138715922832" lon="10.93380787409842">
        <ele>966.809999999999945</ele>
        <time>2015-03-01T13:51:57Z</time>
      </trkpt>
      <trkpt lat="47.563140392303467" lon="10.934214312583208">
        <ele>965.450000000000045</ele>
        <time>2015-03-01T13:52:11Z</time>
      </trkpt>
      <trkpt lat="47.563040899112821" lon="10.934583870694041">
        <ele>965.57000000000005</ele>
        <time>2015-03-01T13:52:24Z</time>
      </trkpt>
      <trkpt lat="47.56277846172452" lon="10.934823341667652">
        <ele>965.279999999999973</ele>
        <time>2015-03-01T13:52:41Z</time>
      </trkpt>
      <trkpt lat="47.562627838924527" lon="10.935057112947106">
        <ele>964.830000000000041</ele>
        <time>2015-03-01T13:52:55Z</time>
      </trkpt>
      <trkpt lat="47.562597496435046" lon="10.93512567691505">
        <ele>964.980000000000018</ele>
        <time>2015-03-01T13:52:59Z</time>
      </trkpt>
      <trkpt lat="47.562569584697485" lon="10.935270013287663">
        <ele>964.960000000000036</ele>
        <time>2015-03-01T13:53:10Z</time>
      </trkpt>
      <trkpt lat="47.562529435381293" lon="10.935433460399508">
        <ele>965.230000000000018</ele>
        <time>2015-03-01T13:53:28Z</time>
      </trkpt>
      <trkpt lat="47.562485095113516" lon="10.93549070879817">
        <ele>967.230000000000018</ele>
        <time>2015-03-01T13:53:50Z</time>
      </trkpt>
      <trkpt lat="47.562462212517858" lon="10.935508646070957">
        <ele>966.860000000000014</ele>
        <time>2015-03-01T13:53:55Z</time>
      </trkpt>
      <trkpt lat="47.562454249709845" lon="10.935542676597834">
        <ele>966.42999999999995</ele>
        <time>2015-03-01T13:54:08Z</time>
      </trkpt>
      <trkpt lat="47.562462044879794" lon="10.935545777902007">
        <ele>965.690000000000055</ele>
        <time>2015-03-01T13:54:16Z</time>
      </trkpt>
      <trkpt lat="47.562464391812682" lon="10.935546532273293">
        <ele>967.159999999999968</ele>
        <time>2015-03-01T13:54:18Z</time>
      </trkpt>
      <trkpt lat="47.562462463974953" lon="10.935558434575796">
        <ele>966.480000000000018</ele>
        <time>2015-03-01T13:54:20Z</time>
      </trkpt>
      <trkpt lat="47.562442598864436" lon="10.935577461495996">
        <ele>965.909999999999968</ele>
        <time>2015-03-01T13:54:46Z</time>
      </trkpt>
      <trkpt lat="47.562435977160931" lon="10.935597158968449">
        <ele>964.690000000000055</ele>
        <time>2015-03-01T13:55:31Z</time>
      </trkpt>
      <trkpt lat="47.562419716268778" lon="10.935583664104342">
        <ele>964.879999999999995</ele>
        <time>2015-03-01T13:56:17Z</time>
      </trkpt>
      <trkpt lat="47.562427762895823" lon="10.935602691024542">
        <ele>965</ele>
        <time>2015-03-01T13:56:50Z</time>
      </trkpt>
      <trkpt lat="47.562413010746241" lon="10.935630351305008">
        <ele>965.090000000000032</ele>
        <time>2015-03-01T13:57:26Z</time>
      </trkpt>
      <trkpt lat="47.56242960691452" lon="10.935617443174124">
        <ele>965.740000000000009</ele>
        <time>2015-03-01T13:57:56Z</time>
      </trkpt>
      <trkpt lat="47.562431450933218" lon="10.935546783730388">
        <ele>965.100000000000023</ele>
        <time>2015-03-01T13:58:23Z</time>
      </trkpt>
      <trkpt lat="47.562434216961265" lon="10.935558434575796">
        <ele>965.330000000000041</ele>
        <time>2015-03-01T13:58:52Z</time>
      </trkpt>
      <trkpt lat="47.562457015737891" lon="10.935531947761774">
        <ele>965.220000000000027</ele>
        <time>2015-03-01T13:59:27Z</time>
      </trkpt>
      <trkpt lat="47.562452489510179" lon="10.9355444367975">
        <ele>965.559999999999945</ele>
        <time>2015-03-01T14:00:22Z</time>
      </trkpt>
      <trkpt lat="47.562416112050414" lon="10.935572097077966">
        <ele>965.620000000000005</ele>
        <time>2015-03-01T14:01:14Z</time>
      </trkpt>
      <trkpt lat="47.562437653541565" lon="10.935542173683643">
        <ele>966.340000000000032</ele>
        <time>2015-03-01T14:02:02Z</time>
      </trkpt>
      <trkpt lat="47.56243254058063" lon="10.935555333271623">
        <ele>966.610000000000014</ele>
        <time>2015-03-01T14:02:26Z</time>
      </trkpt>
    </trkseg>
  </trk>

</gpx>
